<?xml version='1.0' encoding='UTF-8'?><gpx version="1.1" creator="JPX - https://github.com/jenetics/jpx" xmlns="http://www.topografix.com/GPX/1/1"><trk><trkseg><trkpt lat="44.2099765" lon="12.0985716"><ele>25.999999999999996</ele><time>2026-04-16T16:14:10.884Z</time></trkpt><trkpt lat="44.2099965" lon="12.0984645"><ele>26.0</ele><time>2026-04-16T16:14:20.889Z</time></trkpt><trkpt lat="44.2100191" lon="12.0983613"><ele>26.0</ele><time>2026-04-16T16:14:23.883Z</time></trkpt><trkpt lat="44.2100693" lon="12.0982912"><ele>26.0</ele><time>2026-04-16T16:14:25.888Z</time></trkpt><trkpt lat="44.2101613" lon="12.098242"><ele>25.999999999999996</ele><time>2026-04-16T16:14:27.887Z</time></trkpt><trkpt lat="44.210259" lon="12.0982334"><ele>26.0</ele><time>2026-04-16T16:14:29.882Z</time></trkpt><trkpt lat="44.2103467" lon="12.0982488"><ele>26.0</ele><time>2026-04-16T16:14:31.852Z</time></trkpt><trkpt lat="44.210388" lon="12.0983512"><ele>26.0</ele><time>2026-04-16T16:14:33.857Z</time></trkpt><trkpt lat="44.2104497" lon="12.098412"><ele>26.0</ele><time>2026-04-16T16:14:34.88Z</time></trkpt><trkpt lat="44.2105383" lon="12.098476"><ele>26.0</ele><time>2026-04-16T16:14:36.885Z</time></trkpt><trkpt lat="44.2106203" lon="12.098533"><ele>26.0</ele><time>2026-04-16T16:14:38.767Z</time></trkpt><trkpt lat="44.2107109" lon="12.098587"><ele>25.75</ele><time>2026-04-16T16:14:40.767Z</time></trkpt><trkpt lat="44.2106899" lon="12.0984698"><ele>25.5</ele><time>2026-04-16T16:14:44.764Z</time></trkpt><trkpt lat="44.2108893" lon="12.0986945"><ele>25.25</ele><time>2026-04-16T16:14:45.752Z</time></trkpt><trkpt lat="44.2109515" lon="12.0987492"><ele>25.0</ele><time>2026-04-16T16:14:46.751Z</time></trkpt><trkpt lat="44.2110382" lon="12.0988119"><ele>25.000000000000004</ele><time>2026-04-16T16:14:48.764Z</time></trkpt><trkpt lat="44.2111142" lon="12.0988685"><ele>25.0</ele><time>2026-04-16T16:14:50.766Z</time></trkpt><trkpt lat="44.2111888" lon="12.0989304"><ele>25.0</ele><time>2026-04-16T16:14:52.785Z</time></trkpt><trkpt lat="44.2112705" lon="12.0989734"><ele>25.0</ele><time>2026-04-16T16:14:54.767Z</time></trkpt><trkpt lat="44.2113462" lon="12.0990379"><ele>25.000000000000004</ele><time>2026-04-16T16:14:56.767Z</time></trkpt><trkpt lat="44.2114035" lon="12.0991319"><ele>25.0</ele><time>2026-04-16T16:14:58.765Z</time></trkpt><trkpt lat="44.2113816" lon="12.0992499"><ele>25.2</ele><time>2026-04-16T16:15:00.768Z</time></trkpt><trkpt lat="44.2113173" lon="12.0993477"><ele>25.4</ele><time>2026-04-16T16:15:02.767Z</time></trkpt><trkpt lat="44.2112468" lon="12.0994502"><ele>25.6</ele><time>2026-04-16T16:15:04.769Z</time></trkpt><trkpt lat="44.2111693" lon="12.0995587"><ele>25.8</ele><time>2026-04-16T16:15:06.78Z</time></trkpt><trkpt lat="44.2111019" lon="12.0996633"><ele>26.0</ele><time>2026-04-16T16:15:08.763Z</time></trkpt><trkpt lat="44.2110374" lon="12.099765"><ele>26.0</ele><time>2026-04-16T16:15:10.763Z</time></trkpt><trkpt lat="44.2109732" lon="12.0998707"><ele>26.0</ele><time>2026-04-16T16:15:12.767Z</time></trkpt><trkpt lat="44.2109016" lon="12.0999773"><ele>26.0</ele><time>2026-04-16T16:15:14.767Z</time></trkpt><trkpt lat="44.2108275" lon="12.1000842"><ele>26.0</ele><time>2026-04-16T16:15:16.764Z</time></trkpt><trkpt lat="44.2107592" lon="12.1001992"><ele>26.0</ele><time>2026-04-16T16:15:18.76Z</time></trkpt><trkpt lat="44.2106904" lon="12.1003087"><ele>25.8</ele><time>2026-04-16T16:15:20.765Z</time></trkpt><trkpt lat="44.2106243" lon="12.1004294"><ele>25.6</ele><time>2026-04-16T16:15:22.785Z</time></trkpt><trkpt lat="44.2105595" lon="12.1005481"><ele>25.4</ele><time>2026-04-16T16:15:24.769Z</time></trkpt><trkpt lat="44.2104922" lon="12.1006708"><ele>25.2</ele><time>2026-04-16T16:15:26.765Z</time></trkpt><trkpt lat="44.2104196" lon="12.1007904"><ele>25.0</ele><time>2026-04-16T16:15:28.766Z</time></trkpt><trkpt lat="44.2103553" lon="12.1009072"><ele>25.0</ele><time>2026-04-16T16:15:30.767Z</time></trkpt><trkpt lat="44.2102842" lon="12.1010156"><ele>25.0</ele><time>2026-04-16T16:15:32.769Z</time></trkpt><trkpt lat="44.2102233" lon="12.1011329"><ele>25.0</ele><time>2026-04-16T16:15:34.759Z</time></trkpt><trkpt lat="44.2101655" lon="12.1012502"><ele>25.0</ele><time>2026-04-16T16:15:36.761Z</time></trkpt><trkpt lat="44.2100921" lon="12.101367"><ele>25.0</ele><time>2026-04-16T16:15:38.76Z</time></trkpt><trkpt lat="44.2100228" lon="12.101477"><ele>25.2</ele><time>2026-04-16T16:15:40.76Z</time></trkpt><trkpt lat="44.2099658" lon="12.1015982"><ele>25.4</ele><time>2026-04-16T16:15:42.764Z</time></trkpt><trkpt lat="44.2099075" lon="12.1017205"><ele>25.6</ele><time>2026-04-16T16:15:44.76Z</time></trkpt><trkpt lat="44.2098561" lon="12.1018463"><ele>25.8</ele><time>2026-04-16T16:15:46.756Z</time></trkpt><trkpt lat="44.2097973" lon="12.1019649"><ele>26.0</ele><time>2026-04-16T16:15:48.756Z</time></trkpt><trkpt lat="44.2097397" lon="12.1020802"><ele>25.6</ele><time>2026-04-16T16:15:50.754Z</time></trkpt><trkpt lat="44.2096931" lon="12.1021982"><ele>25.200000000000003</ele><time>2026-04-16T16:15:52.765Z</time></trkpt><trkpt lat="44.2096339" lon="12.102302"><ele>24.799999999999997</ele><time>2026-04-16T16:15:54.78Z</time></trkpt><trkpt lat="44.2095355" lon="12.1023374"><ele>24.4</ele><time>2026-04-16T16:15:56.769Z</time></trkpt><trkpt lat="44.2094313" lon="12.1022661"><ele>24.0</ele><time>2026-04-16T16:15:58.754Z</time></trkpt><trkpt lat="44.2093381" lon="12.1021769"><ele>24.0</ele><time>2026-04-16T16:16:00.755Z</time></trkpt><trkpt lat="44.2092425" lon="12.1020959"><ele>24.0</ele><time>2026-04-16T16:16:02.764Z</time></trkpt><trkpt lat="44.2091539" lon="12.1020195"><ele>24.0</ele><time>2026-04-16T16:16:04.752Z</time></trkpt><trkpt lat="44.2090645" lon="12.101954"><ele>24.0</ele><time>2026-04-16T16:16:06.765Z</time></trkpt><trkpt lat="44.2089804" lon="12.1018833"><ele>24.0</ele><time>2026-04-16T16:16:08.765Z</time></trkpt><trkpt lat="44.2088954" lon="12.1018141"><ele>24.0</ele><time>2026-04-16T16:16:10.759Z</time></trkpt><trkpt lat="44.2088093" lon="12.1017477"><ele>24.0</ele><time>2026-04-16T16:16:12.761Z</time></trkpt><trkpt lat="44.208727" lon="12.1016837"><ele>24.0</ele><time>2026-04-16T16:16:14.764Z</time></trkpt><trkpt lat="44.2086456" lon="12.1016169"><ele>24.0</ele><time>2026-04-16T16:16:16.753Z</time></trkpt><trkpt lat="44.2085585" lon="12.1015546"><ele>24.0</ele><time>2026-04-16T16:16:18.754Z</time></trkpt><trkpt lat="44.2084712" lon="12.101495"><ele>24.0</ele><time>2026-04-16T16:16:20.758Z</time></trkpt><trkpt lat="44.2083873" lon="12.1014345"><ele>24.0</ele><time>2026-04-16T16:16:22.778Z</time></trkpt><trkpt lat="44.2083048" lon="12.101376"><ele>24.0</ele><time>2026-04-16T16:16:24.757Z</time></trkpt><trkpt lat="44.2082195" lon="12.1013143"><ele>24.0</ele><time>2026-04-16T16:16:26.756Z</time></trkpt><trkpt lat="44.2081329" lon="12.1012445"><ele>24.0</ele><time>2026-04-16T16:16:28.761Z</time></trkpt><trkpt lat="44.2080514" lon="12.1011833"><ele>24.2</ele><time>2026-04-16T16:16:30.762Z</time></trkpt><trkpt lat="44.2079743" lon="12.1011276"><ele>24.4</ele><time>2026-04-16T16:16:32.761Z</time></trkpt><trkpt lat="44.2078937" lon="12.1010719"><ele>24.6</ele><time>2026-04-16T16:16:34.751Z</time></trkpt><trkpt lat="44.2078063" lon="12.1010038"><ele>24.8</ele><time>2026-04-16T16:16:36.755Z</time></trkpt><trkpt lat="44.2077218" lon="12.1009285"><ele>25.0</ele><time>2026-04-16T16:16:38.767Z</time></trkpt><trkpt lat="44.2076324" lon="12.100875"><ele>25.0</ele><time>2026-04-16T16:16:40.75Z</time></trkpt><trkpt lat="44.207539" lon="12.1008959"><ele>25.0</ele><time>2026-04-16T16:16:42.765Z</time></trkpt><trkpt lat="44.207489" lon="12.10103"><ele>25.0</ele><time>2026-04-16T16:16:44.753Z</time></trkpt><trkpt lat="44.2074438" lon="12.1011644"><ele>25.0</ele><time>2026-04-16T16:16:46.763Z</time></trkpt><trkpt lat="44.2074011" lon="12.1012882"><ele>25.0</ele><time>2026-04-16T16:16:48.758Z</time></trkpt><trkpt lat="44.2073532" lon="12.101409"><ele>25.0</ele><time>2026-04-16T16:16:50.758Z</time></trkpt><trkpt lat="44.2073138" lon="12.1015317"><ele>25.0</ele><time>2026-04-16T16:16:52.769Z</time></trkpt><trkpt lat="44.2072796" lon="12.1016567"><ele>25.0</ele><time>2026-04-16T16:16:54.769Z</time></trkpt><trkpt lat="44.2072402" lon="12.101778"><ele>25.0</ele><time>2026-04-16T16:16:56.775Z</time></trkpt><trkpt lat="44.2071986" lon="12.1019021"><ele>25.0</ele><time>2026-04-16T16:16:58.758Z</time></trkpt><trkpt lat="44.2071536" lon="12.1020191"><ele>25.0</ele><time>2026-04-16T16:17:00.758Z</time></trkpt><trkpt lat="44.2071112" lon="12.1021292"><ele>25.0</ele><time>2026-04-16T16:17:02.758Z</time></trkpt><trkpt lat="44.2070703" lon="12.1022377"><ele>25.0</ele><time>2026-04-16T16:17:04.762Z</time></trkpt><trkpt lat="44.2070298" lon="12.102351"><ele>25.0</ele><time>2026-04-16T16:17:06.76Z</time></trkpt><trkpt lat="44.2069916" lon="12.1024708"><ele>25.0</ele><time>2026-04-16T16:17:08.763Z</time></trkpt><trkpt lat="44.2069648" lon="12.1025916"><ele>25.0</ele><time>2026-04-16T16:17:10.774Z</time></trkpt><trkpt lat="44.2069542" lon="12.1027276"><ele>25.0</ele><time>2026-04-16T16:17:12.767Z</time></trkpt><trkpt lat="44.2069397" lon="12.1028465"><ele>25.0</ele><time>2026-04-16T16:17:14.767Z</time></trkpt><trkpt lat="44.2069053" lon="12.1029499"><ele>25.0</ele><time>2026-04-16T16:17:16.764Z</time></trkpt><trkpt lat="44.2068241" lon="12.1030276"><ele>25.0</ele><time>2026-04-16T16:17:18.761Z</time></trkpt><trkpt lat="44.2067557" lon="12.1031289"><ele>24.8</ele><time>2026-04-16T16:17:20.759Z</time></trkpt><trkpt lat="44.2067249" lon="12.1032708"><ele>24.6</ele><time>2026-04-16T16:17:22.76Z</time></trkpt><trkpt lat="44.2067287" lon="12.103416"><ele>24.4</ele><time>2026-04-16T16:17:24.755Z</time></trkpt><trkpt lat="44.2067143" lon="12.1035636"><ele>24.2</ele><time>2026-04-16T16:17:26.754Z</time></trkpt><trkpt lat="44.2066717" lon="12.1037075"><ele>24.0</ele><time>2026-04-16T16:17:28.75Z</time></trkpt><trkpt lat="44.2066131" lon="12.103843"><ele>24.0</ele><time>2026-04-16T16:17:30.758Z</time></trkpt><trkpt lat="44.2065471" lon="12.1039735"><ele>24.0</ele><time>2026-04-16T16:17:32.757Z</time></trkpt><trkpt lat="44.2064913" lon="12.1040981"><ele>24.0</ele><time>2026-04-16T16:17:34.753Z</time></trkpt><trkpt lat="44.2064333" lon="12.104219"><ele>24.0</ele><time>2026-04-16T16:17:36.755Z</time></trkpt><trkpt lat="44.2063826" lon="12.1043509"><ele>24.0</ele><time>2026-04-16T16:17:38.756Z</time></trkpt><trkpt lat="44.2063263" lon="12.1044749"><ele>24.0</ele><time>2026-04-16T16:17:40.759Z</time></trkpt><trkpt lat="44.2062681" lon="12.1046023"><ele>24.0</ele><time>2026-04-16T16:17:42.762Z</time></trkpt><trkpt lat="44.206216" lon="12.1047289"><ele>24.0</ele><time>2026-04-16T16:17:44.769Z</time></trkpt><trkpt lat="44.2061581" lon="12.1048418"><ele>24.0</ele><time>2026-04-16T16:17:46.756Z</time></trkpt><trkpt lat="44.2061078" lon="12.1049589"><ele>24.0</ele><time>2026-04-16T16:17:48.757Z</time></trkpt><trkpt lat="44.2060522" lon="12.1050816"><ele>24.2</ele><time>2026-04-16T16:17:50.759Z</time></trkpt><trkpt lat="44.2059957" lon="12.1051971"><ele>24.4</ele><time>2026-04-16T16:17:52.761Z</time></trkpt><trkpt lat="44.2059352" lon="12.1053064"><ele>24.6</ele><time>2026-04-16T16:17:54.757Z</time></trkpt><trkpt lat="44.2058683" lon="12.1054023"><ele>24.8</ele><time>2026-04-16T16:17:56.753Z</time></trkpt><trkpt lat="44.2057884" lon="12.1054857"><ele>25.0</ele><time>2026-04-16T16:17:58.768Z</time></trkpt><trkpt lat="44.2057099" lon="12.1055883"><ele>24.8</ele><time>2026-04-16T16:18:00.768Z</time></trkpt><trkpt lat="44.2056447" lon="12.1057055"><ele>24.6</ele><time>2026-04-16T16:18:02.754Z</time></trkpt><trkpt lat="44.2055901" lon="12.1058137"><ele>24.4</ele><time>2026-04-16T16:18:04.758Z</time></trkpt><trkpt lat="44.2055368" lon="12.1059271"><ele>24.2</ele><time>2026-04-16T16:18:06.76Z</time></trkpt><trkpt lat="44.2054793" lon="12.1060362"><ele>24.0</ele><time>2026-04-16T16:18:08.759Z</time></trkpt><trkpt lat="44.2054202" lon="12.106151"><ele>24.0</ele><time>2026-04-16T16:18:10.757Z</time></trkpt><trkpt lat="44.2053668" lon="12.1062652"><ele>24.0</ele><time>2026-04-16T16:18:12.756Z</time></trkpt><trkpt lat="44.2053146" lon="12.1063772"><ele>24.0</ele><time>2026-04-16T16:18:14.753Z</time></trkpt><trkpt lat="44.2052663" lon="12.1064977"><ele>24.0</ele><time>2026-04-16T16:18:16.753Z</time></trkpt><trkpt lat="44.205203" lon="12.1066105"><ele>24.0</ele><time>2026-04-16T16:18:18.748Z</time></trkpt><trkpt lat="44.2051443" lon="12.1067117"><ele>24.0</ele><time>2026-04-16T16:18:20.753Z</time></trkpt><trkpt lat="44.2050855" lon="12.1068221"><ele>24.0</ele><time>2026-04-16T16:18:22.762Z</time></trkpt><trkpt lat="44.2050291" lon="12.1069342"><ele>24.0</ele><time>2026-04-16T16:18:24.763Z</time></trkpt><trkpt lat="44.2049644" lon="12.107047"><ele>24.0</ele><time>2026-04-16T16:18:26.757Z</time></trkpt><trkpt lat="44.2049046" lon="12.1071694"><ele>24.0</ele><time>2026-04-16T16:18:28.758Z</time></trkpt><trkpt lat="44.2048395" lon="12.1072939"><ele>24.0</ele><time>2026-04-16T16:18:30.759Z</time></trkpt><trkpt lat="44.2047794" lon="12.107423"><ele>24.0</ele><time>2026-04-16T16:18:32.757Z</time></trkpt><trkpt lat="44.2047224" lon="12.1075483"><ele>24.0</ele><time>2026-04-16T16:18:34.757Z</time></trkpt><trkpt lat="44.2046641" lon="12.1076705"><ele>24.0</ele><time>2026-04-16T16:18:36.759Z</time></trkpt><trkpt lat="44.2046022" lon="12.1077893"><ele>24.0</ele><time>2026-04-16T16:18:38.76Z</time></trkpt><trkpt lat="44.2045399" lon="12.1079048"><ele>24.0</ele><time>2026-04-16T16:18:40.755Z</time></trkpt><trkpt lat="44.2044806" lon="12.1080224"><ele>24.0</ele><time>2026-04-16T16:18:42.758Z</time></trkpt><trkpt lat="44.2044199" lon="12.1081358"><ele>24.0</ele><time>2026-04-16T16:18:44.756Z</time></trkpt><trkpt lat="44.2043578" lon="12.1082494"><ele>24.0</ele><time>2026-04-16T16:18:46.759Z</time></trkpt><trkpt lat="44.2042971" lon="12.1083679"><ele>24.0</ele><time>2026-04-16T16:18:48.758Z</time></trkpt><trkpt lat="44.2042362" lon="12.108481"><ele>23.799999999999997</ele><time>2026-04-16T16:18:50.759Z</time></trkpt><trkpt lat="44.2041782" lon="12.1086037"><ele>23.599999999999998</ele><time>2026-04-16T16:18:52.76Z</time></trkpt><trkpt lat="44.2041285" lon="12.1087383"><ele>23.4</ele><time>2026-04-16T16:18:54.757Z</time></trkpt><trkpt lat="44.2040789" lon="12.1088727"><ele>23.2</ele><time>2026-04-16T16:18:56.755Z</time></trkpt><trkpt lat="44.2040275" lon="12.109005"><ele>23.0</ele><time>2026-04-16T16:18:58.754Z</time></trkpt><trkpt lat="44.2039785" lon="12.1091355"><ele>23.4</ele><time>2026-04-16T16:19:00.77Z</time></trkpt><trkpt lat="44.2039236" lon="12.1092615"><ele>23.799999999999997</ele><time>2026-04-16T16:19:02.759Z</time></trkpt><trkpt lat="44.2038709" lon="12.1093845"><ele>24.2</ele><time>2026-04-16T16:19:04.757Z</time></trkpt><trkpt lat="44.2038093" lon="12.1095031"><ele>24.6</ele><time>2026-04-16T16:19:06.753Z</time></trkpt><trkpt lat="44.2037435" lon="12.1096207"><ele>25.0</ele><time>2026-04-16T16:19:08.754Z</time></trkpt><trkpt lat="44.2036758" lon="12.109731"><ele>25.0</ele><time>2026-04-16T16:19:10.756Z</time></trkpt><trkpt lat="44.2036103" lon="12.109857"><ele>25.0</ele><time>2026-04-16T16:19:12.754Z</time></trkpt><trkpt lat="44.2035442" lon="12.1099861"><ele>25.0</ele><time>2026-04-16T16:19:14.755Z</time></trkpt><trkpt lat="44.2034832" lon="12.1101111"><ele>25.0</ele><time>2026-04-16T16:19:16.758Z</time></trkpt><trkpt lat="44.2034209" lon="12.1102324"><ele>25.0</ele><time>2026-04-16T16:19:18.755Z</time></trkpt><trkpt lat="44.2033657" lon="12.1103606"><ele>24.6</ele><time>2026-04-16T16:19:20.757Z</time></trkpt><trkpt lat="44.2033168" lon="12.1104896"><ele>24.2</ele><time>2026-04-16T16:19:22.76Z</time></trkpt><trkpt lat="44.2032707" lon="12.1106209"><ele>23.799999999999997</ele><time>2026-04-16T16:19:24.763Z</time></trkpt><trkpt lat="44.2032252" lon="12.1107487"><ele>23.4</ele><time>2026-04-16T16:19:26.759Z</time></trkpt><trkpt lat="44.2031723" lon="12.1108739"><ele>23.0</ele><time>2026-04-16T16:19:28.765Z</time></trkpt><trkpt lat="44.203122" lon="12.1110015"><ele>23.0</ele><time>2026-04-16T16:19:30.771Z</time></trkpt><trkpt lat="44.203075" lon="12.111137"><ele>23.0</ele><time>2026-04-16T16:19:32.759Z</time></trkpt><trkpt lat="44.2030201" lon="12.1112656"><ele>23.0</ele><time>2026-04-16T16:19:34.759Z</time></trkpt><trkpt lat="44.202969" lon="12.1114008"><ele>23.0</ele><time>2026-04-16T16:19:36.758Z</time></trkpt><trkpt lat="44.2029188" lon="12.1115372"><ele>23.0</ele><time>2026-04-16T16:19:38.761Z</time></trkpt><trkpt lat="44.2028639" lon="12.1116653"><ele>23.5</ele><time>2026-04-16T16:19:40.756Z</time></trkpt><trkpt lat="44.2028093" lon="12.111799"><ele>24.0</ele><time>2026-04-16T16:19:42.758Z</time></trkpt><trkpt lat="44.202749" lon="12.1119427"><ele>24.5</ele><time>2026-04-16T16:19:44.76Z</time></trkpt><trkpt lat="44.2026941" lon="12.1120972"><ele>25.0</ele><time>2026-04-16T16:19:46.761Z</time></trkpt><trkpt lat="44.2026345" lon="12.1122507"><ele>25.0</ele><time>2026-04-16T16:19:48.758Z</time></trkpt><trkpt lat="44.2026012" lon="12.1123297"><ele>25.0</ele><time>2026-04-16T16:19:49.757Z</time></trkpt><trkpt lat="44.2025681" lon="12.1124068"><ele>25.0</ele><time>2026-04-16T16:19:50.758Z</time></trkpt><trkpt lat="44.2025079" lon="12.1125593"><ele>25.0</ele><time>2026-04-16T16:19:52.767Z</time></trkpt><trkpt lat="44.2024478" lon="12.1127046"><ele>25.0</ele><time>2026-04-16T16:19:54.764Z</time></trkpt><trkpt lat="44.2023977" lon="12.112845"><ele>25.0</ele><time>2026-04-16T16:19:56.761Z</time></trkpt><trkpt lat="44.2023402" lon="12.112986"><ele>25.0</ele><time>2026-04-16T16:19:58.764Z</time></trkpt><trkpt lat="44.2022848" lon="12.1131278"><ele>25.0</ele><time>2026-04-16T16:20:00.758Z</time></trkpt><trkpt lat="44.2022331" lon="12.1132689"><ele>25.0</ele><time>2026-04-16T16:20:02.776Z</time></trkpt><trkpt lat="44.2021862" lon="12.1134072"><ele>25.0</ele><time>2026-04-16T16:20:04.752Z</time></trkpt><trkpt lat="44.2021311" lon="12.1135478"><ele>25.0</ele><time>2026-04-16T16:20:06.747Z</time></trkpt><trkpt lat="44.2020751" lon="12.113678"><ele>25.0</ele><time>2026-04-16T16:20:08.752Z</time></trkpt><trkpt lat="44.2020166" lon="12.1138065"><ele>25.0</ele><time>2026-04-16T16:20:10.756Z</time></trkpt><trkpt lat="44.201965" lon="12.1139272"><ele>25.0</ele><time>2026-04-16T16:20:12.753Z</time></trkpt><trkpt lat="44.2019128" lon="12.1140644"><ele>24.6</ele><time>2026-04-16T16:20:14.758Z</time></trkpt><trkpt lat="44.2018694" lon="12.1142015"><ele>24.2</ele><time>2026-04-16T16:20:16.76Z</time></trkpt><trkpt lat="44.2018211" lon="12.1143419"><ele>23.799999999999997</ele><time>2026-04-16T16:20:18.759Z</time></trkpt><trkpt lat="44.2017683" lon="12.1144737"><ele>23.4</ele><time>2026-04-16T16:20:20.76Z</time></trkpt><trkpt lat="44.2017167" lon="12.1145989"><ele>23.0</ele><time>2026-04-16T16:20:22.76Z</time></trkpt><trkpt lat="44.2016643" lon="12.1147282"><ele>23.0</ele><time>2026-04-16T16:20:24.762Z</time></trkpt><trkpt lat="44.2016166" lon="12.1148616"><ele>23.0</ele><time>2026-04-16T16:20:26.763Z</time></trkpt><trkpt lat="44.201568" lon="12.1149949"><ele>23.0</ele><time>2026-04-16T16:20:28.762Z</time></trkpt><trkpt lat="44.2015118" lon="12.1151218"><ele>23.0</ele><time>2026-04-16T16:20:30.764Z</time></trkpt><trkpt lat="44.2014674" lon="12.1152501"><ele>23.0</ele><time>2026-04-16T16:20:32.765Z</time></trkpt><trkpt lat="44.2014197" lon="12.1153762"><ele>23.2</ele><time>2026-04-16T16:20:34.76Z</time></trkpt><trkpt lat="44.2013752" lon="12.1155162"><ele>23.4</ele><time>2026-04-16T16:20:36.757Z</time></trkpt><trkpt lat="44.2013259" lon="12.1156441"><ele>23.599999999999998</ele><time>2026-04-16T16:20:38.758Z</time></trkpt><trkpt lat="44.2012713" lon="12.1157629"><ele>23.799999999999997</ele><time>2026-04-16T16:20:40.759Z</time></trkpt><trkpt lat="44.201213" lon="12.1158783"><ele>24.0</ele><time>2026-04-16T16:20:42.758Z</time></trkpt><trkpt lat="44.2011605" lon="12.1160147"><ele>24.2</ele><time>2026-04-16T16:20:44.76Z</time></trkpt><trkpt lat="44.2011105" lon="12.1161472"><ele>24.4</ele><time>2026-04-16T16:20:46.756Z</time></trkpt><trkpt lat="44.2010551" lon="12.1162813"><ele>24.6</ele><time>2026-04-16T16:20:48.758Z</time></trkpt><trkpt lat="44.2009961" lon="12.1164181"><ele>24.8</ele><time>2026-04-16T16:20:50.76Z</time></trkpt><trkpt lat="44.2009411" lon="12.1165537"><ele>25.0</ele><time>2026-04-16T16:20:52.762Z</time></trkpt><trkpt lat="44.200885" lon="12.1166851"><ele>25.0</ele><time>2026-04-16T16:20:54.76Z</time></trkpt><trkpt lat="44.2008255" lon="12.1168152"><ele>25.0</ele><time>2026-04-16T16:20:56.754Z</time></trkpt><trkpt lat="44.2007706" lon="12.116943"><ele>25.0</ele><time>2026-04-16T16:20:58.757Z</time></trkpt><trkpt lat="44.2007392" lon="12.1170219"><ele>25.0</ele><time>2026-04-16T16:20:59.758Z</time></trkpt><trkpt lat="44.2007047" lon="12.1170995"><ele>25.0</ele><time>2026-04-16T16:21:00.755Z</time></trkpt><trkpt lat="44.2006406" lon="12.1172474"><ele>25.0</ele><time>2026-04-16T16:21:02.748Z</time></trkpt><trkpt lat="44.2005826" lon="12.1173938"><ele>25.0</ele><time>2026-04-16T16:21:04.766Z</time></trkpt><trkpt lat="44.2005254" lon="12.1175283"><ele>25.0</ele><time>2026-04-16T16:21:06.766Z</time></trkpt><trkpt lat="44.2004669" lon="12.1176626"><ele>25.0</ele><time>2026-04-16T16:21:08.756Z</time></trkpt><trkpt lat="44.2004123" lon="12.1177915"><ele>25.0</ele><time>2026-04-16T16:21:10.758Z</time></trkpt><trkpt lat="44.2003607" lon="12.117927"><ele>25.0</ele><time>2026-04-16T16:21:12.755Z</time></trkpt><trkpt lat="44.2003041" lon="12.118061"><ele>25.0</ele><time>2026-04-16T16:21:14.755Z</time></trkpt><trkpt lat="44.2002605" lon="12.1181919"><ele>25.0</ele><time>2026-04-16T16:21:16.752Z</time></trkpt><trkpt lat="44.2001995" lon="12.1183218"><ele>25.0</ele><time>2026-04-16T16:21:18.756Z</time></trkpt><trkpt lat="44.2001399" lon="12.1184459"><ele>25.2</ele><time>2026-04-16T16:21:20.763Z</time></trkpt><trkpt lat="44.2000779" lon="12.1185777"><ele>25.4</ele><time>2026-04-16T16:21:22.76Z</time></trkpt><trkpt lat="44.2000197" lon="12.1187024"><ele>25.6</ele><time>2026-04-16T16:21:24.756Z</time></trkpt><trkpt lat="44.1999649" lon="12.118824"><ele>25.8</ele><time>2026-04-16T16:21:26.756Z</time></trkpt><trkpt lat="44.1999153" lon="12.1189373"><ele>26.0</ele><time>2026-04-16T16:21:28.754Z</time></trkpt><trkpt lat="44.1998675" lon="12.1190652"><ele>25.8</ele><time>2026-04-16T16:21:30.759Z</time></trkpt><trkpt lat="44.1998193" lon="12.1191954"><ele>25.6</ele><time>2026-04-16T16:21:32.756Z</time></trkpt><trkpt lat="44.1997709" lon="12.1193337"><ele>25.4</ele><time>2026-04-16T16:21:34.757Z</time></trkpt><trkpt lat="44.1997219" lon="12.119456"><ele>25.2</ele><time>2026-04-16T16:21:36.756Z</time></trkpt><trkpt lat="44.1996745" lon="12.1195838"><ele>25.0</ele><time>2026-04-16T16:21:38.76Z</time></trkpt><trkpt lat="44.1996264" lon="12.1197064"><ele>25.0</ele><time>2026-04-16T16:21:40.755Z</time></trkpt><trkpt lat="44.1995832" lon="12.1198275"><ele>25.0</ele><time>2026-04-16T16:21:42.756Z</time></trkpt><trkpt lat="44.1995393" lon="12.1199504"><ele>25.0</ele><time>2026-04-16T16:21:44.758Z</time></trkpt><trkpt lat="44.1995002" lon="12.1200735"><ele>25.0</ele><time>2026-04-16T16:21:46.759Z</time></trkpt><trkpt lat="44.1994547" lon="12.1201967"><ele>25.0</ele><time>2026-04-16T16:21:48.754Z</time></trkpt><trkpt lat="44.1994079" lon="12.1203115"><ele>25.0</ele><time>2026-04-16T16:21:50.758Z</time></trkpt><trkpt lat="44.1993531" lon="12.1204246"><ele>25.0</ele><time>2026-04-16T16:21:52.759Z</time></trkpt><trkpt lat="44.1993066" lon="12.1205363"><ele>25.0</ele><time>2026-04-16T16:21:54.766Z</time></trkpt><trkpt lat="44.1992578" lon="12.1206467"><ele>25.0</ele><time>2026-04-16T16:21:56.757Z</time></trkpt><trkpt lat="44.1992043" lon="12.1207423"><ele>25.0</ele><time>2026-04-16T16:21:58.766Z</time></trkpt><trkpt lat="44.199152" lon="12.1208385"><ele>25.000000000000004</ele><time>2026-04-16T16:22:00.765Z</time></trkpt><trkpt lat="44.1991047" lon="12.1209414"><ele>25.0</ele><time>2026-04-16T16:22:02.763Z</time></trkpt><trkpt lat="44.1990646" lon="12.1210388"><ele>25.0</ele><time>2026-04-16T16:22:04.761Z</time></trkpt><trkpt lat="44.1990366" lon="12.1211329"><ele>25.0</ele><time>2026-04-16T16:22:06.775Z</time></trkpt><trkpt lat="44.1990127" lon="12.1212249"><ele>25.0</ele><time>2026-04-16T16:22:08.771Z</time></trkpt><trkpt lat="44.1990128" lon="12.1213162"><ele>25.000000000000004</ele><time>2026-04-16T16:22:10.76Z</time></trkpt><trkpt lat="44.1990355" lon="12.1214102"><ele>25.0</ele><time>2026-04-16T16:22:12.764Z</time></trkpt><trkpt lat="44.1990682" lon="12.1215124"><ele>25.000000000000004</ele><time>2026-04-16T16:22:15.767Z</time></trkpt><trkpt lat="44.1990895" lon="12.1216083"><ele>25.0</ele><time>2026-04-16T16:22:18.767Z</time></trkpt><trkpt lat="44.1990587" lon="12.1217084"><ele>25.0</ele><time>2026-04-16T16:22:21.759Z</time></trkpt><trkpt lat="44.1991028" lon="12.1218195"><ele>25.0</ele><time>2026-04-16T16:22:24.772Z</time></trkpt><trkpt lat="44.1991418" lon="12.121899"><ele>25.0</ele><time>2026-04-16T16:22:26.765Z</time></trkpt><trkpt lat="44.1991799" lon="12.1219772"><ele>25.000000000000004</ele><time>2026-04-16T16:22:28.763Z</time></trkpt><trkpt lat="44.1992211" lon="12.1220528"><ele>25.0</ele><time>2026-04-16T16:22:30.763Z</time></trkpt><trkpt lat="44.1992744" lon="12.1221013"><ele>25.000000000000004</ele><time>2026-04-16T16:22:32.763Z</time></trkpt><trkpt lat="44.1993579" lon="12.1220956"><ele>25.0</ele><time>2026-04-16T16:22:35.766Z</time></trkpt><trkpt lat="44.1994215" lon="12.1220743"><ele>25.0</ele><time>2026-04-16T16:22:38.768Z</time></trkpt><trkpt lat="44.1993556" lon="12.1220683"><ele>25.0</ele><time>2026-04-16T16:22:43.766Z</time></trkpt><trkpt lat="44.1992848" lon="12.1220708"><ele>25.000000000000004</ele><time>2026-04-16T16:22:46.762Z</time></trkpt><trkpt lat="44.1992025" lon="12.1220114"><ele>25.0</ele><time>2026-04-16T16:22:49.763Z</time></trkpt><trkpt lat="44.1991588" lon="12.1219033"><ele>25.000000000000004</ele><time>2026-04-16T16:22:51.764Z</time></trkpt><trkpt lat="44.1991134" lon="12.1217811"><ele>25.0</ele><time>2026-04-16T16:22:53.763Z</time></trkpt><trkpt lat="44.1990621" lon="12.1216832"><ele>25.0</ele><time>2026-04-16T16:22:55.763Z</time></trkpt><trkpt lat="44.1990121" lon="12.1215931"><ele>25.0</ele><time>2026-04-16T16:22:57.768Z</time></trkpt><trkpt lat="44.1989265" lon="12.1216215"><ele>25.000000000000004</ele><time>2026-04-16T16:23:00.763Z</time></trkpt><trkpt lat="44.1988555" lon="12.1216544"><ele>25.0</ele><time>2026-04-16T16:23:02.763Z</time></trkpt><trkpt lat="44.1987831" lon="12.1217037"><ele>24.833333333333336</ele><time>2026-04-16T16:23:04.761Z</time></trkpt><trkpt lat="44.1987128" lon="12.1217462"><ele>24.666666666666668</ele><time>2026-04-16T16:23:06.753Z</time></trkpt><trkpt lat="44.1986259" lon="12.1217885"><ele>24.5</ele><time>2026-04-16T16:23:08.743Z</time></trkpt><trkpt lat="44.1985353" lon="12.1218448"><ele>24.333333333333336</ele><time>2026-04-16T16:23:10.734Z</time></trkpt><trkpt lat="44.1984553" lon="12.1218648"><ele>24.166666666666668</ele><time>2026-04-16T16:23:12.755Z</time></trkpt><trkpt lat="44.1983722" lon="12.1219289"><ele>24.0</ele><time>2026-04-16T16:23:14.764Z</time></trkpt><trkpt lat="44.198316" lon="12.1220318"><ele>24.0</ele><time>2026-04-16T16:23:16.762Z</time></trkpt><trkpt lat="44.1982678" lon="12.1221397"><ele>24.0</ele><time>2026-04-16T16:23:18.77Z</time></trkpt><trkpt lat="44.1982372" lon="12.1222622"><ele>24.0</ele><time>2026-04-16T16:23:20.762Z</time></trkpt><trkpt lat="44.1982092" lon="12.1223743"><ele>24.0</ele><time>2026-04-16T16:23:22.766Z</time></trkpt><trkpt lat="44.1981927" lon="12.1224801"><ele>24.0</ele><time>2026-04-16T16:23:24.763Z</time></trkpt><trkpt lat="44.1981612" lon="12.1225784"><ele>24.0</ele><time>2026-04-16T16:23:26.759Z</time></trkpt><trkpt lat="44.1980963" lon="12.1226445"><ele>24.0</ele><time>2026-04-16T16:23:28.771Z</time></trkpt><trkpt lat="44.1980095" lon="12.1226654"><ele>24.0</ele><time>2026-04-16T16:23:30.76Z</time></trkpt><trkpt lat="44.1979172" lon="12.1226912"><ele>24.0</ele><time>2026-04-16T16:23:32.762Z</time></trkpt><trkpt lat="44.1978202" lon="12.1227087"><ele>24.0</ele><time>2026-04-16T16:23:34.757Z</time></trkpt><trkpt lat="44.1977264" lon="12.1227148"><ele>24.0</ele><time>2026-04-16T16:23:36.763Z</time></trkpt><trkpt lat="44.1976349" lon="12.122731"><ele>24.0</ele><time>2026-04-16T16:23:38.766Z</time></trkpt><trkpt lat="44.1975461" lon="12.1227658"><ele>24.0</ele><time>2026-04-16T16:23:40.763Z</time></trkpt><trkpt lat="44.1974593" lon="12.122787"><ele>24.0</ele><time>2026-04-16T16:23:42.752Z</time></trkpt><trkpt lat="44.1973668" lon="12.1228038"><ele>24.0</ele><time>2026-04-16T16:23:44.762Z</time></trkpt><trkpt lat="44.1972848" lon="12.1228275"><ele>24.0</ele><time>2026-04-16T16:23:46.768Z</time></trkpt><trkpt lat="44.1971978" lon="12.1228525"><ele>24.0</ele><time>2026-04-16T16:23:48.762Z</time></trkpt><trkpt lat="44.1971124" lon="12.1228703"><ele>24.4</ele><time>2026-04-16T16:23:50.761Z</time></trkpt><trkpt lat="44.1970203" lon="12.1228778"><ele>24.799999999999997</ele><time>2026-04-16T16:23:52.764Z</time></trkpt><trkpt lat="44.1969322" lon="12.1228863"><ele>25.200000000000003</ele><time>2026-04-16T16:23:54.771Z</time></trkpt><trkpt lat="44.1968391" lon="12.1229128"><ele>25.6</ele><time>2026-04-16T16:23:56.754Z</time></trkpt><trkpt lat="44.1967366" lon="12.1229506"><ele>26.0</ele><time>2026-04-16T16:23:58.754Z</time></trkpt><trkpt lat="44.1966183" lon="12.1229807"><ele>26.4</ele><time>2026-04-16T16:24:00.751Z</time></trkpt><trkpt lat="44.1964954" lon="12.1230077"><ele>26.8</ele><time>2026-04-16T16:24:02.751Z</time></trkpt><trkpt lat="44.1964292" lon="12.1230253"><ele>27.199999999999996</ele><time>2026-04-16T16:24:03.748Z</time></trkpt><trkpt lat="44.196365" lon="12.1230443"><ele>27.599999999999998</ele><time>2026-04-16T16:24:04.74Z</time></trkpt><trkpt lat="44.1962998" lon="12.1230646"><ele>28.0</ele><time>2026-04-16T16:24:05.712Z</time></trkpt><trkpt lat="44.1961776" lon="12.1231031"><ele>28.0</ele><time>2026-04-16T16:24:07.688Z</time></trkpt><trkpt lat="44.1961151" lon="12.1231222"><ele>27.999999999999996</ele><time>2026-04-16T16:24:08.679Z</time></trkpt><trkpt lat="44.1959992" lon="12.1231184"><ele>27.999999999999996</ele><time>2026-04-16T16:24:10.747Z</time></trkpt><trkpt lat="44.1959155" lon="12.1231317"><ele>28.0</ele><time>2026-04-16T16:24:11.733Z</time></trkpt><trkpt lat="44.1958097" lon="12.1231699"><ele>28.0</ele><time>2026-04-16T16:24:13.747Z</time></trkpt><trkpt lat="44.1957166" lon="12.123198"><ele>28.000000000000004</ele><time>2026-04-16T16:24:15.744Z</time></trkpt><trkpt lat="44.1956277" lon="12.1232287"><ele>28.0</ele><time>2026-04-16T16:24:17.747Z</time></trkpt><trkpt lat="44.1955412" lon="12.1232519"><ele>28.0</ele><time>2026-04-16T16:24:19.747Z</time></trkpt><trkpt lat="44.1954615" lon="12.1232658"><ele>28.0</ele><time>2026-04-16T16:24:21.754Z</time></trkpt><trkpt lat="44.1953848" lon="12.1232674"><ele>28.000000000000004</ele><time>2026-04-16T16:24:23.755Z</time></trkpt><trkpt lat="44.1953" lon="12.1232786"><ele>28.0</ele><time>2026-04-16T16:24:25.757Z</time></trkpt><trkpt lat="44.1952108" lon="12.1232926"><ele>27.599999999999998</ele><time>2026-04-16T16:24:27.756Z</time></trkpt><trkpt lat="44.1951207" lon="12.1233123"><ele>27.199999999999996</ele><time>2026-04-16T16:24:29.76Z</time></trkpt><trkpt lat="44.1950166" lon="12.1233357"><ele>26.8</ele><time>2026-04-16T16:24:31.748Z</time></trkpt><trkpt lat="44.1949056" lon="12.1233649"><ele>26.4</ele><time>2026-04-16T16:24:33.753Z</time></trkpt><trkpt lat="44.1947946" lon="12.1233924"><ele>26.0</ele><time>2026-04-16T16:24:35.754Z</time></trkpt><trkpt lat="44.1946866" lon="12.1234069"><ele>26.0</ele><time>2026-04-16T16:24:37.758Z</time></trkpt><trkpt lat="44.1945954" lon="12.1234521"><ele>26.0</ele><time>2026-04-16T16:24:39.747Z</time></trkpt><trkpt lat="44.1944898" lon="12.1234848"><ele>26.0</ele><time>2026-04-16T16:24:41.764Z</time></trkpt><trkpt lat="44.1943753" lon="12.1234973"><ele>26.0</ele><time>2026-04-16T16:24:43.763Z</time></trkpt><trkpt lat="44.1942666" lon="12.1235179"><ele>26.0</ele><time>2026-04-16T16:24:45.751Z</time></trkpt><trkpt lat="44.1941659" lon="12.1235496"><ele>26.0</ele><time>2026-04-16T16:24:47.747Z</time></trkpt><trkpt lat="44.1940637" lon="12.1235838"><ele>26.0</ele><time>2026-04-16T16:24:49.749Z</time></trkpt><trkpt lat="44.1939661" lon="12.1236083"><ele>26.0</ele><time>2026-04-16T16:24:51.748Z</time></trkpt><trkpt lat="44.1938658" lon="12.1236359"><ele>26.0</ele><time>2026-04-16T16:24:53.747Z</time></trkpt><trkpt lat="44.1937605" lon="12.1236594"><ele>26.0</ele><time>2026-04-16T16:24:55.747Z</time></trkpt><trkpt lat="44.1936638" lon="12.1236686"><ele>26.0</ele><time>2026-04-16T16:24:57.751Z</time></trkpt><trkpt lat="44.1935605" lon="12.1236915"><ele>26.0</ele><time>2026-04-16T16:24:59.748Z</time></trkpt><trkpt lat="44.193459" lon="12.1237106"><ele>26.0</ele><time>2026-04-16T16:25:01.749Z</time></trkpt><trkpt lat="44.193361" lon="12.1237393"><ele>26.0</ele><time>2026-04-16T16:25:03.75Z</time></trkpt><trkpt lat="44.193264" lon="12.1237653"><ele>26.0</ele><time>2026-04-16T16:25:05.75Z</time></trkpt><trkpt lat="44.1931664" lon="12.1237875"><ele>26.0</ele><time>2026-04-16T16:25:07.752Z</time></trkpt><trkpt lat="44.193068" lon="12.1238081"><ele>26.0</ele><time>2026-04-16T16:25:09.747Z</time></trkpt><trkpt lat="44.1929678" lon="12.1238366"><ele>26.0</ele><time>2026-04-16T16:25:11.749Z</time></trkpt><trkpt lat="44.1928718" lon="12.1238683"><ele>26.0</ele><time>2026-04-16T16:25:13.753Z</time></trkpt><trkpt lat="44.1927731" lon="12.123888"><ele>26.0</ele><time>2026-04-16T16:25:15.752Z</time></trkpt><trkpt lat="44.1926767" lon="12.1239124"><ele>26.0</ele><time>2026-04-16T16:25:17.751Z</time></trkpt><trkpt lat="44.1925812" lon="12.1239435"><ele>26.0</ele><time>2026-04-16T16:25:19.752Z</time></trkpt><trkpt lat="44.1924903" lon="12.1239704"><ele>26.0</ele><time>2026-04-16T16:25:21.75Z</time></trkpt><trkpt lat="44.1923946" lon="12.1239931"><ele>26.0</ele><time>2026-04-16T16:25:23.751Z</time></trkpt><trkpt lat="44.1922969" lon="12.1240235"><ele>26.0</ele><time>2026-04-16T16:25:25.753Z</time></trkpt><trkpt lat="44.1922067" lon="12.1240431"><ele>26.200000000000003</ele><time>2026-04-16T16:25:27.755Z</time></trkpt><trkpt lat="44.192116" lon="12.1240599"><ele>26.400000000000002</ele><time>2026-04-16T16:25:29.76Z</time></trkpt><trkpt lat="44.1920262" lon="12.124085"><ele>26.6</ele><time>2026-04-16T16:25:31.749Z</time></trkpt><trkpt lat="44.1919351" lon="12.1241047"><ele>26.8</ele><time>2026-04-16T16:25:33.751Z</time></trkpt><trkpt lat="44.1918419" lon="12.12412"><ele>27.0</ele><time>2026-04-16T16:25:35.769Z</time></trkpt><trkpt lat="44.191744" lon="12.1241297"><ele>27.0</ele><time>2026-04-16T16:25:37.759Z</time></trkpt><trkpt lat="44.1916534" lon="12.1241125"><ele>27.0</ele><time>2026-04-16T16:25:39.757Z</time></trkpt><trkpt lat="44.1915803" lon="12.1240741"><ele>27.0</ele><time>2026-04-16T16:25:41.758Z</time></trkpt><trkpt lat="44.1914921" lon="12.1240726"><ele>27.0</ele><time>2026-04-16T16:25:44.757Z</time></trkpt><trkpt lat="44.1914177" lon="12.1241386"><ele>27.0</ele><time>2026-04-16T16:25:47.761Z</time></trkpt><trkpt lat="44.191356" lon="12.1241863"><ele>27.0</ele><time>2026-04-16T16:25:49.761Z</time></trkpt><trkpt lat="44.1912723" lon="12.1242098"><ele>27.333333333333332</ele><time>2026-04-16T16:25:51.76Z</time></trkpt><trkpt lat="44.1911867" lon="12.1242114"><ele>27.666666666666664</ele><time>2026-04-16T16:25:53.756Z</time></trkpt><trkpt lat="44.1910997" lon="12.1242056"><ele>28.0</ele><time>2026-04-16T16:25:55.762Z</time></trkpt><trkpt lat="44.1910185" lon="12.1242038"><ele>28.333333333333332</ele><time>2026-04-16T16:25:57.756Z</time></trkpt><trkpt lat="44.190938" lon="12.1242195"><ele>28.666666666666664</ele><time>2026-04-16T16:25:59.757Z</time></trkpt><trkpt lat="44.190856" lon="12.1242381"><ele>29.0</ele><time>2026-04-16T16:26:01.759Z</time></trkpt><trkpt lat="44.1907722" lon="12.1242612"><ele>28.999999999999996</ele><time>2026-04-16T16:26:03.757Z</time></trkpt><trkpt lat="44.1906848" lon="12.1242669"><ele>29.0</ele><time>2026-04-16T16:26:05.756Z</time></trkpt><trkpt lat="44.1905945" lon="12.1242597"><ele>29.0</ele><time>2026-04-16T16:26:07.753Z</time></trkpt><trkpt lat="44.1905118" lon="12.1242351"><ele>29.0</ele><time>2026-04-16T16:26:09.756Z</time></trkpt><trkpt lat="44.1904439" lon="12.1242026"><ele>28.999999999999996</ele><time>2026-04-16T16:26:12.757Z</time></trkpt><trkpt lat="44.1904532" lon="12.1241117"><ele>29.0</ele><time>2026-04-16T16:26:19.757Z</time></trkpt><trkpt lat="44.1903914" lon="12.1241583"><ele>28.833333333333332</ele><time>2026-04-16T16:26:26.754Z</time></trkpt><trkpt lat="44.1903751" lon="12.1242578"><ele>28.666666666666664</ele><time>2026-04-16T16:26:28.764Z</time></trkpt><trkpt lat="44.1903572" lon="12.1243713"><ele>28.5</ele><time>2026-04-16T16:26:30.764Z</time></trkpt><trkpt lat="44.1903504" lon="12.124484"><ele>28.333333333333336</ele><time>2026-04-16T16:26:32.763Z</time></trkpt><trkpt lat="44.1903389" lon="12.1246011"><ele>28.166666666666668</ele><time>2026-04-16T16:26:34.761Z</time></trkpt><trkpt lat="44.1903275" lon="12.124713"><ele>28.0</ele><time>2026-04-16T16:26:36.76Z</time></trkpt><trkpt lat="44.1903137" lon="12.1248236"><ele>28.333333333333336</ele><time>2026-04-16T16:26:38.759Z</time></trkpt><trkpt lat="44.1903146" lon="12.1249539"><ele>28.666666666666668</ele><time>2026-04-16T16:26:40.755Z</time></trkpt><trkpt lat="44.1903042" lon="12.125071"><ele>29.0</ele><time>2026-04-16T16:26:42.758Z</time></trkpt><trkpt lat="44.1902895" lon="12.1251966"><ele>29.333333333333336</ele><time>2026-04-16T16:26:44.779Z</time></trkpt><trkpt lat="44.1902746" lon="12.1253112"><ele>29.666666666666668</ele><time>2026-04-16T16:26:46.763Z</time></trkpt><trkpt lat="44.1902657" lon="12.1254213"><ele>30.0</ele><time>2026-04-16T16:26:48.758Z</time></trkpt><trkpt lat="44.190261" lon="12.1255371"><ele>30.0</ele><time>2026-04-16T16:26:50.756Z</time></trkpt><trkpt lat="44.1902359" lon="12.1256456"><ele>30.0</ele><time>2026-04-16T16:26:52.762Z</time></trkpt><trkpt lat="44.1901896" lon="12.1257405"><ele>30.0</ele><time>2026-04-16T16:26:54.755Z</time></trkpt><trkpt lat="44.1901321" lon="12.1258345"><ele>30.0</ele><time>2026-04-16T16:26:56.762Z</time></trkpt><trkpt lat="44.1900659" lon="12.1259166"><ele>30.0</ele><time>2026-04-16T16:26:58.763Z</time></trkpt><trkpt lat="44.1900182" lon="12.1260029"><ele>30.0</ele><time>2026-04-16T16:27:00.765Z</time></trkpt><trkpt lat="44.1899744" lon="12.1260898"><ele>30.0</ele><time>2026-04-16T16:27:02.763Z</time></trkpt><trkpt lat="44.189918" lon="12.1261793"><ele>30.0</ele><time>2026-04-16T16:27:04.761Z</time></trkpt><trkpt lat="44.1898631" lon="12.126265"><ele>30.0</ele><time>2026-04-16T16:27:06.756Z</time></trkpt><trkpt lat="44.1898187" lon="12.1263547"><ele>30.0</ele><time>2026-04-16T16:27:08.764Z</time></trkpt><trkpt lat="44.1897943" lon="12.1264524"><ele>30.0</ele><time>2026-04-16T16:27:10.763Z</time></trkpt><trkpt lat="44.1897775" lon="12.1265642"><ele>30.0</ele><time>2026-04-16T16:27:12.764Z</time></trkpt><trkpt lat="44.1897606" lon="12.1266738"><ele>30.333333333333332</ele><time>2026-04-16T16:27:14.763Z</time></trkpt><trkpt lat="44.1897227" lon="12.126769"><ele>30.666666666666664</ele><time>2026-04-16T16:27:16.759Z</time></trkpt><trkpt lat="44.18967" lon="12.1268534"><ele>31.0</ele><time>2026-04-16T16:27:18.756Z</time></trkpt><trkpt lat="44.1896" lon="12.1268948"><ele>31.333333333333332</ele><time>2026-04-16T16:27:20.757Z</time></trkpt><trkpt lat="44.1895218" lon="12.1268788"><ele>31.666666666666664</ele><time>2026-04-16T16:27:22.756Z</time></trkpt><trkpt lat="44.18944" lon="12.1268687"><ele>32.0</ele><time>2026-04-16T16:27:24.759Z</time></trkpt><trkpt lat="44.1893649" lon="12.1268504"><ele>31.999999999999996</ele><time>2026-04-16T16:27:26.754Z</time></trkpt><trkpt lat="44.1892889" lon="12.126836"><ele>32.0</ele><time>2026-04-16T16:27:28.761Z</time></trkpt><trkpt lat="44.1892089" lon="12.1268114"><ele>32.0</ele><time>2026-04-16T16:27:30.754Z</time></trkpt><trkpt lat="44.1891265" lon="12.1268063"><ele>32.0</ele><time>2026-04-16T16:27:32.751Z</time></trkpt><trkpt lat="44.1890405" lon="12.1267753"><ele>31.999999999999996</ele><time>2026-04-16T16:27:34.758Z</time></trkpt><trkpt lat="44.1889699" lon="12.1267476"><ele>32.0</ele><time>2026-04-16T16:27:36.771Z</time></trkpt><trkpt lat="44.1888835" lon="12.126729"><ele>32.166666666666664</ele><time>2026-04-16T16:27:38.755Z</time></trkpt><trkpt lat="44.188809" lon="12.1267101"><ele>32.33333333333333</ele><time>2026-04-16T16:27:40.754Z</time></trkpt><trkpt lat="44.1887381" lon="12.1266882"><ele>32.5</ele><time>2026-04-16T16:27:42.757Z</time></trkpt><trkpt lat="44.1886447" lon="12.1266648"><ele>32.666666666666664</ele><time>2026-04-16T16:27:44.748Z</time></trkpt><trkpt lat="44.1885565" lon="12.1266328"><ele>32.833333333333336</ele><time>2026-04-16T16:27:46.761Z</time></trkpt><trkpt lat="44.1884696" lon="12.1265962"><ele>33.0</ele><time>2026-04-16T16:27:48.745Z</time></trkpt><trkpt lat="44.1883753" lon="12.1265592"><ele>33.199999999999996</ele><time>2026-04-16T16:27:50.748Z</time></trkpt><trkpt lat="44.1882758" lon="12.126532"><ele>33.4</ele><time>2026-04-16T16:27:52.743Z</time></trkpt><trkpt lat="44.1881871" lon="12.1265151"><ele>33.599999999999994</ele><time>2026-04-16T16:27:54.746Z</time></trkpt><trkpt lat="44.1880998" lon="12.1265146"><ele>33.8</ele><time>2026-04-16T16:27:56.749Z</time></trkpt><trkpt lat="44.1880054" lon="12.1264979"><ele>34.0</ele><time>2026-04-16T16:27:58.748Z</time></trkpt><trkpt lat="44.1879175" lon="12.1264681"><ele>33.66666666666667</ele><time>2026-04-16T16:28:00.756Z</time></trkpt><trkpt lat="44.1878372" lon="12.1264399"><ele>33.333333333333336</ele><time>2026-04-16T16:28:02.751Z</time></trkpt><trkpt lat="44.1877505" lon="12.1264142"><ele>33.0</ele><time>2026-04-16T16:28:04.754Z</time></trkpt><trkpt lat="44.1876731" lon="12.126396"><ele>32.666666666666664</ele><time>2026-04-16T16:28:06.752Z</time></trkpt><trkpt lat="44.1875871" lon="12.1263816"><ele>32.33333333333333</ele><time>2026-04-16T16:28:09.746Z</time></trkpt><trkpt lat="44.1875012" lon="12.1263772"><ele>32.0</ele><time>2026-04-16T16:28:12.762Z</time></trkpt><trkpt lat="44.1874363" lon="12.1263334"><ele>32.0</ele><time>2026-04-16T16:28:14.756Z</time></trkpt><trkpt lat="44.1873734" lon="12.1262755"><ele>31.999999999999996</ele><time>2026-04-16T16:28:16.765Z</time></trkpt><trkpt lat="44.1873154" lon="12.1262154"><ele>32.0</ele><time>2026-04-16T16:28:18.765Z</time></trkpt><trkpt lat="44.1872664" lon="12.1261507"><ele>32.0</ele><time>2026-04-16T16:28:20.765Z</time></trkpt><trkpt lat="44.1872018" lon="12.1260986"><ele>31.999999999999996</ele><time>2026-04-16T16:28:22.778Z</time></trkpt><trkpt lat="44.1871417" lon="12.1260581"><ele>32.0</ele><time>2026-04-16T16:28:24.759Z</time></trkpt><trkpt lat="44.1870827" lon="12.1260154"><ele>32.0</ele><time>2026-04-16T16:28:26.762Z</time></trkpt><trkpt lat="44.1870177" lon="12.1259759"><ele>31.833333333333332</ele><time>2026-04-16T16:28:28.756Z</time></trkpt><trkpt lat="44.1869549" lon="12.1259517"><ele>31.666666666666664</ele><time>2026-04-16T16:28:30.754Z</time></trkpt><trkpt lat="44.1868881" lon="12.1259363"><ele>31.5</ele><time>2026-04-16T16:28:32.748Z</time></trkpt><trkpt lat="44.1868056" lon="12.1259076"><ele>31.333333333333336</ele><time>2026-04-16T16:28:35.769Z</time></trkpt><trkpt lat="44.1867255" lon="12.1258541"><ele>31.166666666666668</ele><time>2026-04-16T16:28:38.755Z</time></trkpt><trkpt lat="44.1866457" lon="12.1257962"><ele>31.0</ele><time>2026-04-16T16:28:41.758Z</time></trkpt><trkpt lat="44.1866035" lon="12.1257287"><ele>31.0</ele><time>2026-04-16T16:28:43.756Z</time></trkpt><trkpt lat="44.1865914" lon="12.1256019"><ele>31.0</ele><time>2026-04-16T16:28:45.768Z</time></trkpt><trkpt lat="44.1865675" lon="12.1254661"><ele>31.0</ele><time>2026-04-16T16:28:47.758Z</time></trkpt><trkpt lat="44.1865076" lon="12.1253862"><ele>31.0</ele><time>2026-04-16T16:28:49.767Z</time></trkpt><trkpt lat="44.1864125" lon="12.1254092"><ele>31.0</ele><time>2026-04-16T16:28:51.759Z</time></trkpt><trkpt lat="44.1863304" lon="12.1253688"><ele>31.200000000000003</ele><time>2026-04-16T16:28:53.752Z</time></trkpt><trkpt lat="44.1862537" lon="12.1252987"><ele>31.400000000000002</ele><time>2026-04-16T16:28:55.768Z</time></trkpt><trkpt lat="44.1861793" lon="12.1252281"><ele>31.6</ele><time>2026-04-16T16:28:57.753Z</time></trkpt><trkpt lat="44.1861047" lon="12.1251621"><ele>31.8</ele><time>2026-04-16T16:28:59.756Z</time></trkpt><trkpt lat="44.1860273" lon="12.1250964"><ele>32.0</ele><time>2026-04-16T16:29:01.761Z</time></trkpt><trkpt lat="44.1859413" lon="12.1250337"><ele>31.999999999999996</ele><time>2026-04-16T16:29:03.758Z</time></trkpt><trkpt lat="44.1858579" lon="12.1249603"><ele>32.0</ele><time>2026-04-16T16:29:05.768Z</time></trkpt><trkpt lat="44.1857787" lon="12.1248895"><ele>32.0</ele><time>2026-04-16T16:29:07.751Z</time></trkpt><trkpt lat="44.1857067" lon="12.124829"><ele>32.0</ele><time>2026-04-16T16:29:09.753Z</time></trkpt><trkpt lat="44.1856339" lon="12.1247652"><ele>31.999999999999996</ele><time>2026-04-16T16:29:11.756Z</time></trkpt><trkpt lat="44.1855708" lon="12.1247053"><ele>32.0</ele><time>2026-04-16T16:29:13.76Z</time></trkpt><trkpt lat="44.1855041" lon="12.1246515"><ele>32.33333333333333</ele><time>2026-04-16T16:29:15.762Z</time></trkpt><trkpt lat="44.1854383" lon="12.1245874"><ele>32.666666666666664</ele><time>2026-04-16T16:29:17.76Z</time></trkpt><trkpt lat="44.185373" lon="12.1245291"><ele>33.0</ele><time>2026-04-16T16:29:19.781Z</time></trkpt><trkpt lat="44.1853143" lon="12.124476"><ele>33.333333333333336</ele><time>2026-04-16T16:29:21.764Z</time></trkpt><trkpt lat="44.1852463" lon="12.1244144"><ele>33.66666666666667</ele><time>2026-04-16T16:29:23.756Z</time></trkpt><trkpt lat="44.185175" lon="12.1243545"><ele>34.0</ele><time>2026-04-16T16:29:25.773Z</time></trkpt><trkpt lat="44.1851138" lon="12.124292"><ele>33.99999999999999</ele><time>2026-04-16T16:29:27.764Z</time></trkpt><trkpt lat="44.1850592" lon="12.1242301"><ele>34.0</ele><time>2026-04-16T16:29:29.763Z</time></trkpt><trkpt lat="44.18499" lon="12.1241857"><ele>34.0</ele><time>2026-04-16T16:29:31.757Z</time></trkpt><trkpt lat="44.1849212" lon="12.1241428"><ele>34.0</ele><time>2026-04-16T16:29:33.755Z</time></trkpt><trkpt lat="44.184846" lon="12.1240915"><ele>34.0</ele><time>2026-04-16T16:29:35.769Z</time></trkpt><trkpt lat="44.1847884" lon="12.1240526"><ele>33.99999999999999</ele><time>2026-04-16T16:29:37.752Z</time></trkpt><trkpt lat="44.1847331" lon="12.1240071"><ele>34.0</ele><time>2026-04-16T16:29:42.762Z</time></trkpt><trkpt lat="44.1846695" lon="12.1239398"><ele>33.66666666666667</ele><time>2026-04-16T16:29:45.761Z</time></trkpt><trkpt lat="44.18461" lon="12.1238927"><ele>33.333333333333336</ele><time>2026-04-16T16:29:47.753Z</time></trkpt><trkpt lat="44.1845455" lon="12.1238525"><ele>33.0</ele><time>2026-04-16T16:29:49.758Z</time></trkpt><trkpt lat="44.1844767" lon="12.1237856"><ele>32.666666666666664</ele><time>2026-04-16T16:29:51.758Z</time></trkpt><trkpt lat="44.1844111" lon="12.1237173"><ele>32.33333333333333</ele><time>2026-04-16T16:29:53.756Z</time></trkpt><trkpt lat="44.1843378" lon="12.1236507"><ele>32.0</ele><time>2026-04-16T16:29:55.757Z</time></trkpt><trkpt lat="44.1842744" lon="12.1235669"><ele>31.999999999999996</ele><time>2026-04-16T16:29:57.758Z</time></trkpt><trkpt lat="44.1842062" lon="12.1234917"><ele>32.0</ele><time>2026-04-16T16:29:59.756Z</time></trkpt><trkpt lat="44.1841287" lon="12.1234335"><ele>32.0</ele><time>2026-04-16T16:30:01.753Z</time></trkpt><trkpt lat="44.1840561" lon="12.1233634"><ele>32.0</ele><time>2026-04-16T16:30:03.753Z</time></trkpt><trkpt lat="44.1839883" lon="12.1233003"><ele>31.999999999999996</ele><time>2026-04-16T16:30:05.757Z</time></trkpt><trkpt lat="44.1839157" lon="12.1232289"><ele>32.0</ele><time>2026-04-16T16:30:07.761Z</time></trkpt><trkpt lat="44.1838352" lon="12.1231764"><ele>31.999999999999996</ele><time>2026-04-16T16:30:09.755Z</time></trkpt><trkpt lat="44.1837612" lon="12.1231083"><ele>32.0</ele><time>2026-04-16T16:30:11.753Z</time></trkpt><trkpt lat="44.1836907" lon="12.1230424"><ele>32.0</ele><time>2026-04-16T16:30:13.759Z</time></trkpt><trkpt lat="44.1836144" lon="12.122978"><ele>32.0</ele><time>2026-04-16T16:30:15.762Z</time></trkpt><trkpt lat="44.1835343" lon="12.1229175"><ele>31.999999999999996</ele><time>2026-04-16T16:30:17.756Z</time></trkpt><trkpt lat="44.1834552" lon="12.1228514"><ele>32.0</ele><time>2026-04-16T16:30:19.762Z</time></trkpt><trkpt lat="44.1833766" lon="12.1227848"><ele>31.999999999999996</ele><time>2026-04-16T16:30:21.757Z</time></trkpt><trkpt lat="44.1832975" lon="12.1227262"><ele>32.0</ele><time>2026-04-16T16:30:23.752Z</time></trkpt><trkpt lat="44.1832172" lon="12.122662"><ele>32.0</ele><time>2026-04-16T16:30:25.763Z</time></trkpt><trkpt lat="44.1831398" lon="12.1226061"><ele>32.0</ele><time>2026-04-16T16:30:27.76Z</time></trkpt><trkpt lat="44.1830588" lon="12.1225446"><ele>31.999999999999996</ele><time>2026-04-16T16:30:29.755Z</time></trkpt><trkpt lat="44.1829925" lon="12.12249"><ele>32.0</ele><time>2026-04-16T16:30:31.759Z</time></trkpt><trkpt lat="44.182914" lon="12.1224189"><ele>32.166666666666664</ele><time>2026-04-16T16:30:33.755Z</time></trkpt><trkpt lat="44.182829" lon="12.1223589"><ele>32.33333333333333</ele><time>2026-04-16T16:30:35.758Z</time></trkpt><trkpt lat="44.1827507" lon="12.1223044"><ele>32.5</ele><time>2026-04-16T16:30:37.756Z</time></trkpt><trkpt lat="44.1826778" lon="12.1222393"><ele>32.666666666666664</ele><time>2026-04-16T16:30:39.755Z</time></trkpt><trkpt lat="44.1826078" lon="12.1221885"><ele>32.833333333333336</ele><time>2026-04-16T16:30:41.756Z</time></trkpt><trkpt lat="44.182534" lon="12.1221361"><ele>33.0</ele><time>2026-04-16T16:30:43.76Z</time></trkpt><trkpt lat="44.1824657" lon="12.1220862"><ele>33.0</ele><time>2026-04-16T16:30:45.76Z</time></trkpt><trkpt lat="44.1823973" lon="12.1220602"><ele>33.0</ele><time>2026-04-16T16:30:47.765Z</time></trkpt><trkpt lat="44.1823197" lon="12.1220225"><ele>33.0</ele><time>2026-04-16T16:30:49.765Z</time></trkpt><trkpt lat="44.1822512" lon="12.1219891"><ele>33.0</ele><time>2026-04-16T16:30:51.772Z</time></trkpt><trkpt lat="44.1821814" lon="12.1220419"><ele>33.0</ele><time>2026-04-16T16:30:54.752Z</time></trkpt><trkpt lat="44.1821454" lon="12.1221555"><ele>33.0</ele><time>2026-04-16T16:30:57.756Z</time></trkpt><trkpt lat="44.1821166" lon="12.1222837"><ele>32.6</ele><time>2026-04-16T16:30:59.757Z</time></trkpt><trkpt lat="44.1820759" lon="12.1224057"><ele>32.199999999999996</ele><time>2026-04-16T16:31:01.761Z</time></trkpt><trkpt lat="44.1820375" lon="12.1225405"><ele>31.8</ele><time>2026-04-16T16:31:03.756Z</time></trkpt><trkpt lat="44.1819946" lon="12.1226693"><ele>31.4</ele><time>2026-04-16T16:31:05.749Z</time></trkpt><trkpt lat="44.1819517" lon="12.1227841"><ele>31.0</ele><time>2026-04-16T16:31:07.749Z</time></trkpt><trkpt lat="44.1819147" lon="12.1228971"><ele>31.000000000000004</ele><time>2026-04-16T16:31:09.758Z</time></trkpt><trkpt lat="44.1818762" lon="12.1229997"><ele>31.0</ele><time>2026-04-16T16:31:11.76Z</time></trkpt><trkpt lat="44.1818381" lon="12.1231007"><ele>31.0</ele><time>2026-04-16T16:31:13.756Z</time></trkpt><trkpt lat="44.181802" lon="12.1232095"><ele>31.0</ele><time>2026-04-16T16:31:15.754Z</time></trkpt><trkpt lat="44.181763" lon="12.1233218"><ele>31.000000000000004</ele><time>2026-04-16T16:31:17.752Z</time></trkpt><trkpt lat="44.181723" lon="12.1234404"><ele>31.0</ele><time>2026-04-16T16:31:19.755Z</time></trkpt><trkpt lat="44.1816817" lon="12.1235519"><ele>30.833333333333336</ele><time>2026-04-16T16:31:21.756Z</time></trkpt><trkpt lat="44.1816287" lon="12.1236439"><ele>30.666666666666668</ele><time>2026-04-16T16:31:23.752Z</time></trkpt><trkpt lat="44.1815608" lon="12.1237286"><ele>30.5</ele><time>2026-04-16T16:31:25.752Z</time></trkpt><trkpt lat="44.1815067" lon="12.1238242"><ele>30.333333333333336</ele><time>2026-04-16T16:31:27.752Z</time></trkpt><trkpt lat="44.1814562" lon="12.1239098"><ele>30.166666666666668</ele><time>2026-04-16T16:31:29.748Z</time></trkpt><trkpt lat="44.1814142" lon="12.1240109"><ele>30.0</ele><time>2026-04-16T16:31:31.754Z</time></trkpt><trkpt lat="44.181388" lon="12.124122"><ele>30.0</ele><time>2026-04-16T16:31:33.752Z</time></trkpt><trkpt lat="44.1813899" lon="12.1242446"><ele>30.0</ele><time>2026-04-16T16:31:35.753Z</time></trkpt><trkpt lat="44.1814057" lon="12.1243533"><ele>30.0</ele><time>2026-04-16T16:31:37.757Z</time></trkpt><trkpt lat="44.1814161" lon="12.1244769"><ele>30.0</ele><time>2026-04-16T16:31:39.754Z</time></trkpt><trkpt lat="44.1813961" lon="12.1245927"><ele>30.0</ele><time>2026-04-16T16:31:41.758Z</time></trkpt><trkpt lat="44.1813595" lon="12.1247001"><ele>30.0</ele><time>2026-04-16T16:31:43.756Z</time></trkpt><trkpt lat="44.1813266" lon="12.1248077"><ele>30.0</ele><time>2026-04-16T16:31:45.756Z</time></trkpt><trkpt lat="44.1812883" lon="12.1249049"><ele>30.0</ele><time>2026-04-16T16:31:47.757Z</time></trkpt><trkpt lat="44.1812543" lon="12.1250099"><ele>30.0</ele><time>2026-04-16T16:31:49.758Z</time></trkpt><trkpt lat="44.1812252" lon="12.1251224"><ele>30.0</ele><time>2026-04-16T16:31:51.756Z</time></trkpt><trkpt lat="44.1811893" lon="12.1252409"><ele>30.0</ele><time>2026-04-16T16:31:53.772Z</time></trkpt><trkpt lat="44.1811538" lon="12.1253505"><ele>30.0</ele><time>2026-04-16T16:31:55.755Z</time></trkpt><trkpt lat="44.1811182" lon="12.1254612"><ele>30.0</ele><time>2026-04-16T16:31:57.756Z</time></trkpt><trkpt lat="44.1810771" lon="12.125569"><ele>30.0</ele><time>2026-04-16T16:31:59.758Z</time></trkpt><trkpt lat="44.1810394" lon="12.1256743"><ele>30.0</ele><time>2026-04-16T16:32:01.755Z</time></trkpt><trkpt lat="44.1810086" lon="12.1257808"><ele>30.0</ele><time>2026-04-16T16:32:03.753Z</time></trkpt><trkpt lat="44.1809744" lon="12.1258819"><ele>30.0</ele><time>2026-04-16T16:32:05.753Z</time></trkpt><trkpt lat="44.1809505" lon="12.1259824"><ele>30.0</ele><time>2026-04-16T16:32:07.755Z</time></trkpt><trkpt lat="44.1809238" lon="12.1260849"><ele>29.857142857142858</ele><time>2026-04-16T16:32:09.753Z</time></trkpt><trkpt lat="44.1808966" lon="12.1261642"><ele>29.714285714285715</ele><time>2026-04-16T16:32:11.759Z</time></trkpt><trkpt lat="44.1808715" lon="12.1262577"><ele>29.571428571428573</ele><time>2026-04-16T16:32:13.757Z</time></trkpt><trkpt lat="44.1808261" lon="12.1263684"><ele>29.42857142857143</ele><time>2026-04-16T16:32:16.759Z</time></trkpt><trkpt lat="44.1807599" lon="12.1263384"><ele>29.285714285714285</ele><time>2026-04-16T16:32:18.754Z</time></trkpt><trkpt lat="44.1806947" lon="12.1263044"><ele>29.142857142857146</ele><time>2026-04-16T16:32:20.754Z</time></trkpt><trkpt lat="44.1806196" lon="12.1262551"><ele>29.000000000000004</ele><time>2026-04-16T16:32:22.759Z</time></trkpt><trkpt lat="44.1805431" lon="12.1262103"><ele>28.999999999999996</ele><time>2026-04-16T16:32:24.779Z</time></trkpt><trkpt lat="44.1804635" lon="12.1261702"><ele>29.0</ele><time>2026-04-16T16:32:26.757Z</time></trkpt><trkpt lat="44.1803843" lon="12.1261296"><ele>29.0</ele><time>2026-04-16T16:32:28.757Z</time></trkpt><trkpt lat="44.1803034" lon="12.1260866"><ele>29.0</ele><time>2026-04-16T16:32:30.758Z</time></trkpt><trkpt lat="44.180223" lon="12.1260384"><ele>28.999999999999996</ele><time>2026-04-16T16:32:32.75Z</time></trkpt><trkpt lat="44.1801396" lon="12.1260006"><ele>29.0</ele><time>2026-04-16T16:32:34.759Z</time></trkpt><trkpt lat="44.1800586" lon="12.1259653"><ele>28.999999999999996</ele><time>2026-04-16T16:32:36.759Z</time></trkpt><trkpt lat="44.1799755" lon="12.1259286"><ele>29.0</ele><time>2026-04-16T16:32:38.758Z</time></trkpt><trkpt lat="44.1798907" lon="12.125886"><ele>29.0</ele><time>2026-04-16T16:32:40.757Z</time></trkpt><trkpt lat="44.179817" lon="12.1258428"><ele>29.0</ele><time>2026-04-16T16:32:42.758Z</time></trkpt><trkpt lat="44.1797389" lon="12.1258007"><ele>28.999999999999996</ele><time>2026-04-16T16:32:44.759Z</time></trkpt><trkpt lat="44.1796608" lon="12.1257577"><ele>29.0</ele><time>2026-04-16T16:32:46.758Z</time></trkpt><trkpt lat="44.1795776" lon="12.1257166"><ele>29.4</ele><time>2026-04-16T16:32:48.757Z</time></trkpt><trkpt lat="44.1794974" lon="12.1256791"><ele>29.799999999999997</ele><time>2026-04-16T16:32:50.758Z</time></trkpt><trkpt lat="44.1794125" lon="12.1256413"><ele>30.200000000000003</ele><time>2026-04-16T16:32:52.762Z</time></trkpt><trkpt lat="44.179326" lon="12.125601"><ele>30.6</ele><time>2026-04-16T16:32:54.769Z</time></trkpt><trkpt lat="44.1792424" lon="12.125548"><ele>31.0</ele><time>2026-04-16T16:32:56.75Z</time></trkpt><trkpt lat="44.1791543" lon="12.125497"><ele>31.0</ele><time>2026-04-16T16:32:58.756Z</time></trkpt><trkpt lat="44.1790563" lon="12.1254456"><ele>31.0</ele><time>2026-04-16T16:33:00.755Z</time></trkpt><trkpt lat="44.1789563" lon="12.12539"><ele>31.0</ele><time>2026-04-16T16:33:02.749Z</time></trkpt><trkpt lat="44.178858" lon="12.1253397"><ele>31.0</ele><time>2026-04-16T16:33:04.742Z</time></trkpt><trkpt lat="44.1787634" lon="12.1252946"><ele>31.0</ele><time>2026-04-16T16:33:06.746Z</time></trkpt><trkpt lat="44.1786759" lon="12.1252461"><ele>31.0</ele><time>2026-04-16T16:33:08.748Z</time></trkpt><trkpt lat="44.1785881" lon="12.1251958"><ele>31.0</ele><time>2026-04-16T16:33:10.752Z</time></trkpt><trkpt lat="44.1785001" lon="12.1251552"><ele>31.0</ele><time>2026-04-16T16:33:12.749Z</time></trkpt><trkpt lat="44.1784108" lon="12.1251212"><ele>31.0</ele><time>2026-04-16T16:33:14.752Z</time></trkpt><trkpt lat="44.1783137" lon="12.1250858"><ele>31.0</ele><time>2026-04-16T16:33:16.75Z</time></trkpt><trkpt lat="44.1782207" lon="12.1250408"><ele>31.0</ele><time>2026-04-16T16:33:18.752Z</time></trkpt><trkpt lat="44.1781286" lon="12.1249906"><ele>31.0</ele><time>2026-04-16T16:33:20.749Z</time></trkpt><trkpt lat="44.1780383" lon="12.1249459"><ele>31.0</ele><time>2026-04-16T16:33:22.758Z</time></trkpt><trkpt lat="44.177946" lon="12.1249006"><ele>31.0</ele><time>2026-04-16T16:33:24.756Z</time></trkpt><trkpt lat="44.1778604" lon="12.124855"><ele>31.0</ele><time>2026-04-16T16:33:26.768Z</time></trkpt><trkpt lat="44.1777708" lon="12.1248068"><ele>31.0</ele><time>2026-04-16T16:33:28.755Z</time></trkpt><trkpt lat="44.177681" lon="12.1247541"><ele>31.0</ele><time>2026-04-16T16:33:30.752Z</time></trkpt><trkpt lat="44.1775906" lon="12.1246998"><ele>31.0</ele><time>2026-04-16T16:33:32.752Z</time></trkpt><trkpt lat="44.1775049" lon="12.1246405"><ele>31.0</ele><time>2026-04-16T16:33:34.745Z</time></trkpt><trkpt lat="44.1774203" lon="12.1245852"><ele>31.0</ele><time>2026-04-16T16:33:36.75Z</time></trkpt><trkpt lat="44.1773368" lon="12.1245189"><ele>31.0</ele><time>2026-04-16T16:33:38.749Z</time></trkpt><trkpt lat="44.1772505" lon="12.1244534"><ele>31.0</ele><time>2026-04-16T16:33:40.751Z</time></trkpt><trkpt lat="44.1771612" lon="12.1243856"><ele>31.0</ele><time>2026-04-16T16:33:42.751Z</time></trkpt><trkpt lat="44.1770777" lon="12.1243241"><ele>31.0</ele><time>2026-04-16T16:33:44.751Z</time></trkpt><trkpt lat="44.1769896" lon="12.1242713"><ele>31.0</ele><time>2026-04-16T16:33:46.749Z</time></trkpt><trkpt lat="44.1769017" lon="12.1242106"><ele>31.0</ele><time>2026-04-16T16:33:48.756Z</time></trkpt><trkpt lat="44.1768128" lon="12.1241544"><ele>31.0</ele><time>2026-04-16T16:33:50.763Z</time></trkpt><trkpt lat="44.1767283" lon="12.1240947"><ele>31.0</ele><time>2026-04-16T16:33:52.755Z</time></trkpt><trkpt lat="44.1766455" lon="12.124034"><ele>31.0</ele><time>2026-04-16T16:33:54.753Z</time></trkpt><trkpt lat="44.1765622" lon="12.1239759"><ele>31.0</ele><time>2026-04-16T16:33:56.756Z</time></trkpt><trkpt lat="44.1764816" lon="12.1239145"><ele>31.333333333333336</ele><time>2026-04-16T16:33:58.753Z</time></trkpt><trkpt lat="44.1764" lon="12.1238585"><ele>31.666666666666668</ele><time>2026-04-16T16:34:00.756Z</time></trkpt><trkpt lat="44.1763139" lon="12.1238076"><ele>32.0</ele><time>2026-04-16T16:34:02.748Z</time></trkpt><trkpt lat="44.1762255" lon="12.1238148"><ele>32.333333333333336</ele><time>2026-04-16T16:34:04.755Z</time></trkpt><trkpt lat="44.1761383" lon="12.1238241"><ele>32.666666666666664</ele><time>2026-04-16T16:34:06.756Z</time></trkpt><trkpt lat="44.1760602" lon="12.1237734"><ele>33.0</ele><time>2026-04-16T16:34:08.761Z</time></trkpt><trkpt lat="44.1759784" lon="12.1237096"><ele>33.0</ele><time>2026-04-16T16:34:10.757Z</time></trkpt><trkpt lat="44.1758992" lon="12.1236475"><ele>33.0</ele><time>2026-04-16T16:34:12.751Z</time></trkpt><trkpt lat="44.1758136" lon="12.1235872"><ele>33.0</ele><time>2026-04-16T16:34:14.752Z</time></trkpt><trkpt lat="44.1757297" lon="12.1235283"><ele>33.0</ele><time>2026-04-16T16:34:16.751Z</time></trkpt><trkpt lat="44.1756446" lon="12.1234681"><ele>33.0</ele><time>2026-04-16T16:34:18.754Z</time></trkpt><trkpt lat="44.1755554" lon="12.1234315"><ele>33.0</ele><time>2026-04-16T16:34:20.757Z</time></trkpt><trkpt lat="44.1754873" lon="12.1235275"><ele>33.0</ele><time>2026-04-16T16:34:22.764Z</time></trkpt><trkpt lat="44.17546" lon="12.1236538"><ele>33.0</ele><time>2026-04-16T16:34:24.767Z</time></trkpt><trkpt lat="44.1754258" lon="12.1237742"><ele>33.0</ele><time>2026-04-16T16:34:26.77Z</time></trkpt><trkpt lat="44.1753768" lon="12.1238853"><ele>33.0</ele><time>2026-04-16T16:34:28.808Z</time></trkpt><trkpt lat="44.1753316" lon="12.1240027"><ele>32.8</ele><time>2026-04-16T16:34:30.774Z</time></trkpt><trkpt lat="44.1752826" lon="12.1241184"><ele>32.599999999999994</ele><time>2026-04-16T16:34:32.76Z</time></trkpt><trkpt lat="44.1752313" lon="12.1242369"><ele>32.400000000000006</ele><time>2026-04-16T16:34:34.761Z</time></trkpt><trkpt lat="44.1751832" lon="12.1243415"><ele>32.2</ele><time>2026-04-16T16:34:36.761Z</time></trkpt><trkpt lat="44.1751358" lon="12.1244414"><ele>32.0</ele><time>2026-04-16T16:34:38.773Z</time></trkpt><trkpt lat="44.1750894" lon="12.1245471"><ele>31.999999999999996</ele><time>2026-04-16T16:34:40.768Z</time></trkpt><trkpt lat="44.1750431" lon="12.1246486"><ele>32.0</ele><time>2026-04-16T16:34:42.767Z</time></trkpt><trkpt lat="44.1749994" lon="12.1247447"><ele>32.0</ele><time>2026-04-16T16:34:44.768Z</time></trkpt><trkpt lat="44.1749553" lon="12.1248417"><ele>32.0</ele><time>2026-04-16T16:34:46.765Z</time></trkpt><trkpt lat="44.1749099" lon="12.1249398"><ele>31.999999999999996</ele><time>2026-04-16T16:34:48.767Z</time></trkpt><trkpt lat="44.174866" lon="12.1250389"><ele>32.0</ele><time>2026-04-16T16:34:50.763Z</time></trkpt><trkpt lat="44.1748269" lon="12.1251426"><ele>31.999999999999996</ele><time>2026-04-16T16:34:52.768Z</time></trkpt><trkpt lat="44.1747839" lon="12.1252399"><ele>32.0</ele><time>2026-04-16T16:34:54.77Z</time></trkpt><trkpt lat="44.1747301" lon="12.12531"><ele>32.0</ele><time>2026-04-16T16:34:56.764Z</time></trkpt><trkpt lat="44.1746649" lon="12.1253"><ele>32.0</ele><time>2026-04-16T16:34:58.762Z</time></trkpt><trkpt lat="44.1745987" lon="12.1252483"><ele>31.999999999999996</ele><time>2026-04-16T16:35:00.766Z</time></trkpt><trkpt lat="44.1745237" lon="12.1251974"><ele>32.0</ele><time>2026-04-16T16:35:02.764Z</time></trkpt><trkpt lat="44.1744512" lon="12.1251593"><ele>32.0</ele><time>2026-04-16T16:35:04.766Z</time></trkpt><trkpt lat="44.1743751" lon="12.125123"><ele>31.999999999999996</ele><time>2026-04-16T16:35:06.763Z</time></trkpt><trkpt lat="44.1743001" lon="12.1250882"><ele>32.0</ele><time>2026-04-16T16:35:08.757Z</time></trkpt><trkpt lat="44.1742232" lon="12.1250959"><ele>32.0</ele><time>2026-04-16T16:35:10.763Z</time></trkpt><trkpt lat="44.1741579" lon="12.1251241"><ele>31.999999999999996</ele><time>2026-04-16T16:35:12.775Z</time></trkpt><trkpt lat="44.1740808" lon="12.1251211"><ele>32.0</ele><time>2026-04-16T16:35:15.76Z</time></trkpt><trkpt lat="44.1740229" lon="12.1251662"><ele>32.0</ele><time>2026-04-16T16:35:18.763Z</time></trkpt><trkpt lat="44.1739785" lon="12.1252836"><ele>31.999999999999996</ele><time>2026-04-16T16:35:21.768Z</time></trkpt><trkpt lat="44.1739533" lon="12.125383"><ele>32.0</ele><time>2026-04-16T16:35:23.761Z</time></trkpt><trkpt lat="44.1739191" lon="12.1254696"><ele>32.0</ele><time>2026-04-16T16:35:25.762Z</time></trkpt><trkpt lat="44.1738836" lon="12.1255722"><ele>32.0</ele><time>2026-04-16T16:35:27.769Z</time></trkpt><trkpt lat="44.1738482" lon="12.1256716"><ele>31.999999999999996</ele><time>2026-04-16T16:35:29.764Z</time></trkpt><trkpt lat="44.1738152" lon="12.1257708"><ele>32.0</ele><time>2026-04-16T16:35:31.763Z</time></trkpt><trkpt lat="44.1737757" lon="12.1258709"><ele>31.999999999999996</ele><time>2026-04-16T16:35:33.762Z</time></trkpt><trkpt lat="44.1737345" lon="12.1259679"><ele>32.0</ele><time>2026-04-16T16:35:35.763Z</time></trkpt><trkpt lat="44.1736972" lon="12.1260605"><ele>32.0</ele><time>2026-04-16T16:35:37.765Z</time></trkpt><trkpt lat="44.173653" lon="12.1261704"><ele>32.0</ele><time>2026-04-16T16:35:40.761Z</time></trkpt><trkpt lat="44.1736195" lon="12.1262763"><ele>31.999999999999996</ele><time>2026-04-16T16:35:43.765Z</time></trkpt><trkpt lat="44.1735979" lon="12.1263611"><ele>32.0</ele><time>2026-04-16T16:35:46.763Z</time></trkpt><trkpt lat="44.1735717" lon="12.1264549"><ele>31.999999999999996</ele><time>2026-04-16T16:35:49.766Z</time></trkpt><trkpt lat="44.173524" lon="12.1265578"><ele>32.0</ele><time>2026-04-16T16:35:52.775Z</time></trkpt><trkpt lat="44.1734886" lon="12.1266399"><ele>32.0</ele><time>2026-04-16T16:35:54.76Z</time></trkpt><trkpt lat="44.1734526" lon="12.1267303"><ele>32.0</ele><time>2026-04-16T16:35:56.76Z</time></trkpt><trkpt lat="44.1734092" lon="12.1268299"><ele>31.999999999999996</ele><time>2026-04-16T16:35:58.768Z</time></trkpt><trkpt lat="44.1733723" lon="12.1269366"><ele>32.0</ele><time>2026-04-16T16:36:00.765Z</time></trkpt><trkpt lat="44.173326" lon="12.1270317"><ele>31.999999999999996</ele><time>2026-04-16T16:36:02.767Z</time></trkpt><trkpt lat="44.1732912" lon="12.1271305"><ele>32.0</ele><time>2026-04-16T16:36:04.762Z</time></trkpt><trkpt lat="44.1732596" lon="12.1272399"><ele>32.0</ele><time>2026-04-16T16:36:06.766Z</time></trkpt><trkpt lat="44.1732223" lon="12.1273426"><ele>32.0</ele><time>2026-04-16T16:36:08.768Z</time></trkpt><trkpt lat="44.1731855" lon="12.1274344"><ele>31.999999999999996</ele><time>2026-04-16T16:36:10.764Z</time></trkpt><trkpt lat="44.173147" lon="12.1275285"><ele>32.0</ele><time>2026-04-16T16:36:12.763Z</time></trkpt><trkpt lat="44.1731099" lon="12.1276333"><ele>31.999999999999996</ele><time>2026-04-16T16:36:14.76Z</time></trkpt><trkpt lat="44.1730696" lon="12.1277283"><ele>32.0</ele><time>2026-04-16T16:36:16.76Z</time></trkpt><trkpt lat="44.1730313" lon="12.1278254"><ele>32.0</ele><time>2026-04-16T16:36:18.769Z</time></trkpt><trkpt lat="44.1729907" lon="12.1279239"><ele>32.0</ele><time>2026-04-16T16:36:20.762Z</time></trkpt><trkpt lat="44.1729527" lon="12.128019"><ele>31.999999999999996</ele><time>2026-04-16T16:36:22.768Z</time></trkpt><trkpt lat="44.1729192" lon="12.1281117"><ele>32.0</ele><time>2026-04-16T16:36:24.77Z</time></trkpt><trkpt lat="44.1728874" lon="12.1282105"><ele>32.0</ele><time>2026-04-16T16:36:26.766Z</time></trkpt><trkpt lat="44.172858" lon="12.1283067"><ele>31.999999999999996</ele><time>2026-04-16T16:36:28.769Z</time></trkpt><trkpt lat="44.1728206" lon="12.1283957"><ele>32.0</ele><time>2026-04-16T16:36:30.765Z</time></trkpt><trkpt lat="44.1727881" lon="12.1284876"><ele>32.0</ele><time>2026-04-16T16:36:32.775Z</time></trkpt><trkpt lat="44.1727522" lon="12.1285796"><ele>31.999999999999996</ele><time>2026-04-16T16:36:34.76Z</time></trkpt><trkpt lat="44.1727154" lon="12.1286618"><ele>32.0</ele><time>2026-04-16T16:36:36.763Z</time></trkpt><trkpt lat="44.1726866" lon="12.128742"><ele>32.0</ele><time>2026-04-16T16:36:38.761Z</time></trkpt><trkpt lat="44.172637" lon="12.1288349"><ele>32.0</ele><time>2026-04-16T16:36:41.763Z</time></trkpt><trkpt lat="44.1725715" lon="12.1288556"><ele>31.999999999999996</ele><time>2026-04-16T16:36:51.768Z</time></trkpt><trkpt lat="44.1725321" lon="12.1289493"><ele>32.0</ele><time>2026-04-16T16:36:57.766Z</time></trkpt><trkpt lat="44.1724618" lon="12.1289471"><ele>32.0</ele><time>2026-04-16T16:37:00.766Z</time></trkpt><trkpt lat="44.1723897" lon="12.1289075"><ele>31.999999999999996</ele><time>2026-04-16T16:37:03.779Z</time></trkpt><trkpt lat="44.1723298" lon="12.128952"><ele>32.0</ele><time>2026-04-16T16:37:06.762Z</time></trkpt><trkpt lat="44.1722576" lon="12.1289867"><ele>32.0</ele><time>2026-04-16T16:37:23.763Z</time></trkpt><trkpt lat="44.1721911" lon="12.1290278"><ele>33.0</ele><time>2026-04-16T16:37:26.762Z</time></trkpt><trkpt lat="44.1721248" lon="12.1291203"><ele>34.0</ele><time>2026-04-16T16:37:29.765Z</time></trkpt><trkpt lat="44.1720583" lon="12.1292025"><ele>35.0</ele><time>2026-04-16T16:37:31.772Z</time></trkpt><trkpt lat="44.1719622" lon="12.1292811"><ele>36.0</ele><time>2026-04-16T16:37:33.772Z</time></trkpt><trkpt lat="44.171907" lon="12.1293281"><ele>37.0</ele><time>2026-04-16T16:37:34.767Z</time></trkpt><trkpt lat="44.1718406" lon="12.129384"><ele>38.0</ele><time>2026-04-16T16:37:35.758Z</time></trkpt><trkpt lat="44.1717785" lon="12.1294371"><ele>38.0</ele><time>2026-04-16T16:37:36.755Z</time></trkpt><trkpt lat="44.1717154" lon="12.129485"><ele>38.0</ele><time>2026-04-16T16:37:37.756Z</time></trkpt><trkpt lat="44.1716528" lon="12.129532"><ele>38.0</ele><time>2026-04-16T16:37:38.759Z</time></trkpt><trkpt lat="44.1715915" lon="12.1295745"><ele>38.0</ele><time>2026-04-16T16:37:39.76Z</time></trkpt><trkpt lat="44.1715339" lon="12.1296174"><ele>38.0</ele><time>2026-04-16T16:37:40.758Z</time></trkpt><trkpt lat="44.1714776" lon="12.1296568"><ele>38.0</ele><time>2026-04-16T16:37:41.758Z</time></trkpt><trkpt lat="44.1713757" lon="12.1297252"><ele>37.199999999999996</ele><time>2026-04-16T16:37:43.758Z</time></trkpt><trkpt lat="44.1712744" lon="12.1297766"><ele>36.4</ele><time>2026-04-16T16:37:45.756Z</time></trkpt><trkpt lat="44.1711804" lon="12.1298376"><ele>35.599999999999994</ele><time>2026-04-16T16:37:47.758Z</time></trkpt><trkpt lat="44.1710889" lon="12.1298894"><ele>34.8</ele><time>2026-04-16T16:37:49.755Z</time></trkpt><trkpt lat="44.1709942" lon="12.1299287"><ele>34.0</ele><time>2026-04-16T16:37:51.756Z</time></trkpt><trkpt lat="44.1709056" lon="12.1299475"><ele>34.0</ele><time>2026-04-16T16:37:53.753Z</time></trkpt><trkpt lat="44.1708165" lon="12.129962"><ele>34.0</ele><time>2026-04-16T16:37:55.755Z</time></trkpt><trkpt lat="44.1707265" lon="12.1299735"><ele>34.0</ele><time>2026-04-16T16:37:57.756Z</time></trkpt><trkpt lat="44.170633" lon="12.1299823"><ele>34.0</ele><time>2026-04-16T16:37:59.756Z</time></trkpt><trkpt lat="44.1705415" lon="12.1299909"><ele>34.0</ele><time>2026-04-16T16:38:01.756Z</time></trkpt><trkpt lat="44.1704498" lon="12.1299925"><ele>33.8</ele><time>2026-04-16T16:38:03.759Z</time></trkpt><trkpt lat="44.1703502" lon="12.1299935"><ele>33.599999999999994</ele><time>2026-04-16T16:38:05.774Z</time></trkpt><trkpt lat="44.1702472" lon="12.1299948"><ele>33.4</ele><time>2026-04-16T16:38:07.758Z</time></trkpt><trkpt lat="44.1701392" lon="12.1299876"><ele>33.199999999999996</ele><time>2026-04-16T16:38:09.759Z</time></trkpt><trkpt lat="44.1700271" lon="12.1299926"><ele>33.0</ele><time>2026-04-16T16:38:11.759Z</time></trkpt><trkpt lat="44.1699184" lon="12.1300006"><ele>33.0</ele><time>2026-04-16T16:38:13.759Z</time></trkpt><trkpt lat="44.1698054" lon="12.1300126"><ele>33.0</ele><time>2026-04-16T16:38:15.766Z</time></trkpt><trkpt lat="44.1696972" lon="12.1300316"><ele>33.0</ele><time>2026-04-16T16:38:17.759Z</time></trkpt><trkpt lat="44.1695987" lon="12.1300473"><ele>33.0</ele><time>2026-04-16T16:38:19.756Z</time></trkpt><trkpt lat="44.1695014" lon="12.1300645"><ele>33.0</ele><time>2026-04-16T16:38:21.754Z</time></trkpt><trkpt lat="44.1694016" lon="12.1300945"><ele>33.0</ele><time>2026-04-16T16:38:23.762Z</time></trkpt><trkpt lat="44.169306" lon="12.13011"><ele>33.0</ele><time>2026-04-16T16:38:25.761Z</time></trkpt><trkpt lat="44.169208" lon="12.1301089"><ele>33.0</ele><time>2026-04-16T16:38:27.764Z</time></trkpt><trkpt lat="44.1691121" lon="12.1301041"><ele>33.0</ele><time>2026-04-16T16:38:29.761Z</time></trkpt><trkpt lat="44.1690161" lon="12.1300969"><ele>33.0</ele><time>2026-04-16T16:38:31.761Z</time></trkpt><trkpt lat="44.168923" lon="12.1300831"><ele>32.833333333333336</ele><time>2026-04-16T16:38:33.76Z</time></trkpt><trkpt lat="44.1688359" lon="12.1300727"><ele>32.666666666666664</ele><time>2026-04-16T16:38:35.761Z</time></trkpt><trkpt lat="44.1687497" lon="12.1300658"><ele>32.5</ele><time>2026-04-16T16:38:37.769Z</time></trkpt><trkpt lat="44.1686688" lon="12.1300669"><ele>32.33333333333333</ele><time>2026-04-16T16:38:39.765Z</time></trkpt><trkpt lat="44.1685801" lon="12.1300831"><ele>32.166666666666664</ele><time>2026-04-16T16:38:41.763Z</time></trkpt><trkpt lat="44.1684845" lon="12.1301033"><ele>32.0</ele><time>2026-04-16T16:38:43.764Z</time></trkpt><trkpt lat="44.1683796" lon="12.1301298"><ele>32.0</ele><time>2026-04-16T16:38:45.755Z</time></trkpt><trkpt lat="44.1682782" lon="12.1301433"><ele>32.0</ele><time>2026-04-16T16:38:47.756Z</time></trkpt><trkpt lat="44.1681737" lon="12.1301713"><ele>32.0</ele><time>2026-04-16T16:38:49.756Z</time></trkpt><trkpt lat="44.1680721" lon="12.1301897"><ele>32.0</ele><time>2026-04-16T16:38:51.761Z</time></trkpt><trkpt lat="44.1679728" lon="12.1301933"><ele>32.0</ele><time>2026-04-16T16:38:53.755Z</time></trkpt><trkpt lat="44.1678758" lon="12.1302075"><ele>32.2</ele><time>2026-04-16T16:38:55.758Z</time></trkpt><trkpt lat="44.1677733" lon="12.1302173"><ele>32.400000000000006</ele><time>2026-04-16T16:38:57.759Z</time></trkpt><trkpt lat="44.1676736" lon="12.1302302"><ele>32.599999999999994</ele><time>2026-04-16T16:38:59.757Z</time></trkpt><trkpt lat="44.167576" lon="12.1302451"><ele>32.8</ele><time>2026-04-16T16:39:01.759Z</time></trkpt><trkpt lat="44.1674829" lon="12.1302514"><ele>33.0</ele><time>2026-04-16T16:39:03.757Z</time></trkpt><trkpt lat="44.1673948" lon="12.1302642"><ele>33.199999999999996</ele><time>2026-04-16T16:39:05.764Z</time></trkpt><trkpt lat="44.1673084" lon="12.1302681"><ele>33.4</ele><time>2026-04-16T16:39:07.793Z</time></trkpt><trkpt lat="44.1672153" lon="12.1302805"><ele>33.599999999999994</ele><time>2026-04-16T16:39:09.766Z</time></trkpt><trkpt lat="44.1671225" lon="12.1302884"><ele>33.8</ele><time>2026-04-16T16:39:11.765Z</time></trkpt><trkpt lat="44.1670329" lon="12.1302922"><ele>34.0</ele><time>2026-04-16T16:39:13.765Z</time></trkpt><trkpt lat="44.1669439" lon="12.1303277"><ele>34.0</ele><time>2026-04-16T16:39:15.766Z</time></trkpt><trkpt lat="44.1669039" lon="12.1304437"><ele>34.0</ele><time>2026-04-16T16:39:17.774Z</time></trkpt><trkpt lat="44.1669301" lon="12.1306162"><ele>34.0</ele><time>2026-04-16T16:39:19.764Z</time></trkpt><trkpt lat="44.1669431" lon="12.1307079"><ele>34.0</ele><time>2026-04-16T16:39:20.764Z</time></trkpt><trkpt lat="44.1669609" lon="12.1307962"><ele>34.0</ele><time>2026-04-16T16:39:21.769Z</time></trkpt><trkpt lat="44.1669795" lon="12.1308837"><ele>34.0</ele><time>2026-04-16T16:39:22.767Z</time></trkpt><trkpt lat="44.1669974" lon="12.130968"><ele>33.5</ele><time>2026-04-16T16:39:23.762Z</time></trkpt><trkpt lat="44.1670129" lon="12.1310554"><ele>33.0</ele><time>2026-04-16T16:39:24.771Z</time></trkpt><trkpt lat="44.1670291" lon="12.1311426"><ele>32.5</ele><time>2026-04-16T16:39:25.768Z</time></trkpt><trkpt lat="44.167044" lon="12.1312306"><ele>32.0</ele><time>2026-04-16T16:39:26.767Z</time></trkpt><trkpt lat="44.1670703" lon="12.1313886"><ele>31.500000000000004</ele><time>2026-04-16T16:39:28.768Z</time></trkpt><trkpt lat="44.1670978" lon="12.1315414"><ele>31.0</ele><time>2026-04-16T16:39:30.773Z</time></trkpt><trkpt lat="44.1671227" lon="12.1316875"><ele>31.0</ele><time>2026-04-16T16:39:32.769Z</time></trkpt><trkpt lat="44.1671454" lon="12.1318301"><ele>31.0</ele><time>2026-04-16T16:39:34.765Z</time></trkpt><trkpt lat="44.1671653" lon="12.1319716"><ele>31.0</ele><time>2026-04-16T16:39:36.766Z</time></trkpt><trkpt lat="44.1671961" lon="12.1321011"><ele>31.0</ele><time>2026-04-16T16:39:38.753Z</time></trkpt><trkpt lat="44.1672799" lon="12.1321695"><ele>31.0</ele><time>2026-04-16T16:39:40.757Z</time></trkpt><trkpt lat="44.1673951" lon="12.132142"><ele>31.200000000000003</ele><time>2026-04-16T16:39:42.757Z</time></trkpt><trkpt lat="44.1674895" lon="12.1321557"><ele>31.400000000000002</ele><time>2026-04-16T16:39:44.759Z</time></trkpt><trkpt lat="44.1675247" lon="12.1322865"><ele>31.6</ele><time>2026-04-16T16:39:46.752Z</time></trkpt><trkpt lat="44.1675347" lon="12.1324398"><ele>31.8</ele><time>2026-04-16T16:39:48.752Z</time></trkpt><trkpt lat="44.1675506" lon="12.1325936"><ele>32.0</ele><time>2026-04-16T16:39:50.758Z</time></trkpt><trkpt lat="44.1675701" lon="12.1327598"><ele>32.0</ele><time>2026-04-16T16:39:52.761Z</time></trkpt><trkpt lat="44.167595" lon="12.1329171"><ele>32.0</ele><time>2026-04-16T16:39:54.76Z</time></trkpt><trkpt lat="44.1676262" lon="12.1330684"><ele>32.0</ele><time>2026-04-16T16:39:56.758Z</time></trkpt><trkpt lat="44.1676458" lon="12.1332126"><ele>32.0</ele><time>2026-04-16T16:39:58.763Z</time></trkpt><trkpt lat="44.1676644" lon="12.1333512"><ele>32.0</ele><time>2026-04-16T16:40:00.759Z</time></trkpt><trkpt lat="44.1676846" lon="12.1334873"><ele>32.0</ele><time>2026-04-16T16:40:02.756Z</time></trkpt><trkpt lat="44.1677003" lon="12.133613"><ele>32.0</ele><time>2026-04-16T16:40:04.759Z</time></trkpt><trkpt lat="44.1677156" lon="12.1337392"><ele>32.0</ele><time>2026-04-16T16:40:06.756Z</time></trkpt><trkpt lat="44.1677367" lon="12.1338658"><ele>32.0</ele><time>2026-04-16T16:40:08.773Z</time></trkpt><trkpt lat="44.1677526" lon="12.1340014"><ele>32.0</ele><time>2026-04-16T16:40:10.76Z</time></trkpt><trkpt lat="44.1677704" lon="12.1341432"><ele>32.0</ele><time>2026-04-16T16:40:12.76Z</time></trkpt><trkpt lat="44.1677912" lon="12.1342831"><ele>32.0</ele><time>2026-04-16T16:40:14.762Z</time></trkpt><trkpt lat="44.1678124" lon="12.134421"><ele>32.0</ele><time>2026-04-16T16:40:16.762Z</time></trkpt><trkpt lat="44.1678375" lon="12.1345515"><ele>32.0</ele><time>2026-04-16T16:40:18.762Z</time></trkpt><trkpt lat="44.1678563" lon="12.1346859"><ele>32.0</ele><time>2026-04-16T16:40:20.759Z</time></trkpt><trkpt lat="44.1678733" lon="12.1348108"><ele>31.833333333333332</ele><time>2026-04-16T16:40:22.764Z</time></trkpt><trkpt lat="44.1678929" lon="12.1349326"><ele>31.666666666666664</ele><time>2026-04-16T16:40:24.761Z</time></trkpt><trkpt lat="44.1679105" lon="12.1350399"><ele>31.5</ele><time>2026-04-16T16:40:26.765Z</time></trkpt><trkpt lat="44.1679213" lon="12.1351409"><ele>31.333333333333336</ele><time>2026-04-16T16:40:28.767Z</time></trkpt><trkpt lat="44.1679346" lon="12.1352363"><ele>31.166666666666668</ele><time>2026-04-16T16:40:30.771Z</time></trkpt><trkpt lat="44.1679464" lon="12.1353528"><ele>31.0</ele><time>2026-04-16T16:40:33.759Z</time></trkpt><trkpt lat="44.1678754" lon="12.1353877"><ele>31.0</ele><time>2026-04-16T16:40:36.765Z</time></trkpt><trkpt lat="44.1678046" lon="12.1353794"><ele>31.000000000000004</ele><time>2026-04-16T16:40:38.764Z</time></trkpt><trkpt lat="44.1677346" lon="12.1353714"><ele>31.0</ele><time>2026-04-16T16:40:40.765Z</time></trkpt><trkpt lat="44.1676589" lon="12.1353761"><ele>31.0</ele><time>2026-04-16T16:40:42.767Z</time></trkpt><trkpt lat="44.1675875" lon="12.1353802"><ele>31.000000000000004</ele><time>2026-04-16T16:40:44.768Z</time></trkpt><trkpt lat="44.1675189" lon="12.1353786"><ele>31.0</ele><time>2026-04-16T16:40:46.775Z</time></trkpt><trkpt lat="44.1674551" lon="12.1353804"><ele>31.0</ele><time>2026-04-16T16:40:48.769Z</time></trkpt><trkpt lat="44.16736" lon="12.1353817"><ele>31.0</ele><time>2026-04-16T16:40:51.769Z</time></trkpt><trkpt lat="44.1672952" lon="12.1353911"><ele>31.000000000000004</ele><time>2026-04-16T16:40:53.769Z</time></trkpt><trkpt lat="44.1672266" lon="12.1353922"><ele>31.0</ele><time>2026-04-16T16:40:55.768Z</time></trkpt><trkpt lat="44.1671575" lon="12.1353847"><ele>31.0</ele><time>2026-04-16T16:40:57.766Z</time></trkpt><trkpt lat="44.1670857" lon="12.1353807"><ele>31.000000000000004</ele><time>2026-04-16T16:40:59.767Z</time></trkpt><trkpt lat="44.1670096" lon="12.1353886"><ele>31.0</ele><time>2026-04-16T16:41:01.766Z</time></trkpt><trkpt lat="44.1669359" lon="12.1353928"><ele>31.0</ele><time>2026-04-16T16:41:03.766Z</time></trkpt><trkpt lat="44.1668672" lon="12.1353913"><ele>31.0</ele><time>2026-04-16T16:41:05.767Z</time></trkpt><trkpt lat="44.166799" lon="12.1353885"><ele>31.000000000000004</ele><time>2026-04-16T16:41:07.765Z</time></trkpt><trkpt lat="44.1667287" lon="12.135389"><ele>31.0</ele><time>2026-04-16T16:41:09.765Z</time></trkpt><trkpt lat="44.1666554" lon="12.1353915"><ele>31.0</ele><time>2026-04-16T16:41:11.768Z</time></trkpt><trkpt lat="44.1665842" lon="12.1353958"><ele>31.000000000000004</ele><time>2026-04-16T16:41:13.769Z</time></trkpt><trkpt lat="44.1665149" lon="12.1353968"><ele>31.0</ele><time>2026-04-16T16:41:15.766Z</time></trkpt><trkpt lat="44.1664473" lon="12.1353968"><ele>31.0</ele><time>2026-04-16T16:41:17.767Z</time></trkpt><trkpt lat="44.1663783" lon="12.1353997"><ele>31.42857142857143</ele><time>2026-04-16T16:41:19.765Z</time></trkpt><trkpt lat="44.1663051" lon="12.1354027"><ele>31.85714285714286</ele><time>2026-04-16T16:41:21.768Z</time></trkpt><trkpt lat="44.1662329" lon="12.1354076"><ele>32.285714285714285</ele><time>2026-04-16T16:41:23.773Z</time></trkpt><trkpt lat="44.1661584" lon="12.1354132"><ele>32.714285714285715</ele><time>2026-04-16T16:41:25.766Z</time></trkpt><trkpt lat="44.1660947" lon="12.1354236"><ele>33.14285714285714</ele><time>2026-04-16T16:41:27.768Z</time></trkpt><trkpt lat="44.1660299" lon="12.1354364"><ele>33.57142857142857</ele><time>2026-04-16T16:41:29.769Z</time></trkpt><trkpt lat="44.1659629" lon="12.1354426"><ele>34.0</ele><time>2026-04-16T16:41:31.771Z</time></trkpt><trkpt lat="44.1658933" lon="12.1354478"><ele>33.99999999999999</ele><time>2026-04-16T16:41:33.767Z</time></trkpt><trkpt lat="44.165828" lon="12.1354561"><ele>34.0</ele><time>2026-04-16T16:41:35.768Z</time></trkpt><trkpt lat="44.1657648" lon="12.135473"><ele>34.0</ele><time>2026-04-16T16:41:37.769Z</time></trkpt><trkpt lat="44.1656983" lon="12.1354918"><ele>34.0</ele><time>2026-04-16T16:41:39.769Z</time></trkpt><trkpt lat="44.1656362" lon="12.1355066"><ele>34.0</ele><time>2026-04-16T16:41:41.783Z</time></trkpt><trkpt lat="44.1655708" lon="12.1355106"><ele>33.99999999999999</ele><time>2026-04-16T16:41:43.767Z</time></trkpt><trkpt lat="44.1654976" lon="12.1355233"><ele>34.0</ele><time>2026-04-16T16:41:45.764Z</time></trkpt><trkpt lat="44.1654277" lon="12.13554"><ele>34.14285714285714</ele><time>2026-04-16T16:41:47.769Z</time></trkpt><trkpt lat="44.165355" lon="12.1355516"><ele>34.285714285714285</ele><time>2026-04-16T16:41:49.768Z</time></trkpt><trkpt lat="44.1652875" lon="12.1355541"><ele>34.42857142857143</ele><time>2026-04-16T16:41:51.769Z</time></trkpt><trkpt lat="44.1652228" lon="12.1355583"><ele>34.57142857142857</ele><time>2026-04-16T16:41:53.766Z</time></trkpt><trkpt lat="44.1651294" lon="12.1355778"><ele>34.714285714285715</ele><time>2026-04-16T16:41:56.766Z</time></trkpt><trkpt lat="44.1650673" lon="12.1356018"><ele>34.857142857142854</ele><time>2026-04-16T16:41:58.771Z</time></trkpt><trkpt lat="44.16503" lon="12.1357062"><ele>35.0</ele><time>2026-04-16T16:42:01.769Z</time></trkpt><trkpt lat="44.1650593" lon="12.1358328"><ele>35.0</ele><time>2026-04-16T16:42:04.766Z</time></trkpt><trkpt lat="44.1650795" lon="12.1359541"><ele>35.0</ele><time>2026-04-16T16:42:07.762Z</time></trkpt><trkpt lat="44.1650928" lon="12.1360642"><ele>35.0</ele><time>2026-04-16T16:42:10.766Z</time></trkpt><trkpt lat="44.1651014" lon="12.1361728"><ele>35.0</ele><time>2026-04-16T16:42:13.764Z</time></trkpt><trkpt lat="44.165105" lon="12.136265"><ele>35.0</ele><time>2026-04-16T16:42:15.764Z</time></trkpt><trkpt lat="44.1651115" lon="12.1363687"><ele>35.0</ele><time>2026-04-16T16:42:17.769Z</time></trkpt><trkpt lat="44.1651082" lon="12.1364653"><ele>36.33333333333333</ele><time>2026-04-16T16:42:19.765Z</time></trkpt><trkpt lat="44.1651105" lon="12.1365614"><ele>37.666666666666664</ele><time>2026-04-16T16:42:21.767Z</time></trkpt><trkpt lat="44.1651137" lon="12.1366857"><ele>39.0</ele><time>2026-04-16T16:42:24.768Z</time></trkpt><trkpt lat="44.1651174" lon="12.1368144"><ele>40.333333333333336</ele><time>2026-04-16T16:42:27.77Z</time></trkpt><trkpt lat="44.1651264" lon="12.1369341"><ele>41.66666666666667</ele><time>2026-04-16T16:42:30.769Z</time></trkpt><trkpt lat="44.1651368" lon="12.1370602"><ele>43.0</ele><time>2026-04-16T16:42:33.765Z</time></trkpt><trkpt lat="44.1651416" lon="12.1371695"><ele>43.0</ele><time>2026-04-16T16:42:36.765Z</time></trkpt><trkpt lat="44.1651532" lon="12.1372648"><ele>43.0</ele><time>2026-04-16T16:42:39.764Z</time></trkpt><trkpt lat="44.1651711" lon="12.1373793"><ele>43.0</ele><time>2026-04-16T16:42:43.78Z</time></trkpt><trkpt lat="44.165143" lon="12.1374622"><ele>43.0</ele><time>2026-04-16T16:42:48.773Z</time></trkpt><trkpt lat="44.1650608" lon="12.1374266"><ele>43.0</ele><time>2026-04-16T16:42:51.766Z</time></trkpt><trkpt lat="44.1649817" lon="12.1374248"><ele>43.0</ele><time>2026-04-16T16:42:53.767Z</time></trkpt><trkpt lat="44.1649012" lon="12.1374194"><ele>44.5</ele><time>2026-04-16T16:42:55.769Z</time></trkpt><trkpt lat="44.1648222" lon="12.137432"><ele>46.0</ele><time>2026-04-16T16:42:57.769Z</time></trkpt><trkpt lat="44.1647551" lon="12.1374498"><ele>47.5</ele><time>2026-04-16T16:42:59.766Z</time></trkpt><trkpt lat="44.1646907" lon="12.1374837"><ele>49.0</ele><time>2026-04-16T16:43:01.773Z</time></trkpt><trkpt lat="44.1646197" lon="12.1375178"><ele>50.49999999999999</ele><time>2026-04-16T16:43:03.765Z</time></trkpt><trkpt lat="44.1645419" lon="12.1375553"><ele>52.0</ele><time>2026-04-16T16:43:05.767Z</time></trkpt><trkpt lat="44.1644553" lon="12.1376107"><ele>52.0</ele><time>2026-04-16T16:43:07.769Z</time></trkpt><trkpt lat="44.1643616" lon="12.1376683"><ele>52.0</ele><time>2026-04-16T16:43:09.759Z</time></trkpt><trkpt lat="44.1642688" lon="12.1377238"><ele>52.0</ele><time>2026-04-16T16:43:11.755Z</time></trkpt><trkpt lat="44.1641731" lon="12.1377664"><ele>52.0</ele><time>2026-04-16T16:43:13.758Z</time></trkpt><trkpt lat="44.1640703" lon="12.1377852"><ele>52.0</ele><time>2026-04-16T16:43:15.757Z</time></trkpt><trkpt lat="44.163982" lon="12.1378012"><ele>52.400000000000006</ele><time>2026-04-16T16:43:17.758Z</time></trkpt><trkpt lat="44.1638872" lon="12.1378131"><ele>52.800000000000004</ele><time>2026-04-16T16:43:19.758Z</time></trkpt><trkpt lat="44.1637952" lon="12.1378267"><ele>53.2</ele><time>2026-04-16T16:43:21.761Z</time></trkpt><trkpt lat="44.1637009" lon="12.1378398"><ele>53.6</ele><time>2026-04-16T16:43:23.764Z</time></trkpt><trkpt lat="44.1636128" lon="12.1378633"><ele>54.0</ele><time>2026-04-16T16:43:25.756Z</time></trkpt><trkpt lat="44.1635319" lon="12.1379119"><ele>54.0</ele><time>2026-04-16T16:43:27.758Z</time></trkpt><trkpt lat="44.1634626" lon="12.1379904"><ele>54.0</ele><time>2026-04-16T16:43:29.77Z</time></trkpt><trkpt lat="44.1634153" lon="12.1380938"><ele>54.0</ele><time>2026-04-16T16:43:31.764Z</time></trkpt><trkpt lat="44.1633868" lon="12.1382099"><ele>54.0</ele><time>2026-04-16T16:43:33.765Z</time></trkpt><trkpt lat="44.1633305" lon="12.1382776"><ele>54.0</ele><time>2026-04-16T16:43:35.762Z</time></trkpt><trkpt lat="44.1632624" lon="12.1383198"><ele>54.0</ele><time>2026-04-16T16:43:37.767Z</time></trkpt><trkpt lat="44.1631879" lon="12.1383491"><ele>55.2</ele><time>2026-04-16T16:43:39.766Z</time></trkpt><trkpt lat="44.163109" lon="12.1383651"><ele>56.400000000000006</ele><time>2026-04-16T16:43:41.764Z</time></trkpt><trkpt lat="44.1630246" lon="12.1384027"><ele>57.6</ele><time>2026-04-16T16:43:43.764Z</time></trkpt><trkpt lat="44.1629454" lon="12.1384401"><ele>58.8</ele><time>2026-04-16T16:43:45.795Z</time></trkpt><trkpt lat="44.1628552" lon="12.1384759"><ele>60.0</ele><time>2026-04-16T16:43:47.763Z</time></trkpt><trkpt lat="44.162739" lon="12.1385306"><ele>60.0</ele><time>2026-04-16T16:43:49.752Z</time></trkpt><trkpt lat="44.1626333" lon="12.1386246"><ele>60.0</ele><time>2026-04-16T16:43:51.755Z</time></trkpt><trkpt lat="44.1626035" lon="12.1387691"><ele>60.0</ele><time>2026-04-16T16:43:53.757Z</time></trkpt><trkpt lat="44.1626661" lon="12.1388769"><ele>60.0</ele><time>2026-04-16T16:43:55.76Z</time></trkpt><trkpt lat="44.1626952" lon="12.1390045"><ele>60.0</ele><time>2026-04-16T16:43:57.761Z</time></trkpt><trkpt lat="44.1626555" lon="12.1391162"><ele>60.2</ele><time>2026-04-16T16:43:59.765Z</time></trkpt><trkpt lat="44.1625738" lon="12.1391831"><ele>60.4</ele><time>2026-04-16T16:44:01.766Z</time></trkpt><trkpt lat="44.1624798" lon="12.1392348"><ele>60.599999999999994</ele><time>2026-04-16T16:44:03.76Z</time></trkpt><trkpt lat="44.1623944" lon="12.1392889"><ele>60.8</ele><time>2026-04-16T16:44:05.766Z</time></trkpt><trkpt lat="44.162309" lon="12.1393454"><ele>61.0</ele><time>2026-04-16T16:44:07.765Z</time></trkpt><trkpt lat="44.1622254" lon="12.1394039"><ele>61.0</ele><time>2026-04-16T16:44:09.77Z</time></trkpt><trkpt lat="44.1621454" lon="12.1394666"><ele>60.99999999999999</ele><time>2026-04-16T16:44:11.767Z</time></trkpt><trkpt lat="44.1620665" lon="12.139548"><ele>60.99999999999999</ele><time>2026-04-16T16:44:13.763Z</time></trkpt><trkpt lat="44.1620006" lon="12.1396397"><ele>61.0</ele><time>2026-04-16T16:44:15.771Z</time></trkpt><trkpt lat="44.1619681" lon="12.1397525"><ele>61.0</ele><time>2026-04-16T16:44:17.757Z</time></trkpt><trkpt lat="44.161929" lon="12.1398576"><ele>62.199999999999996</ele><time>2026-04-16T16:44:19.763Z</time></trkpt><trkpt lat="44.1618925" lon="12.1399676"><ele>63.39999999999999</ele><time>2026-04-16T16:44:21.768Z</time></trkpt><trkpt lat="44.1618441" lon="12.1400586"><ele>64.6</ele><time>2026-04-16T16:44:23.772Z</time></trkpt><trkpt lat="44.1617659" lon="12.1401375"><ele>65.8</ele><time>2026-04-16T16:44:25.763Z</time></trkpt><trkpt lat="44.1616937" lon="12.1402221"><ele>67.0</ele><time>2026-04-16T16:44:27.76Z</time></trkpt><trkpt lat="44.1616323" lon="12.1403348"><ele>67.0</ele><time>2026-04-16T16:44:29.76Z</time></trkpt><trkpt lat="44.1615706" lon="12.1404577"><ele>67.0</ele><time>2026-04-16T16:44:31.755Z</time></trkpt><trkpt lat="44.1614929" lon="12.1405538"><ele>67.0</ele><time>2026-04-16T16:44:33.758Z</time></trkpt><trkpt lat="44.1614069" lon="12.1406278"><ele>67.0</ele><time>2026-04-16T16:44:35.756Z</time></trkpt><trkpt lat="44.1613247" lon="12.1406931"><ele>67.0</ele><time>2026-04-16T16:44:37.763Z</time></trkpt><trkpt lat="44.1612395" lon="12.1407644"><ele>67.4</ele><time>2026-04-16T16:44:39.761Z</time></trkpt><trkpt lat="44.1611565" lon="12.1408464"><ele>67.80000000000001</ele><time>2026-04-16T16:44:41.76Z</time></trkpt><trkpt lat="44.1610781" lon="12.1409186"><ele>68.2</ele><time>2026-04-16T16:44:43.758Z</time></trkpt><trkpt lat="44.1610017" lon="12.1409931"><ele>68.60000000000001</ele><time>2026-04-16T16:44:45.767Z</time></trkpt><trkpt lat="44.1609207" lon="12.1410727"><ele>69.0</ele><time>2026-04-16T16:44:47.755Z</time></trkpt><trkpt lat="44.160841" lon="12.1411536"><ele>69.0</ele><time>2026-04-16T16:44:49.756Z</time></trkpt><trkpt lat="44.1607556" lon="12.1412308"><ele>69.0</ele><time>2026-04-16T16:44:51.762Z</time></trkpt><trkpt lat="44.1606683" lon="12.1413033"><ele>69.0</ele><time>2026-04-16T16:44:53.761Z</time></trkpt><trkpt lat="44.1605853" lon="12.1413696"><ele>69.0</ele><time>2026-04-16T16:44:55.76Z</time></trkpt><trkpt lat="44.1605025" lon="12.1414348"><ele>69.0</ele><time>2026-04-16T16:44:57.757Z</time></trkpt><trkpt lat="44.1604185" lon="12.1415103"><ele>69.60000000000001</ele><time>2026-04-16T16:44:59.757Z</time></trkpt><trkpt lat="44.1603379" lon="12.1415839"><ele>70.2</ele><time>2026-04-16T16:45:01.758Z</time></trkpt><trkpt lat="44.1602543" lon="12.1416603"><ele>70.80000000000001</ele><time>2026-04-16T16:45:03.756Z</time></trkpt><trkpt lat="44.1601772" lon="12.1417273"><ele>71.4</ele><time>2026-04-16T16:45:05.758Z</time></trkpt><trkpt lat="44.1600997" lon="12.1418074"><ele>72.0</ele><time>2026-04-16T16:45:07.756Z</time></trkpt><trkpt lat="44.1600181" lon="12.1418862"><ele>72.0</ele><time>2026-04-16T16:45:09.757Z</time></trkpt><trkpt lat="44.1599307" lon="12.1419622"><ele>72.0</ele><time>2026-04-16T16:45:11.758Z</time></trkpt><trkpt lat="44.1598423" lon="12.1420353"><ele>72.0</ele><time>2026-04-16T16:45:13.761Z</time></trkpt><trkpt lat="44.159757" lon="12.1421054"><ele>72.0</ele><time>2026-04-16T16:45:15.759Z</time></trkpt><trkpt lat="44.1596753" lon="12.1421659"><ele>72.0</ele><time>2026-04-16T16:45:17.769Z</time></trkpt><trkpt lat="44.1595892" lon="12.1422271"><ele>71.6</ele><time>2026-04-16T16:45:19.759Z</time></trkpt><trkpt lat="44.1594925" lon="12.1422958"><ele>71.2</ele><time>2026-04-16T16:45:21.757Z</time></trkpt><trkpt lat="44.1594358" lon="12.1423381"><ele>70.8</ele><time>2026-04-16T16:45:22.761Z</time></trkpt><trkpt lat="44.1593802" lon="12.1423811"><ele>70.4</ele><time>2026-04-16T16:45:23.756Z</time></trkpt><trkpt lat="44.1592736" lon="12.1424572"><ele>70.0</ele><time>2026-04-16T16:45:25.759Z</time></trkpt><trkpt lat="44.1591669" lon="12.1425351"><ele>72.0</ele><time>2026-04-16T16:45:27.763Z</time></trkpt><trkpt lat="44.1590668" lon="12.1425991"><ele>74.0</ele><time>2026-04-16T16:45:29.764Z</time></trkpt><trkpt lat="44.1589766" lon="12.1426567"><ele>76.0</ele><time>2026-04-16T16:45:31.759Z</time></trkpt><trkpt lat="44.1588845" lon="12.1426934"><ele>78.0</ele><time>2026-04-16T16:45:33.753Z</time></trkpt><trkpt lat="44.1587911" lon="12.1427017"><ele>80.0</ele><time>2026-04-16T16:45:35.755Z</time></trkpt><trkpt lat="44.1586867" lon="12.1426783"><ele>81.2</ele><time>2026-04-16T16:45:37.753Z</time></trkpt><trkpt lat="44.1585884" lon="12.1426366"><ele>82.4</ele><time>2026-04-16T16:45:39.757Z</time></trkpt><trkpt lat="44.1584993" lon="12.1425902"><ele>83.6</ele><time>2026-04-16T16:45:41.756Z</time></trkpt><trkpt lat="44.1584179" lon="12.1425453"><ele>84.8</ele><time>2026-04-16T16:45:43.764Z</time></trkpt><trkpt lat="44.1583326" lon="12.1425053"><ele>86.0</ele><time>2026-04-16T16:45:45.763Z</time></trkpt><trkpt lat="44.158245" lon="12.1424602"><ele>87.66666666666667</ele><time>2026-04-16T16:45:47.759Z</time></trkpt><trkpt lat="44.1581591" lon="12.1424131"><ele>89.33333333333334</ele><time>2026-04-16T16:45:49.76Z</time></trkpt><trkpt lat="44.1580805" lon="12.1423593"><ele>91.0</ele><time>2026-04-16T16:45:51.761Z</time></trkpt><trkpt lat="44.1579975" lon="12.142296"><ele>92.66666666666667</ele><time>2026-04-16T16:45:53.761Z</time></trkpt><trkpt lat="44.1579135" lon="12.1422542"><ele>94.33333333333333</ele><time>2026-04-16T16:45:55.76Z</time></trkpt><trkpt lat="44.1578406" lon="12.1422125"><ele>96.0</ele><time>2026-04-16T16:45:57.765Z</time></trkpt><trkpt lat="44.1577739" lon="12.142174"><ele>95.99999999999999</ele><time>2026-04-16T16:45:59.76Z</time></trkpt><trkpt lat="44.1577102" lon="12.142159"><ele>96.0</ele><time>2026-04-16T16:46:01.761Z</time></trkpt><trkpt lat="44.1576465" lon="12.1421497"><ele>96.0</ele><time>2026-04-16T16:46:03.761Z</time></trkpt><trkpt lat="44.1575791" lon="12.1421374"><ele>96.0</ele><time>2026-04-16T16:46:05.761Z</time></trkpt><trkpt lat="44.1575108" lon="12.1421308"><ele>96.0</ele><time>2026-04-16T16:46:07.762Z</time></trkpt><trkpt lat="44.1574342" lon="12.1421254"><ele>95.99999999999999</ele><time>2026-04-16T16:46:09.757Z</time></trkpt><trkpt lat="44.1573504" lon="12.1421131"><ele>96.0</ele><time>2026-04-16T16:46:12.757Z</time></trkpt><trkpt lat="44.1572575" lon="12.142093"><ele>99.0</ele><time>2026-04-16T16:46:15.761Z</time></trkpt><trkpt lat="44.1571664" lon="12.1420605"><ele>102.0</ele><time>2026-04-16T16:46:18.759Z</time></trkpt><trkpt lat="44.1571001" lon="12.1420423"><ele>105.0</ele><time>2026-04-16T16:46:20.761Z</time></trkpt><trkpt lat="44.1570163" lon="12.1420351"><ele>108.0</ele><time>2026-04-16T16:46:23.76Z</time></trkpt><trkpt lat="44.156948" lon="12.1420094"><ele>111.0</ele><time>2026-04-16T16:46:26.757Z</time></trkpt><trkpt lat="44.156861" lon="12.1419995"><ele>114.0</ele><time>2026-04-16T16:46:29.76Z</time></trkpt><trkpt lat="44.1567716" lon="12.1420229"><ele>114.0</ele><time>2026-04-16T16:46:32.752Z</time></trkpt><trkpt lat="44.156708" lon="12.1420736"><ele>114.0</ele><time>2026-04-16T16:46:34.759Z</time></trkpt><trkpt lat="44.156643" lon="12.1421466"><ele>114.0</ele><time>2026-04-16T16:46:36.766Z</time></trkpt><trkpt lat="44.1565792" lon="12.1422177"><ele>114.0</ele><time>2026-04-16T16:46:38.759Z</time></trkpt><trkpt lat="44.1565271" lon="12.142283"><ele>114.0</ele><time>2026-04-16T16:46:40.757Z</time></trkpt><trkpt lat="44.1564666" lon="12.1423685"><ele>114.0</ele><time>2026-04-16T16:46:43.76Z</time></trkpt><trkpt lat="44.1564073" lon="12.1424465"><ele>116.83333333333333</ele><time>2026-04-16T16:46:46.762Z</time></trkpt><trkpt lat="44.1563405" lon="12.142519"><ele>119.66666666666666</ele><time>2026-04-16T16:46:49.757Z</time></trkpt><trkpt lat="44.1562734" lon="12.1426044"><ele>122.5</ele><time>2026-04-16T16:46:52.763Z</time></trkpt><trkpt lat="44.1562161" lon="12.1426634"><ele>125.33333333333333</ele><time>2026-04-16T16:46:55.761Z</time></trkpt><trkpt lat="44.1561518" lon="12.142722"><ele>128.16666666666666</ele><time>2026-04-16T16:46:58.758Z</time></trkpt><trkpt lat="44.1560818" lon="12.1427904"><ele>131.0</ele><time>2026-04-16T16:47:01.752Z</time></trkpt><trkpt lat="44.1560207" lon="12.1428543"><ele>131.0</ele><time>2026-04-16T16:47:04.753Z</time></trkpt><trkpt lat="44.1559586" lon="12.1429192"><ele>131.0</ele><time>2026-04-16T16:47:07.754Z</time></trkpt><trkpt lat="44.1558809" lon="12.1429923"><ele>131.0</ele><time>2026-04-16T16:47:10.753Z</time></trkpt><trkpt lat="44.1558114" lon="12.1430543"><ele>131.0</ele><time>2026-04-16T16:47:13.75Z</time></trkpt><trkpt lat="44.1557504" lon="12.1431122"><ele>131.0</ele><time>2026-04-16T16:47:16.756Z</time></trkpt><trkpt lat="44.155682" lon="12.14313"><ele>131.0</ele><time>2026-04-16T16:47:20.753Z</time></trkpt><trkpt lat="44.1556251" lon="12.1430843"><ele>130.66666666666666</ele><time>2026-04-16T16:47:23.753Z</time></trkpt><trkpt lat="44.1555617" lon="12.1429898"><ele>130.33333333333331</ele><time>2026-04-16T16:47:26.755Z</time></trkpt><trkpt lat="44.1555009" lon="12.1428975"><ele>130.0</ele><time>2026-04-16T16:47:29.752Z</time></trkpt><trkpt lat="44.1554562" lon="12.142833"><ele>129.66666666666666</ele><time>2026-04-16T16:47:31.746Z</time></trkpt><trkpt lat="44.155394" lon="12.1427355"><ele>129.33333333333334</ele><time>2026-04-16T16:47:34.748Z</time></trkpt><trkpt lat="44.1553373" lon="12.1426275"><ele>129.0</ele><time>2026-04-16T16:47:37.749Z</time></trkpt><trkpt lat="44.1552816" lon="12.1425255"><ele>129.0</ele><time>2026-04-16T16:47:40.754Z</time></trkpt><trkpt lat="44.1552198" lon="12.142447"><ele>129.0</ele><time>2026-04-16T16:47:43.75Z</time></trkpt><trkpt lat="44.155154" lon="12.1423679"><ele>129.0</ele><time>2026-04-16T16:47:46.749Z</time></trkpt><trkpt lat="44.1550836" lon="12.1422801"><ele>129.0</ele><time>2026-04-16T16:47:49.747Z</time></trkpt><trkpt lat="44.1550338" lon="12.1421697"><ele>129.0</ele><time>2026-04-16T16:47:52.766Z</time></trkpt><trkpt lat="44.1549875" lon="12.1420763"><ele>129.0</ele><time>2026-04-16T16:47:55.746Z</time></trkpt><trkpt lat="44.1549424" lon="12.1420106"><ele>129.57142857142856</ele><time>2026-04-16T16:47:58.745Z</time></trkpt><trkpt lat="44.1549034" lon="12.1420942"><ele>130.14285714285714</ele><time>2026-04-16T16:48:02.749Z</time></trkpt><trkpt lat="44.1548399" lon="12.1420926"><ele>130.71428571428572</ele><time>2026-04-16T16:48:05.751Z</time></trkpt><trkpt lat="44.1547769" lon="12.1420957"><ele>131.28571428571428</ele><time>2026-04-16T16:48:08.752Z</time></trkpt><trkpt lat="44.1547153" lon="12.1420204"><ele>131.85714285714286</ele><time>2026-04-16T16:48:12.749Z</time></trkpt><trkpt lat="44.1547148" lon="12.1419276"><ele>132.42857142857142</ele><time>2026-04-16T16:48:14.754Z</time></trkpt><trkpt lat="44.1546953" lon="12.1418421"><ele>133.0</ele><time>2026-04-16T16:48:16.756Z</time></trkpt><trkpt lat="44.154645" lon="12.1417434"><ele>133.0</ele><time>2026-04-16T16:48:19.753Z</time></trkpt><trkpt lat="44.1545795" lon="12.1416658"><ele>133.0</ele><time>2026-04-16T16:48:22.763Z</time></trkpt><trkpt lat="44.1545248" lon="12.1415778"><ele>133.0</ele><time>2026-04-16T16:48:25.752Z</time></trkpt><trkpt lat="44.1544752" lon="12.1414768"><ele>133.0</ele><time>2026-04-16T16:48:28.758Z</time></trkpt><trkpt lat="44.1544469" lon="12.1413782"><ele>133.0</ele><time>2026-04-16T16:48:31.743Z</time></trkpt><trkpt lat="44.1543619" lon="12.1413891"><ele>133.0</ele><time>2026-04-16T16:48:34.747Z</time></trkpt><trkpt lat="44.1542977" lon="12.1414385"><ele>134.33333333333334</ele><time>2026-04-16T16:48:36.746Z</time></trkpt><trkpt lat="44.1542233" lon="12.1414601"><ele>135.66666666666669</ele><time>2026-04-16T16:48:39.749Z</time></trkpt><trkpt lat="44.1541867" lon="12.141343"><ele>137.0</ele><time>2026-04-16T16:48:42.755Z</time></trkpt><trkpt lat="44.1541558" lon="12.1412302"><ele>138.33333333333334</ele><time>2026-04-16T16:48:45.751Z</time></trkpt><trkpt lat="44.1541233" lon="12.1411347"><ele>139.66666666666666</ele><time>2026-04-16T16:48:48.756Z</time></trkpt><trkpt lat="44.154094" lon="12.1410442"><ele>141.0</ele><time>2026-04-16T16:48:51.757Z</time></trkpt><trkpt lat="44.1540622" lon="12.1409542"><ele>141.14285714285714</ele><time>2026-04-16T16:48:55.755Z</time></trkpt><trkpt lat="44.153983" lon="12.1409594"><ele>141.28571428571428</ele><time>2026-04-16T16:49:00.759Z</time></trkpt><trkpt lat="44.1539217" lon="12.1409843"><ele>141.42857142857142</ele><time>2026-04-16T16:49:03.757Z</time></trkpt><trkpt lat="44.153864" lon="12.1410198"><ele>141.57142857142856</ele><time>2026-04-16T16:49:06.757Z</time></trkpt><trkpt lat="44.1537862" lon="12.1410667"><ele>141.7142857142857</ele><time>2026-04-16T16:49:09.759Z</time></trkpt><trkpt lat="44.1536994" lon="12.1411007"><ele>141.85714285714286</ele><time>2026-04-16T16:49:12.76Z</time></trkpt><trkpt lat="44.153635" lon="12.1411246"><ele>142.0</ele><time>2026-04-16T16:49:14.756Z</time></trkpt><trkpt lat="44.1535659" lon="12.1411485"><ele>142.0</ele><time>2026-04-16T16:49:16.752Z</time></trkpt><trkpt lat="44.1534951" lon="12.1411706"><ele>142.0</ele><time>2026-04-16T16:49:18.761Z</time></trkpt><trkpt lat="44.1534228" lon="12.1411871"><ele>142.0</ele><time>2026-04-16T16:49:20.76Z</time></trkpt><trkpt lat="44.1533526" lon="12.1412066"><ele>142.0</ele><time>2026-04-16T16:49:22.762Z</time></trkpt><trkpt lat="44.1532893" lon="12.1412434"><ele>142.0</ele><time>2026-04-16T16:49:24.759Z</time></trkpt><trkpt lat="44.1532241" lon="12.1412768"><ele>142.0</ele><time>2026-04-16T16:49:26.761Z</time></trkpt><trkpt lat="44.1531529" lon="12.1413053"><ele>142.0</ele><time>2026-04-16T16:49:28.76Z</time></trkpt><trkpt lat="44.1530745" lon="12.1413428"><ele>142.0</ele><time>2026-04-16T16:49:30.759Z</time></trkpt><trkpt lat="44.153003" lon="12.1413734"><ele>142.0</ele><time>2026-04-16T16:49:32.76Z</time></trkpt><trkpt lat="44.1529169" lon="12.1413849"><ele>142.0</ele><time>2026-04-16T16:49:35.759Z</time></trkpt><trkpt lat="44.1528362" lon="12.1413938"><ele>142.0</ele><time>2026-04-16T16:49:38.765Z</time></trkpt><trkpt lat="44.1527863" lon="12.1414746"><ele>142.0</ele><time>2026-04-16T16:49:41.747Z</time></trkpt><trkpt lat="44.1527902" lon="12.1415672"><ele>142.0</ele><time>2026-04-16T16:49:43.75Z</time></trkpt><trkpt lat="44.1528238" lon="12.1416666"><ele>142.0</ele><time>2026-04-16T16:49:45.755Z</time></trkpt><trkpt lat="44.1528284" lon="12.141783"><ele>142.0</ele><time>2026-04-16T16:49:47.755Z</time></trkpt><trkpt lat="44.1527725" lon="12.1418301"><ele>142.0</ele><time>2026-04-16T16:49:49.76Z</time></trkpt><trkpt lat="44.1527077" lon="12.1418613"><ele>142.0</ele><time>2026-04-16T16:49:51.758Z</time></trkpt><trkpt lat="44.1526431" lon="12.1419002"><ele>142.0</ele><time>2026-04-16T16:49:53.761Z</time></trkpt><trkpt lat="44.1525799" lon="12.1419299"><ele>142.0</ele><time>2026-04-16T16:49:55.76Z</time></trkpt><trkpt lat="44.1525182" lon="12.1419645"><ele>142.0</ele><time>2026-04-16T16:49:57.76Z</time></trkpt><trkpt lat="44.1524564" lon="12.1419966"><ele>142.0</ele><time>2026-04-16T16:49:59.762Z</time></trkpt><trkpt lat="44.1523952" lon="12.142035"><ele>142.0</ele><time>2026-04-16T16:50:01.763Z</time></trkpt><trkpt lat="44.1523308" lon="12.1420759"><ele>142.0</ele><time>2026-04-16T16:50:03.764Z</time></trkpt><trkpt lat="44.152269" lon="12.1421104"><ele>142.0</ele><time>2026-04-16T16:50:05.764Z</time></trkpt><trkpt lat="44.1522117" lon="12.142147"><ele>142.0</ele><time>2026-04-16T16:50:07.761Z</time></trkpt><trkpt lat="44.1521355" lon="12.1421903"><ele>142.0</ele><time>2026-04-16T16:50:10.769Z</time></trkpt><trkpt lat="44.1520715" lon="12.1422317"><ele>142.0</ele><time>2026-04-16T16:50:13.757Z</time></trkpt><trkpt lat="44.1520033" lon="12.1422262"><ele>142.0</ele><time>2026-04-16T16:50:17.754Z</time></trkpt><trkpt lat="44.1519956" lon="12.1421226"><ele>142.0</ele><time>2026-04-16T16:50:20.763Z</time></trkpt><trkpt lat="44.1519897" lon="12.1420249"><ele>142.0</ele><time>2026-04-16T16:50:22.761Z</time></trkpt><trkpt lat="44.1519797" lon="12.1419273"><ele>142.0</ele><time>2026-04-16T16:50:24.761Z</time></trkpt><trkpt lat="44.1519724" lon="12.141838"><ele>142.0</ele><time>2026-04-16T16:50:26.757Z</time></trkpt><trkpt lat="44.1519574" lon="12.1417473"><ele>142.0</ele><time>2026-04-16T16:50:28.761Z</time></trkpt><trkpt lat="44.1519395" lon="12.1416241"><ele>142.0</ele><time>2026-04-16T16:50:31.758Z</time></trkpt><trkpt lat="44.1519092" lon="12.1415072"><ele>143.66666666666669</ele><time>2026-04-16T16:50:34.758Z</time></trkpt><trkpt lat="44.1518724" lon="12.1413956"><ele>145.33333333333334</ele><time>2026-04-16T16:50:37.756Z</time></trkpt><trkpt lat="44.1518372" lon="12.1412842"><ele>147.0</ele><time>2026-04-16T16:50:40.767Z</time></trkpt><trkpt lat="44.1518072" lon="12.1411745"><ele>148.66666666666666</ele><time>2026-04-16T16:50:43.758Z</time></trkpt><trkpt lat="44.1517794" lon="12.1410657"><ele>150.33333333333331</ele><time>2026-04-16T16:50:46.755Z</time></trkpt><trkpt lat="44.1517557" lon="12.1409603"><ele>152.0</ele><time>2026-04-16T16:50:49.759Z</time></trkpt><trkpt lat="44.1517343" lon="12.1408617"><ele>152.0</ele><time>2026-04-16T16:50:52.759Z</time></trkpt><trkpt lat="44.151711" lon="12.1407667"><ele>152.0</ele><time>2026-04-16T16:50:55.759Z</time></trkpt><trkpt lat="44.1516851" lon="12.1406629"><ele>152.0</ele><time>2026-04-16T16:50:58.773Z</time></trkpt><trkpt lat="44.151659" lon="12.1405634"><ele>152.0</ele><time>2026-04-16T16:51:01.755Z</time></trkpt><trkpt lat="44.1516356" lon="12.1404552"><ele>152.0</ele><time>2026-04-16T16:51:04.755Z</time></trkpt><trkpt lat="44.15161" lon="12.1403462"><ele>152.0</ele><time>2026-04-16T16:51:07.758Z</time></trkpt><trkpt lat="44.1515969" lon="12.1402376"><ele>153.33333333333331</ele><time>2026-04-16T16:51:10.762Z</time></trkpt><trkpt lat="44.1515888" lon="12.1401244"><ele>154.66666666666666</ele><time>2026-04-16T16:51:13.746Z</time></trkpt><trkpt lat="44.1515665" lon="12.140027"><ele>156.0</ele><time>2026-04-16T16:51:16.755Z</time></trkpt><trkpt lat="44.1515477" lon="12.1399013"><ele>157.33333333333334</ele><time>2026-04-16T16:51:19.76Z</time></trkpt><trkpt lat="44.1515319" lon="12.1397784"><ele>158.66666666666669</ele><time>2026-04-16T16:51:22.76Z</time></trkpt><trkpt lat="44.1515248" lon="12.1396494"><ele>160.0</ele><time>2026-04-16T16:51:25.761Z</time></trkpt><trkpt lat="44.1515196" lon="12.1395579"><ele>160.33333333333334</ele><time>2026-04-16T16:51:27.756Z</time></trkpt><trkpt lat="44.1514958" lon="12.1394358"><ele>160.66666666666669</ele><time>2026-04-16T16:51:30.773Z</time></trkpt><trkpt lat="44.1514743" lon="12.1393506"><ele>161.0</ele><time>2026-04-16T16:51:32.755Z</time></trkpt><trkpt lat="44.1514542" lon="12.1392307"><ele>161.33333333333334</ele><time>2026-04-16T16:51:35.755Z</time></trkpt><trkpt lat="44.1514313" lon="12.139119"><ele>161.66666666666666</ele><time>2026-04-16T16:51:38.763Z</time></trkpt><trkpt lat="44.1514092" lon="12.1389913"><ele>162.0</ele><time>2026-04-16T16:51:41.753Z</time></trkpt><trkpt lat="44.1513987" lon="12.1389012"><ele>163.16666666666666</ele><time>2026-04-16T16:51:43.753Z</time></trkpt><trkpt lat="44.1513831" lon="12.1388152"><ele>164.33333333333334</ele><time>2026-04-16T16:51:45.749Z</time></trkpt><trkpt lat="44.1513682" lon="12.1387265"><ele>165.5</ele><time>2026-04-16T16:51:47.751Z</time></trkpt><trkpt lat="44.1513445" lon="12.1386068"><ele>166.66666666666669</ele><time>2026-04-16T16:51:50.772Z</time></trkpt><trkpt lat="44.1513221" lon="12.1384704"><ele>167.83333333333334</ele><time>2026-04-16T16:51:53.757Z</time></trkpt><trkpt lat="44.1513012" lon="12.1383715"><ele>169.0</ele><time>2026-04-16T16:51:55.763Z</time></trkpt><trkpt lat="44.1512899" lon="12.1382595"><ele>170.16666666666669</ele><time>2026-04-16T16:51:57.765Z</time></trkpt><trkpt lat="44.1512554" lon="12.138166"><ele>171.33333333333334</ele><time>2026-04-16T16:51:59.757Z</time></trkpt><trkpt lat="44.1512484" lon="12.1380374"><ele>172.5</ele><time>2026-04-16T16:52:01.744Z</time></trkpt><trkpt lat="44.1512357" lon="12.1379197"><ele>173.66666666666666</ele><time>2026-04-16T16:52:03.745Z</time></trkpt><trkpt lat="44.1512145" lon="12.137811"><ele>174.83333333333331</ele><time>2026-04-16T16:52:05.763Z</time></trkpt><trkpt lat="44.1512043" lon="12.1377196"><ele>176.0</ele><time>2026-04-16T16:52:07.762Z</time></trkpt><trkpt lat="44.1511941" lon="12.1376107"><ele>176.0</ele><time>2026-04-16T16:52:09.765Z</time></trkpt><trkpt lat="44.1511857" lon="12.1375102"><ele>176.0</ele><time>2026-04-16T16:52:11.759Z</time></trkpt><trkpt lat="44.1511484" lon="12.1374001"><ele>176.0</ele><time>2026-04-16T16:52:13.761Z</time></trkpt><trkpt lat="44.1510862" lon="12.1372947"><ele>176.0</ele><time>2026-04-16T16:52:15.758Z</time></trkpt><trkpt lat="44.1510069" lon="12.1371961"><ele>176.0</ele><time>2026-04-16T16:52:17.75Z</time></trkpt><trkpt lat="44.1509174" lon="12.1371096"><ele>176.20000000000002</ele><time>2026-04-16T16:52:19.742Z</time></trkpt><trkpt lat="44.1508346" lon="12.1370333"><ele>176.4</ele><time>2026-04-16T16:52:21.744Z</time></trkpt><trkpt lat="44.1507514" lon="12.1369628"><ele>176.6</ele><time>2026-04-16T16:52:23.742Z</time></trkpt><trkpt lat="44.1506694" lon="12.1368911"><ele>176.8</ele><time>2026-04-16T16:52:25.733Z</time></trkpt><trkpt lat="44.1505814" lon="12.1368054"><ele>177.0</ele><time>2026-04-16T16:52:27.738Z</time></trkpt><trkpt lat="44.1504903" lon="12.1367101"><ele>177.8</ele><time>2026-04-16T16:52:29.734Z</time></trkpt><trkpt lat="44.1504008" lon="12.1366194"><ele>178.6</ele><time>2026-04-16T16:52:31.752Z</time></trkpt><trkpt lat="44.1503108" lon="12.1365329"><ele>179.4</ele><time>2026-04-16T16:52:33.739Z</time></trkpt><trkpt lat="44.1502306" lon="12.1364594"><ele>180.20000000000002</ele><time>2026-04-16T16:52:35.74Z</time></trkpt><trkpt lat="44.1501512" lon="12.1363731"><ele>181.0</ele><time>2026-04-16T16:52:37.74Z</time></trkpt><trkpt lat="44.1500723" lon="12.1362768"><ele>181.60000000000002</ele><time>2026-04-16T16:52:39.74Z</time></trkpt><trkpt lat="44.1499947" lon="12.1361836"><ele>182.2</ele><time>2026-04-16T16:52:41.74Z</time></trkpt><trkpt lat="44.1499236" lon="12.1360881"><ele>182.8</ele><time>2026-04-16T16:52:43.742Z</time></trkpt><trkpt lat="44.1498598" lon="12.1359961"><ele>183.39999999999998</ele><time>2026-04-16T16:52:45.733Z</time></trkpt><trkpt lat="44.1497994" lon="12.1358921"><ele>184.0</ele><time>2026-04-16T16:52:47.74Z</time></trkpt><trkpt lat="44.149737" lon="12.1357872"><ele>188.0</ele><time>2026-04-16T16:52:49.742Z</time></trkpt><trkpt lat="44.1496622" lon="12.1356889"><ele>192.0</ele><time>2026-04-16T16:52:51.747Z</time></trkpt><trkpt lat="44.1495751" lon="12.1356172"><ele>196.0</ele><time>2026-04-16T16:52:53.736Z</time></trkpt><trkpt lat="44.1494871" lon="12.1355682"><ele>200.0</ele><time>2026-04-16T16:52:55.741Z</time></trkpt><trkpt lat="44.149405" lon="12.1355327"><ele>204.0</ele><time>2026-04-16T16:52:57.745Z</time></trkpt><trkpt lat="44.1493278" lon="12.1354892"><ele>204.0</ele><time>2026-04-16T16:52:59.743Z</time></trkpt><trkpt lat="44.1492611" lon="12.135449"><ele>204.0</ele><time>2026-04-16T16:53:01.74Z</time></trkpt><trkpt lat="44.1491864" lon="12.1354011"><ele>204.0</ele><time>2026-04-16T16:53:03.74Z</time></trkpt><trkpt lat="44.1491219" lon="12.1353319"><ele>204.0</ele><time>2026-04-16T16:53:05.739Z</time></trkpt><trkpt lat="44.1490461" lon="12.1352744"><ele>204.0</ele><time>2026-04-16T16:53:07.745Z</time></trkpt><trkpt lat="44.1489634" lon="12.1352407"><ele>204.0</ele><time>2026-04-16T16:53:09.742Z</time></trkpt><trkpt lat="44.1488867" lon="12.1352034"><ele>206.16666666666666</ele><time>2026-04-16T16:53:11.753Z</time></trkpt><trkpt lat="44.1488101" lon="12.1351846"><ele>208.33333333333331</ele><time>2026-04-16T16:53:13.749Z</time></trkpt><trkpt lat="44.1487327" lon="12.1351819"><ele>210.5</ele><time>2026-04-16T16:53:15.747Z</time></trkpt><trkpt lat="44.1486589" lon="12.1351817"><ele>212.66666666666666</ele><time>2026-04-16T16:53:17.747Z</time></trkpt><trkpt lat="44.1485783" lon="12.135192"><ele>214.83333333333331</ele><time>2026-04-16T16:53:19.752Z</time></trkpt><trkpt lat="44.148499" lon="12.1352052"><ele>217.0</ele><time>2026-04-16T16:53:21.753Z</time></trkpt><trkpt lat="44.1484226" lon="12.1352353"><ele>216.99999999999997</ele><time>2026-04-16T16:53:23.756Z</time></trkpt><trkpt lat="44.1483511" lon="12.1352412"><ele>217.0</ele><time>2026-04-16T16:53:25.753Z</time></trkpt><trkpt lat="44.1482762" lon="12.1352559"><ele>217.0</ele><time>2026-04-16T16:53:27.755Z</time></trkpt><trkpt lat="44.1481937" lon="12.135266"><ele>217.0</ele><time>2026-04-16T16:53:29.752Z</time></trkpt><trkpt lat="44.1481125" lon="12.13528"><ele>216.99999999999997</ele><time>2026-04-16T16:53:31.748Z</time></trkpt><trkpt lat="44.1480243" lon="12.1352915"><ele>217.0</ele><time>2026-04-16T16:53:33.745Z</time></trkpt><trkpt lat="44.1479201" lon="12.1352913"><ele>217.39999999999998</ele><time>2026-04-16T16:53:35.742Z</time></trkpt><trkpt lat="44.1478166" lon="12.1352658"><ele>217.79999999999998</ele><time>2026-04-16T16:53:37.735Z</time></trkpt><trkpt lat="44.1477117" lon="12.1352731"><ele>218.2</ele><time>2026-04-16T16:53:39.739Z</time></trkpt><trkpt lat="44.1476217" lon="12.1352775"><ele>218.6</ele><time>2026-04-16T16:53:41.735Z</time></trkpt><trkpt lat="44.1475356" lon="12.135272"><ele>219.0</ele><time>2026-04-16T16:53:43.743Z</time></trkpt><trkpt lat="44.1474696" lon="12.135267"><ele>219.0</ele><time>2026-04-16T16:53:45.745Z</time></trkpt><trkpt lat="44.1473877" lon="12.1352605"><ele>219.0</ele><time>2026-04-16T16:53:47.744Z</time></trkpt><trkpt lat="44.1473148" lon="12.1352541"><ele>219.0</ele><time>2026-04-16T16:53:49.748Z</time></trkpt><trkpt lat="44.1472368" lon="12.1352387"><ele>219.0</ele><time>2026-04-16T16:53:51.746Z</time></trkpt><trkpt lat="44.1471596" lon="12.1352128"><ele>219.0</ele><time>2026-04-16T16:53:53.746Z</time></trkpt><trkpt lat="44.1470818" lon="12.135194"><ele>219.0</ele><time>2026-04-16T16:53:55.746Z</time></trkpt><trkpt lat="44.1469854" lon="12.135175"><ele>219.0</ele><time>2026-04-16T16:53:58.745Z</time></trkpt><trkpt lat="44.1469132" lon="12.135158"><ele>219.0</ele><time>2026-04-16T16:54:00.755Z</time></trkpt><trkpt lat="44.1468348" lon="12.1351642"><ele>219.0</ele><time>2026-04-16T16:54:02.74Z</time></trkpt><trkpt lat="44.1467663" lon="12.1351882"><ele>219.0</ele><time>2026-04-16T16:54:04.746Z</time></trkpt><trkpt lat="44.1466821" lon="12.1352262"><ele>219.0</ele><time>2026-04-16T16:54:07.744Z</time></trkpt><trkpt lat="44.1465985" lon="12.1352496"><ele>219.0</ele><time>2026-04-16T16:54:10.746Z</time></trkpt><trkpt lat="44.1465236" lon="12.1352618"><ele>219.0</ele><time>2026-04-16T16:54:13.748Z</time></trkpt><trkpt lat="44.1464322" lon="12.1352802"><ele>219.0</ele><time>2026-04-16T16:54:16.745Z</time></trkpt><trkpt lat="44.146355" lon="12.1353052"><ele>219.0</ele><time>2026-04-16T16:54:19.741Z</time></trkpt><trkpt lat="44.1462758" lon="12.1353353"><ele>219.0</ele><time>2026-04-16T16:54:23.747Z</time></trkpt><trkpt lat="44.1462086" lon="12.1353537"><ele>219.0</ele><time>2026-04-16T16:54:26.746Z</time></trkpt><trkpt lat="44.1461252" lon="12.1353677"><ele>219.0</ele><time>2026-04-16T16:54:31.743Z</time></trkpt><trkpt lat="44.1460472" lon="12.1353838"><ele>219.0</ele><time>2026-04-16T16:54:33.743Z</time></trkpt><trkpt lat="44.1459664" lon="12.1354032"><ele>219.0</ele><time>2026-04-16T16:54:35.745Z</time></trkpt><trkpt lat="44.1459064" lon="12.1354861"><ele>219.0</ele><time>2026-04-16T16:54:38.756Z</time></trkpt><trkpt lat="44.1458734" lon="12.1355833"><ele>219.0</ele><time>2026-04-16T16:54:41.758Z</time></trkpt><trkpt lat="44.1459348" lon="12.1356133"><ele>219.0</ele><time>2026-04-16T16:54:46.761Z</time></trkpt><trkpt lat="44.1459396" lon="12.1355255"><ele>219.0</ele><time>2026-04-16T16:56:16.762Z</time></trkpt><trkpt lat="44.1459703" lon="12.1354342"><ele>219.0</ele><time>2026-04-16T16:56:19.756Z</time></trkpt><trkpt lat="44.1459751" lon="12.1353449"><ele>219.0</ele><time>2026-04-16T16:56:21.771Z</time></trkpt><trkpt lat="44.1459493" lon="12.135229"><ele>219.0</ele><time>2026-04-16T16:56:24.764Z</time></trkpt><trkpt lat="44.1459176" lon="12.1351341"><ele>219.0</ele><time>2026-04-16T16:56:27.76Z</time></trkpt><trkpt lat="44.1458942" lon="12.1350333"><ele>219.0</ele><time>2026-04-16T16:56:31.753Z</time></trkpt><trkpt lat="44.1458745" lon="12.1349399"><ele>219.0</ele><time>2026-04-16T16:56:34.75Z</time></trkpt><trkpt lat="44.1458567" lon="12.13485"><ele>219.0</ele><time>2026-04-16T16:56:36.751Z</time></trkpt><trkpt lat="44.145853" lon="12.1347612"><ele>219.0</ele><time>2026-04-16T16:56:38.777Z</time></trkpt><trkpt lat="44.1458922" lon="12.1346609"><ele>219.14285714285714</ele><time>2026-04-16T16:56:41.765Z</time></trkpt><trkpt lat="44.1459621" lon="12.1346719"><ele>219.28571428571428</ele><time>2026-04-16T16:56:44.763Z</time></trkpt><trkpt lat="44.1460212" lon="12.134703"><ele>219.42857142857142</ele><time>2026-04-16T16:56:46.768Z</time></trkpt><trkpt lat="44.1460891" lon="12.1347334"><ele>219.57142857142856</ele><time>2026-04-16T16:56:48.77Z</time></trkpt><trkpt lat="44.146158" lon="12.1347587"><ele>219.71428571428572</ele><time>2026-04-16T16:56:50.774Z</time></trkpt><trkpt lat="44.1462306" lon="12.1347743"><ele>219.85714285714283</ele><time>2026-04-16T16:56:52.766Z</time></trkpt><trkpt lat="44.1463212" lon="12.1348009"><ele>220.0</ele><time>2026-04-16T16:56:55.767Z</time></trkpt><trkpt lat="44.1464115" lon="12.1348206"><ele>219.99999999999997</ele><time>2026-04-16T16:56:58.772Z</time></trkpt><trkpt lat="44.1464995" lon="12.134835"><ele>220.0</ele><time>2026-04-16T16:57:01.769Z</time></trkpt><trkpt lat="44.1465889" lon="12.1348022"><ele>220.0</ele><time>2026-04-16T16:57:04.764Z</time></trkpt><trkpt lat="44.1466616" lon="12.1347412"><ele>220.0</ele><time>2026-04-16T16:57:07.772Z</time></trkpt><trkpt lat="44.1467236" lon="12.1346984"><ele>219.99999999999997</ele><time>2026-04-16T16:57:11.779Z</time></trkpt><trkpt lat="44.1468118" lon="12.1346961"><ele>220.0</ele><time>2026-04-16T16:57:17.76Z</time></trkpt><trkpt lat="44.1468761" lon="12.1346708"><ele>223.83333333333331</ele><time>2026-04-16T16:57:19.761Z</time></trkpt><trkpt lat="44.1469475" lon="12.1346526"><ele>227.66666666666666</ele><time>2026-04-16T16:57:21.769Z</time></trkpt><trkpt lat="44.147029" lon="12.134632"><ele>231.5</ele><time>2026-04-16T16:57:23.765Z</time></trkpt><trkpt lat="44.1471116" lon="12.1346022"><ele>235.33333333333331</ele><time>2026-04-16T16:57:25.763Z</time></trkpt><trkpt lat="44.1471925" lon="12.1345823"><ele>239.16666666666666</ele><time>2026-04-16T16:57:27.761Z</time></trkpt><trkpt lat="44.1472707" lon="12.134555"><ele>243.0</ele><time>2026-04-16T16:57:29.761Z</time></trkpt><trkpt lat="44.147349" lon="12.1345445"><ele>244.66666666666666</ele><time>2026-04-16T16:57:31.759Z</time></trkpt><trkpt lat="44.1474386" lon="12.1345454"><ele>246.33333333333331</ele><time>2026-04-16T16:57:33.764Z</time></trkpt><trkpt lat="44.1475462" lon="12.1345289"><ele>248.0</ele><time>2026-04-16T16:57:35.76Z</time></trkpt><trkpt lat="44.1476135" lon="12.1345327"><ele>249.66666666666666</ele><time>2026-04-16T16:57:36.766Z</time></trkpt><trkpt lat="44.1477233" lon="12.1345282"><ele>251.33333333333331</ele><time>2026-04-16T16:57:38.763Z</time></trkpt><trkpt lat="44.1477956" lon="12.1345427"><ele>253.0</ele><time>2026-04-16T16:57:40.764Z</time></trkpt><trkpt lat="44.1478665" lon="12.1345138"><ele>253.00000000000003</ele><time>2026-04-16T16:57:42.763Z</time></trkpt><trkpt lat="44.1479387" lon="12.134496"><ele>253.0</ele><time>2026-04-16T16:57:47.759Z</time></trkpt><trkpt lat="44.1480023" lon="12.1345639"><ele>253.00000000000003</ele><time>2026-04-16T16:57:50.757Z</time></trkpt><trkpt lat="44.1480692" lon="12.1346067"><ele>253.00000000000003</ele><time>2026-04-16T16:57:52.76Z</time></trkpt><trkpt lat="44.1481438" lon="12.1346175"><ele>253.0</ele><time>2026-04-16T16:57:54.765Z</time></trkpt><trkpt lat="44.1482205" lon="12.1346252"><ele>253.00000000000003</ele><time>2026-04-16T16:57:56.763Z</time></trkpt><trkpt lat="44.1482863" lon="12.134628"><ele>253.00000000000003</ele><time>2026-04-16T16:57:58.763Z</time></trkpt><trkpt lat="44.1483609" lon="12.1346157"><ele>251.99999999999997</ele><time>2026-04-16T16:58:01.757Z</time></trkpt><trkpt lat="44.1484208" lon="12.1345846"><ele>251.0</ele><time>2026-04-16T16:58:05.767Z</time></trkpt><trkpt lat="44.1484881" lon="12.134601"><ele>250.0</ele><time>2026-04-16T16:58:08.756Z</time></trkpt><trkpt lat="44.1485543" lon="12.1346105"><ele>249.0</ele><time>2026-04-16T16:58:10.765Z</time></trkpt><trkpt lat="44.1486348" lon="12.1345922"><ele>247.99999999999997</ele><time>2026-04-16T16:58:12.753Z</time></trkpt><trkpt lat="44.1487189" lon="12.1345814"><ele>247.0</ele><time>2026-04-16T16:58:14.761Z</time></trkpt><trkpt lat="44.1488018" lon="12.1345381"><ele>246.99999999999997</ele><time>2026-04-16T16:58:16.765Z</time></trkpt><trkpt lat="44.1488725" lon="12.1344931"><ele>247.0</ele><time>2026-04-16T16:58:18.76Z</time></trkpt><trkpt lat="44.1489348" lon="12.1344115"><ele>247.0</ele><time>2026-04-16T16:58:20.753Z</time></trkpt><trkpt lat="44.1489866" lon="12.1343303"><ele>247.0</ele><time>2026-04-16T16:58:22.754Z</time></trkpt><trkpt lat="44.1490249" lon="12.1342537"><ele>246.99999999999997</ele><time>2026-04-16T16:58:24.772Z</time></trkpt><trkpt lat="44.1490818" lon="12.1341741"><ele>247.0</ele><time>2026-04-16T16:58:27.765Z</time></trkpt><trkpt lat="44.1491071" lon="12.1340491"><ele>246.42857142857144</ele><time>2026-04-16T16:58:30.766Z</time></trkpt><trkpt lat="44.1491351" lon="12.1339689"><ele>245.85714285714283</ele><time>2026-04-16T16:58:32.761Z</time></trkpt><trkpt lat="44.1491548" lon="12.1338801"><ele>245.28571428571428</ele><time>2026-04-16T16:58:34.754Z</time></trkpt><trkpt lat="44.1491754" lon="12.1337964"><ele>244.71428571428572</ele><time>2026-04-16T16:58:36.759Z</time></trkpt><trkpt lat="44.1492198" lon="12.1336916"><ele>244.14285714285717</ele><time>2026-04-16T16:58:39.762Z</time></trkpt><trkpt lat="44.1492658" lon="12.1335947"><ele>243.57142857142856</ele><time>2026-04-16T16:58:42.771Z</time></trkpt><trkpt lat="44.1492897" lon="12.1335008"><ele>243.0</ele><time>2026-04-16T16:58:45.762Z</time></trkpt><trkpt lat="44.1493155" lon="12.133417"><ele>243.0</ele><time>2026-04-16T16:58:48.764Z</time></trkpt><trkpt lat="44.1493862" lon="12.1334167"><ele>243.0</ele><time>2026-04-16T16:58:53.762Z</time></trkpt><trkpt lat="44.1493721" lon="12.1335256"><ele>243.0</ele><time>2026-04-16T16:58:57.767Z</time></trkpt><trkpt lat="44.1493703" lon="12.1336343"><ele>243.0</ele><time>2026-04-16T16:59:00.771Z</time></trkpt><trkpt lat="44.1493616" lon="12.133536"><ele>243.0</ele><time>2026-04-16T16:59:41.76Z</time></trkpt><trkpt lat="44.1493536" lon="12.1334353"><ele>243.0</ele><time>2026-04-16T16:59:47.759Z</time></trkpt><trkpt lat="44.1493635" lon="12.1333475"><ele>243.0</ele><time>2026-04-16T16:59:49.762Z</time></trkpt><trkpt lat="44.1493949" lon="12.1332681"><ele>243.0</ele><time>2026-04-16T16:59:51.752Z</time></trkpt><trkpt lat="44.1494692" lon="12.1332472"><ele>243.0</ele><time>2026-04-16T16:59:53.759Z</time></trkpt><trkpt lat="44.1495641" lon="12.1331356"><ele>243.0</ele><time>2026-04-16T16:59:55.738Z</time></trkpt><trkpt lat="44.1496101" lon="12.1330696"><ele>243.0</ele><time>2026-04-16T16:59:56.718Z</time></trkpt><trkpt lat="44.1496558" lon="12.1329964"><ele>243.0</ele><time>2026-04-16T16:59:57.724Z</time></trkpt><trkpt lat="44.1497016" lon="12.1329194"><ele>243.0</ele><time>2026-04-16T16:59:58.724Z</time></trkpt><trkpt lat="44.1497585" lon="12.1327813"><ele>244.2</ele><time>2026-04-16T17:00:00.725Z</time></trkpt><trkpt lat="44.1498122" lon="12.1326887"><ele>245.4</ele><time>2026-04-16T17:00:02.733Z</time></trkpt><trkpt lat="44.1498885" lon="12.1326093"><ele>246.59999999999997</ele><time>2026-04-16T17:00:04.725Z</time></trkpt><trkpt lat="44.1499664" lon="12.1325101"><ele>247.79999999999998</ele><time>2026-04-16T17:00:06.726Z</time></trkpt><trkpt lat="44.1500529" lon="12.1324349"><ele>249.0</ele><time>2026-04-16T17:00:08.737Z</time></trkpt><trkpt lat="44.1501319" lon="12.1323753"><ele>244.2</ele><time>2026-04-16T17:00:10.746Z</time></trkpt><trkpt lat="44.1501976" lon="12.1323201"><ele>239.39999999999998</ele><time>2026-04-16T17:00:12.759Z</time></trkpt><trkpt lat="44.1502602" lon="12.1322242"><ele>234.6</ele><time>2026-04-16T17:00:14.762Z</time></trkpt><trkpt lat="44.150355" lon="12.1321124"><ele>229.8</ele><time>2026-04-16T17:00:16.754Z</time></trkpt><trkpt lat="44.1504087" lon="12.1320418"><ele>225.0</ele><time>2026-04-16T17:00:17.746Z</time></trkpt><trkpt lat="44.1504724" lon="12.1319692"><ele>225.0</ele><time>2026-04-16T17:00:18.748Z</time></trkpt><trkpt lat="44.1505312" lon="12.1319054"><ele>225.0</ele><time>2026-04-16T17:00:19.746Z</time></trkpt><trkpt lat="44.1505981" lon="12.1318522"><ele>225.0</ele><time>2026-04-16T17:00:20.743Z</time></trkpt><trkpt lat="44.1506655" lon="12.1317972"><ele>225.0</ele><time>2026-04-16T17:00:21.751Z</time></trkpt><trkpt lat="44.150739" lon="12.1317567"><ele>225.0</ele><time>2026-04-16T17:00:22.747Z</time></trkpt><trkpt lat="44.1508095" lon="12.131717"><ele>225.0</ele><time>2026-04-16T17:00:23.75Z</time></trkpt><trkpt lat="44.1508765" lon="12.1316696"><ele>221.5714285714286</ele><time>2026-04-16T17:00:24.755Z</time></trkpt><trkpt lat="44.1509509" lon="12.1316241"><ele>218.14285714285717</ele><time>2026-04-16T17:00:25.754Z</time></trkpt><trkpt lat="44.15102" lon="12.1315775"><ele>214.71428571428572</ele><time>2026-04-16T17:00:26.755Z</time></trkpt><trkpt lat="44.1510896" lon="12.131552"><ele>211.2857142857143</ele><time>2026-04-16T17:00:27.753Z</time></trkpt><trkpt lat="44.1511606" lon="12.1315401"><ele>207.8571428571429</ele><time>2026-04-16T17:00:28.751Z</time></trkpt><trkpt lat="44.1512337" lon="12.1315396"><ele>204.42857142857142</ele><time>2026-04-16T17:00:29.752Z</time></trkpt><trkpt lat="44.1513016" lon="12.1315398"><ele>201.0</ele><time>2026-04-16T17:00:30.752Z</time></trkpt><trkpt lat="44.1513659" lon="12.1315269"><ele>199.5</ele><time>2026-04-16T17:00:31.748Z</time></trkpt><trkpt lat="44.1514314" lon="12.1315002"><ele>198.0</ele><time>2026-04-16T17:00:32.75Z</time></trkpt><trkpt lat="44.1514928" lon="12.1314746"><ele>196.5</ele><time>2026-04-16T17:00:33.75Z</time></trkpt><trkpt lat="44.1515954" lon="12.1314112"><ele>195.0</ele><time>2026-04-16T17:00:35.76Z</time></trkpt><trkpt lat="44.151567" lon="12.131288"><ele>193.5</ele><time>2026-04-16T17:00:37.767Z</time></trkpt><trkpt lat="44.151519" lon="12.1312274"><ele>192.0</ele><time>2026-04-16T17:00:38.766Z</time></trkpt><trkpt lat="44.151491" lon="12.1310979"><ele>191.99999999999997</ele><time>2026-04-16T17:00:40.753Z</time></trkpt><trkpt lat="44.1514638" lon="12.1309938"><ele>192.0</ele><time>2026-04-16T17:01:25.779Z</time></trkpt><trkpt lat="44.1514673" lon="12.1308966"><ele>192.0</ele><time>2026-04-16T17:01:28.758Z</time></trkpt><trkpt lat="44.1514759" lon="12.130797"><ele>192.0</ele><time>2026-04-16T17:01:31.748Z</time></trkpt><trkpt lat="44.1514531" lon="12.1306766"><ele>192.0</ele><time>2026-04-16T17:01:34.755Z</time></trkpt><trkpt lat="44.1514318" lon="12.1305918"><ele>191.99999999999997</ele><time>2026-04-16T17:01:37.762Z</time></trkpt><trkpt lat="44.1514458" lon="12.1305056"><ele>192.0</ele><time>2026-04-16T17:01:40.764Z</time></trkpt><trkpt lat="44.1514375" lon="12.1304072"><ele>189.66666666666666</ele><time>2026-04-16T17:01:44.759Z</time></trkpt><trkpt lat="44.1514209" lon="12.1303161"><ele>187.33333333333334</ele><time>2026-04-16T17:01:49.771Z</time></trkpt><trkpt lat="44.151422" lon="12.1302048"><ele>185.0</ele><time>2026-04-16T17:01:53.761Z</time></trkpt><trkpt lat="44.1513954" lon="12.1300923"><ele>182.66666666666669</ele><time>2026-04-16T17:01:56.764Z</time></trkpt><trkpt lat="44.1513255" lon="12.1300299"><ele>180.33333333333334</ele><time>2026-04-16T17:02:00.766Z</time></trkpt><trkpt lat="44.1512723" lon="12.1299702"><ele>178.0</ele><time>2026-04-16T17:02:05.765Z</time></trkpt><trkpt lat="44.1512666" lon="12.1298725"><ele>175.7142857142857</ele><time>2026-04-16T17:02:10.763Z</time></trkpt><trkpt lat="44.1512307" lon="12.1297766"><ele>173.42857142857142</ele><time>2026-04-16T17:02:16.771Z</time></trkpt><trkpt lat="44.151186" lon="12.1297038"><ele>171.14285714285714</ele><time>2026-04-16T17:02:19.796Z</time></trkpt><trkpt lat="44.1511458" lon="12.1296222"><ele>168.85714285714283</ele><time>2026-04-16T17:02:22.768Z</time></trkpt><trkpt lat="44.1511209" lon="12.1295295"><ele>166.57142857142856</ele><time>2026-04-16T17:02:25.757Z</time></trkpt><trkpt lat="44.1510692" lon="12.1294731"><ele>164.28571428571428</ele><time>2026-04-16T17:02:27.775Z</time></trkpt><trkpt lat="44.1510233" lon="12.1293854"><ele>162.0</ele><time>2026-04-16T17:02:29.768Z</time></trkpt><trkpt lat="44.1509824" lon="12.1292857"><ele>162.0</ele><time>2026-04-16T17:02:31.766Z</time></trkpt><trkpt lat="44.1509298" lon="12.1291994"><ele>162.0</ele><time>2026-04-16T17:02:33.764Z</time></trkpt><trkpt lat="44.15088" lon="12.1291108"><ele>162.0</ele><time>2026-04-16T17:02:35.759Z</time></trkpt><trkpt lat="44.1508397" lon="12.1290105"><ele>162.0</ele><time>2026-04-16T17:02:37.761Z</time></trkpt><trkpt lat="44.1508046" lon="12.1289287"><ele>162.0</ele><time>2026-04-16T17:02:39.762Z</time></trkpt><trkpt lat="44.1507498" lon="12.1288448"><ele>162.0</ele><time>2026-04-16T17:02:42.779Z</time></trkpt><trkpt lat="44.1507445" lon="12.1287017"><ele>159.57142857142858</ele><time>2026-04-16T17:03:35.774Z</time></trkpt><trkpt lat="44.1508014" lon="12.1287586"><ele>157.14285714285714</ele><time>2026-04-16T17:03:39.767Z</time></trkpt><trkpt lat="44.1508692" lon="12.1287591"><ele>154.71428571428572</ele><time>2026-04-16T17:03:52.761Z</time></trkpt><trkpt lat="44.1509457" lon="12.128785"><ele>152.28571428571428</ele><time>2026-04-16T17:03:55.752Z</time></trkpt><trkpt lat="44.1510218" lon="12.1287639"><ele>149.85714285714286</ele><time>2026-04-16T17:03:58.752Z</time></trkpt><trkpt lat="44.1510942" lon="12.1287627"><ele>147.42857142857144</ele><time>2026-04-16T17:04:01.765Z</time></trkpt><trkpt lat="44.1511222" lon="12.1288563"><ele>145.0</ele><time>2026-04-16T17:04:04.763Z</time></trkpt><trkpt lat="44.1511841" lon="12.1289199"><ele>145.0</ele><time>2026-04-16T17:04:07.771Z</time></trkpt><trkpt lat="44.1512674" lon="12.1289399"><ele>145.0</ele><time>2026-04-16T17:04:09.76Z</time></trkpt><trkpt lat="44.1513087" lon="12.1290079"><ele>145.0</ele><time>2026-04-16T17:04:11.77Z</time></trkpt><trkpt lat="44.1513353" lon="12.1290893"><ele>145.0</ele><time>2026-04-16T17:04:13.764Z</time></trkpt><trkpt lat="44.1513699" lon="12.1292001"><ele>145.0</ele><time>2026-04-16T17:04:16.771Z</time></trkpt><trkpt lat="44.1514004" lon="12.1292845"><ele>145.0</ele><time>2026-04-16T17:04:19.763Z</time></trkpt><trkpt lat="44.1514259" lon="12.1293686"><ele>145.0</ele><time>2026-04-16T17:04:23.767Z</time></trkpt><trkpt lat="44.1514702" lon="12.1294623"><ele>143.71428571428572</ele><time>2026-04-16T17:04:27.761Z</time></trkpt><trkpt lat="44.1514906" lon="12.12955"><ele>142.42857142857144</ele><time>2026-04-16T17:04:43.75Z</time></trkpt><trkpt lat="44.1515306" lon="12.1296682"><ele>141.14285714285714</ele><time>2026-04-16T17:04:46.744Z</time></trkpt><trkpt lat="44.1515541" lon="12.1297526"><ele>139.85714285714286</ele><time>2026-04-16T17:04:48.74Z</time></trkpt><trkpt lat="44.1515758" lon="12.1298453"><ele>138.57142857142856</ele><time>2026-04-16T17:04:50.746Z</time></trkpt><trkpt lat="44.1516022" lon="12.1299341"><ele>137.28571428571428</ele><time>2026-04-16T17:04:52.746Z</time></trkpt><trkpt lat="44.151625" lon="12.1300224"><ele>136.0</ele><time>2026-04-16T17:04:54.753Z</time></trkpt><trkpt lat="44.1516498" lon="12.1301128"><ele>139.16666666666669</ele><time>2026-04-16T17:04:56.754Z</time></trkpt><trkpt lat="44.1516743" lon="12.1302018"><ele>142.33333333333334</ele><time>2026-04-16T17:04:58.759Z</time></trkpt><trkpt lat="44.1517007" lon="12.1302859"><ele>145.5</ele><time>2026-04-16T17:05:00.76Z</time></trkpt><trkpt lat="44.1517195" lon="12.1304163"><ele>148.66666666666666</ele><time>2026-04-16T17:05:03.755Z</time></trkpt><trkpt lat="44.1517356" lon="12.1305165"><ele>151.83333333333331</ele><time>2026-04-16T17:05:05.751Z</time></trkpt><trkpt lat="44.1517414" lon="12.1306171"><ele>155.0</ele><time>2026-04-16T17:05:07.745Z</time></trkpt><trkpt lat="44.1517446" lon="12.1307501"><ele>157.57142857142858</ele><time>2026-04-16T17:05:10.748Z</time></trkpt><trkpt lat="44.1517534" lon="12.130851"><ele>160.14285714285714</ele><time>2026-04-16T17:05:12.753Z</time></trkpt><trkpt lat="44.151765" lon="12.1309435"><ele>162.71428571428572</ele><time>2026-04-16T17:05:14.754Z</time></trkpt><trkpt lat="44.1517837" lon="12.1310421"><ele>165.28571428571428</ele><time>2026-04-16T17:05:16.751Z</time></trkpt><trkpt lat="44.1518087" lon="12.1311394"><ele>167.85714285714286</ele><time>2026-04-16T17:05:18.752Z</time></trkpt><trkpt lat="44.1518348" lon="12.131226"><ele>170.42857142857142</ele><time>2026-04-16T17:05:20.759Z</time></trkpt><trkpt lat="44.1518696" lon="12.1313134"><ele>173.0</ele><time>2026-04-16T17:05:22.752Z</time></trkpt><trkpt lat="44.1518934" lon="12.1313947"><ele>173.0</ele><time>2026-04-16T17:05:24.766Z</time></trkpt><trkpt lat="44.1519131" lon="12.1314811"><ele>173.0</ele><time>2026-04-16T17:05:26.748Z</time></trkpt><trkpt lat="44.1519262" lon="12.131575"><ele>173.0</ele><time>2026-04-16T17:05:28.754Z</time></trkpt><trkpt lat="44.151918" lon="12.1316817"><ele>173.0</ele><time>2026-04-16T17:05:30.757Z</time></trkpt><trkpt lat="44.1519013" lon="12.131787"><ele>173.0</ele><time>2026-04-16T17:05:32.757Z</time></trkpt><trkpt lat="44.1518619" lon="12.1318625"><ele>173.0</ele><time>2026-04-16T17:05:34.756Z</time></trkpt><trkpt lat="44.1518166" lon="12.1319338"><ele>173.0</ele><time>2026-04-16T17:05:36.754Z</time></trkpt><trkpt lat="44.1517703" lon="12.1320105"><ele>172.33333333333331</ele><time>2026-04-16T17:05:38.766Z</time></trkpt><trkpt lat="44.1517338" lon="12.1320861"><ele>171.66666666666666</ele><time>2026-04-16T17:05:40.757Z</time></trkpt><trkpt lat="44.1517097" lon="12.1321841"><ele>171.0</ele><time>2026-04-16T17:05:42.755Z</time></trkpt><trkpt lat="44.1516963" lon="12.1322857"><ele>170.33333333333334</ele><time>2026-04-16T17:05:44.753Z</time></trkpt><trkpt lat="44.1516639" lon="12.1324144"><ele>169.66666666666669</ele><time>2026-04-16T17:05:46.756Z</time></trkpt><trkpt lat="44.1516411" lon="12.1325518"><ele>169.0</ele><time>2026-04-16T17:05:48.758Z</time></trkpt><trkpt lat="44.1516134" lon="12.1326975"><ele>169.0</ele><time>2026-04-16T17:05:50.754Z</time></trkpt><trkpt lat="44.1515857" lon="12.1327772"><ele>169.0</ele><time>2026-04-16T17:05:51.75Z</time></trkpt><trkpt lat="44.1515521" lon="12.1329438"><ele>169.0</ele><time>2026-04-16T17:05:53.757Z</time></trkpt><trkpt lat="44.1516414" lon="12.1329549"><ele>169.0</ele><time>2026-04-16T17:05:56.755Z</time></trkpt><trkpt lat="44.1517033" lon="12.1328518"><ele>169.0</ele><time>2026-04-16T17:05:58.751Z</time></trkpt><trkpt lat="44.1517723" lon="12.1327101"><ele>169.0</ele><time>2026-04-16T17:06:00.745Z</time></trkpt><trkpt lat="44.1518084" lon="12.1326278"><ele>169.0</ele><time>2026-04-16T17:06:01.748Z</time></trkpt><trkpt lat="44.1518423" lon="12.1325293"><ele>169.0</ele><time>2026-04-16T17:06:02.741Z</time></trkpt><trkpt lat="44.1518826" lon="12.132428"><ele>169.0</ele><time>2026-04-16T17:06:03.747Z</time></trkpt><trkpt lat="44.1519388" lon="12.1323292"><ele>169.0</ele><time>2026-04-16T17:06:04.746Z</time></trkpt><trkpt lat="44.1520089" lon="12.1322457"><ele>169.0</ele><time>2026-04-16T17:06:05.739Z</time></trkpt><trkpt lat="44.1520957" lon="12.1321834"><ele>170.79999999999998</ele><time>2026-04-16T17:06:06.739Z</time></trkpt><trkpt lat="44.1521956" lon="12.1321348"><ele>172.6</ele><time>2026-04-16T17:06:07.735Z</time></trkpt><trkpt lat="44.1523039" lon="12.1321018"><ele>174.4</ele><time>2026-04-16T17:06:08.741Z</time></trkpt><trkpt lat="44.1524109" lon="12.1320646"><ele>176.2</ele><time>2026-04-16T17:06:09.741Z</time></trkpt><trkpt lat="44.1525101" lon="12.1320156"><ele>178.0</ele><time>2026-04-16T17:06:10.744Z</time></trkpt><trkpt lat="44.1526019" lon="12.1319445"><ele>171.5</ele><time>2026-04-16T17:06:11.744Z</time></trkpt><trkpt lat="44.1526822" lon="12.1318501"><ele>165.0</ele><time>2026-04-16T17:06:12.749Z</time></trkpt><trkpt lat="44.1527556" lon="12.1317247"><ele>158.5</ele><time>2026-04-16T17:06:13.737Z</time></trkpt><trkpt lat="44.1528261" lon="12.1315972"><ele>152.0</ele><time>2026-04-16T17:06:14.75Z</time></trkpt><trkpt lat="44.1528959" lon="12.1314661"><ele>151.2</ele><time>2026-04-16T17:06:15.752Z</time></trkpt><trkpt lat="44.1529675" lon="12.1313401"><ele>150.39999999999998</ele><time>2026-04-16T17:06:16.749Z</time></trkpt><trkpt lat="44.1530378" lon="12.131218"><ele>149.60000000000002</ele><time>2026-04-16T17:06:17.753Z</time></trkpt><trkpt lat="44.1531084" lon="12.1311015"><ele>148.8</ele><time>2026-04-16T17:06:18.752Z</time></trkpt><trkpt lat="44.1531854" lon="12.1309904"><ele>148.0</ele><time>2026-04-16T17:06:19.752Z</time></trkpt><trkpt lat="44.1532672" lon="12.1308854"><ele>144.25</ele><time>2026-04-16T17:06:20.758Z</time></trkpt><trkpt lat="44.1533567" lon="12.1307907"><ele>140.5</ele><time>2026-04-16T17:06:21.765Z</time></trkpt><trkpt lat="44.15345" lon="12.1306994"><ele>136.75</ele><time>2026-04-16T17:06:22.745Z</time></trkpt><trkpt lat="44.1535409" lon="12.1306009"><ele>133.0</ele><time>2026-04-16T17:06:23.768Z</time></trkpt><trkpt lat="44.1536382" lon="12.1305134"><ele>132.20000000000002</ele><time>2026-04-16T17:06:24.759Z</time></trkpt><trkpt lat="44.1537302" lon="12.1304308"><ele>131.4</ele><time>2026-04-16T17:06:25.756Z</time></trkpt><trkpt lat="44.1538207" lon="12.1303512"><ele>130.60000000000002</ele><time>2026-04-16T17:06:26.77Z</time></trkpt><trkpt lat="44.1539195" lon="12.1302863"><ele>129.8</ele><time>2026-04-16T17:06:27.748Z</time></trkpt><trkpt lat="44.1540125" lon="12.1302264"><ele>129.0</ele><time>2026-04-16T17:06:28.753Z</time></trkpt><trkpt lat="44.1541043" lon="12.1301818"><ele>127.5</ele><time>2026-04-16T17:06:29.757Z</time></trkpt><trkpt lat="44.154191" lon="12.1301506"><ele>126.0</ele><time>2026-04-16T17:06:30.776Z</time></trkpt><trkpt lat="44.1542736" lon="12.1301145"><ele>124.5</ele><time>2026-04-16T17:06:31.76Z</time></trkpt><trkpt lat="44.1543477" lon="12.130079"><ele>123.0</ele><time>2026-04-16T17:06:32.768Z</time></trkpt><trkpt lat="44.1544175" lon="12.1300224"><ele>121.5</ele><time>2026-04-16T17:06:33.765Z</time></trkpt><trkpt lat="44.1544818" lon="12.1299667"><ele>120.0</ele><time>2026-04-16T17:06:34.765Z</time></trkpt><trkpt lat="44.1545504" lon="12.1299223"><ele>119.5</ele><time>2026-04-16T17:06:35.767Z</time></trkpt><trkpt lat="44.1546238" lon="12.1298743"><ele>119.0</ele><time>2026-04-16T17:06:36.769Z</time></trkpt><trkpt lat="44.1546998" lon="12.1298261"><ele>118.5</ele><time>2026-04-16T17:06:37.768Z</time></trkpt><trkpt lat="44.1547785" lon="12.129779"><ele>118.0</ele><time>2026-04-16T17:06:38.77Z</time></trkpt><trkpt lat="44.1548536" lon="12.1297395"><ele>117.5</ele><time>2026-04-16T17:06:39.767Z</time></trkpt><trkpt lat="44.1549268" lon="12.1296968"><ele>117.0</ele><time>2026-04-16T17:06:40.766Z</time></trkpt><trkpt lat="44.154996" lon="12.1296577"><ele>117.0</ele><time>2026-04-16T17:06:41.773Z</time></trkpt><trkpt lat="44.155067" lon="12.1296187"><ele>117.00000000000001</ele><time>2026-04-16T17:06:42.772Z</time></trkpt><trkpt lat="44.1551337" lon="12.1295819"><ele>117.0</ele><time>2026-04-16T17:06:43.766Z</time></trkpt><trkpt lat="44.1551995" lon="12.12955"><ele>117.0</ele><time>2026-04-16T17:06:44.773Z</time></trkpt><trkpt lat="44.1552616" lon="12.1295193"><ele>117.00000000000001</ele><time>2026-04-16T17:06:45.765Z</time></trkpt><trkpt lat="44.1553226" lon="12.1294921"><ele>117.0</ele><time>2026-04-16T17:06:46.776Z</time></trkpt><trkpt lat="44.1553848" lon="12.1294672"><ele>117.0</ele><time>2026-04-16T17:06:47.765Z</time></trkpt><trkpt lat="44.1555022" lon="12.1294202"><ele>117.0</ele><time>2026-04-16T17:06:49.766Z</time></trkpt><trkpt lat="44.1555637" lon="12.1293934"><ele>116.99999999999999</ele><time>2026-04-16T17:06:50.766Z</time></trkpt><trkpt lat="44.1556777" lon="12.1293398"><ele>116.99999999999999</ele><time>2026-04-16T17:06:52.766Z</time></trkpt><trkpt lat="44.155794" lon="12.1292828"><ele>117.0</ele><time>2026-04-16T17:06:54.765Z</time></trkpt><trkpt lat="44.1559079" lon="12.129232"><ele>117.0</ele><time>2026-04-16T17:06:56.767Z</time></trkpt><trkpt lat="44.1560249" lon="12.1291833"><ele>117.39999999999999</ele><time>2026-04-16T17:06:58.772Z</time></trkpt><trkpt lat="44.156146" lon="12.1291429"><ele>117.79999999999998</ele><time>2026-04-16T17:07:00.775Z</time></trkpt><trkpt lat="44.1562071" lon="12.1291206"><ele>118.2</ele><time>2026-04-16T17:07:01.76Z</time></trkpt><trkpt lat="44.1563265" lon="12.1290846"><ele>118.6</ele><time>2026-04-16T17:07:03.765Z</time></trkpt><trkpt lat="44.1564389" lon="12.129061"><ele>119.0</ele><time>2026-04-16T17:07:05.767Z</time></trkpt><trkpt lat="44.1565636" lon="12.1290363"><ele>119.42857142857143</ele><time>2026-04-16T17:07:07.764Z</time></trkpt><trkpt lat="44.1566261" lon="12.1290254"><ele>119.85714285714286</ele><time>2026-04-16T17:07:08.767Z</time></trkpt><trkpt lat="44.1566891" lon="12.1290152"><ele>120.28571428571428</ele><time>2026-04-16T17:07:09.764Z</time></trkpt><trkpt lat="44.1567533" lon="12.129003"><ele>120.71428571428571</ele><time>2026-04-16T17:07:10.767Z</time></trkpt><trkpt lat="44.1568169" lon="12.1289867"><ele>121.14285714285714</ele><time>2026-04-16T17:07:11.768Z</time></trkpt><trkpt lat="44.1569379" lon="12.1289525"><ele>121.57142857142856</ele><time>2026-04-16T17:07:13.766Z</time></trkpt><trkpt lat="44.1570001" lon="12.1289344"><ele>121.99999999999999</ele><time>2026-04-16T17:07:14.768Z</time></trkpt><trkpt lat="44.1570676" lon="12.1289174"><ele>121.99999999999999</ele><time>2026-04-16T17:07:15.773Z</time></trkpt><trkpt lat="44.1571346" lon="12.1288972"><ele>122.0</ele><time>2026-04-16T17:07:16.77Z</time></trkpt><trkpt lat="44.1572033" lon="12.1288739"><ele>122.0</ele><time>2026-04-16T17:07:17.766Z</time></trkpt><trkpt lat="44.1572709" lon="12.1288466"><ele>122.0</ele><time>2026-04-16T17:07:18.768Z</time></trkpt><trkpt lat="44.1573426" lon="12.1288147"><ele>121.99999999999999</ele><time>2026-04-16T17:07:19.763Z</time></trkpt><trkpt lat="44.1574176" lon="12.1287691"><ele>122.0</ele><time>2026-04-16T17:07:20.767Z</time></trkpt><trkpt lat="44.1575019" lon="12.1287182"><ele>121.0</ele><time>2026-04-16T17:07:21.768Z</time></trkpt><trkpt lat="44.1575888" lon="12.1286632"><ele>119.99999999999999</ele><time>2026-04-16T17:07:22.765Z</time></trkpt><trkpt lat="44.1576773" lon="12.1286058"><ele>118.99999999999999</ele><time>2026-04-16T17:07:23.764Z</time></trkpt><trkpt lat="44.1577681" lon="12.1285451"><ele>118.0</ele><time>2026-04-16T17:07:24.758Z</time></trkpt><trkpt lat="44.1578624" lon="12.1284795"><ele>117.0</ele><time>2026-04-16T17:07:25.757Z</time></trkpt><trkpt lat="44.1579559" lon="12.1284113"><ele>117.0</ele><time>2026-04-16T17:07:26.757Z</time></trkpt><trkpt lat="44.1580521" lon="12.1283375"><ele>116.99999999999999</ele><time>2026-04-16T17:07:27.777Z</time></trkpt><trkpt lat="44.1581483" lon="12.1282613"><ele>116.99999999999999</ele><time>2026-04-16T17:07:28.761Z</time></trkpt><trkpt lat="44.1582461" lon="12.1281854"><ele>117.0</ele><time>2026-04-16T17:07:29.758Z</time></trkpt><trkpt lat="44.1583449" lon="12.128112"><ele>117.0</ele><time>2026-04-16T17:07:30.772Z</time></trkpt><trkpt lat="44.1584426" lon="12.128042"><ele>115.19999999999999</ele><time>2026-04-16T17:07:31.759Z</time></trkpt><trkpt lat="44.15854" lon="12.1279705"><ele>113.39999999999999</ele><time>2026-04-16T17:07:32.767Z</time></trkpt><trkpt lat="44.1586345" lon="12.1278982"><ele>111.60000000000001</ele><time>2026-04-16T17:07:33.762Z</time></trkpt><trkpt lat="44.1587265" lon="12.1278228"><ele>109.80000000000001</ele><time>2026-04-16T17:07:34.761Z</time></trkpt><trkpt lat="44.1588135" lon="12.1277473"><ele>108.0</ele><time>2026-04-16T17:07:35.759Z</time></trkpt><trkpt lat="44.1588996" lon="12.1276679"><ele>108.0</ele><time>2026-04-16T17:07:36.76Z</time></trkpt><trkpt lat="44.1589835" lon="12.1275868"><ele>108.00000000000001</ele><time>2026-04-16T17:07:37.76Z</time></trkpt><trkpt lat="44.1590591" lon="12.1275081"><ele>108.00000000000001</ele><time>2026-04-16T17:07:38.759Z</time></trkpt><trkpt lat="44.1591334" lon="12.1274245"><ele>108.0</ele><time>2026-04-16T17:07:39.758Z</time></trkpt><trkpt lat="44.1592015" lon="12.1273364"><ele>108.0</ele><time>2026-04-16T17:07:40.755Z</time></trkpt><trkpt lat="44.1592669" lon="12.1272472"><ele>106.0</ele><time>2026-04-16T17:07:41.755Z</time></trkpt><trkpt lat="44.1593349" lon="12.1271595"><ele>104.00000000000001</ele><time>2026-04-16T17:07:42.75Z</time></trkpt><trkpt lat="44.1594086" lon="12.1270786"><ele>102.0</ele><time>2026-04-16T17:07:43.756Z</time></trkpt><trkpt lat="44.1594896" lon="12.1270123"><ele>100.0</ele><time>2026-04-16T17:07:44.748Z</time></trkpt><trkpt lat="44.159574" lon="12.1269565"><ele>98.0</ele><time>2026-04-16T17:07:45.751Z</time></trkpt><trkpt lat="44.1596653" lon="12.1269146"><ele>98.0</ele><time>2026-04-16T17:07:46.755Z</time></trkpt><trkpt lat="44.1597606" lon="12.1268773"><ele>98.0</ele><time>2026-04-16T17:07:47.759Z</time></trkpt><trkpt lat="44.1598598" lon="12.1268362"><ele>98.0</ele><time>2026-04-16T17:07:48.763Z</time></trkpt><trkpt lat="44.1599574" lon="12.1268023"><ele>98.0</ele><time>2026-04-16T17:07:49.761Z</time></trkpt><trkpt lat="44.1600576" lon="12.1267797"><ele>98.0</ele><time>2026-04-16T17:07:50.756Z</time></trkpt><trkpt lat="44.1601616" lon="12.1267705"><ele>97.4</ele><time>2026-04-16T17:07:51.753Z</time></trkpt><trkpt lat="44.1602634" lon="12.1267866"><ele>96.80000000000001</ele><time>2026-04-16T17:07:52.755Z</time></trkpt><trkpt lat="44.1603615" lon="12.1268203"><ele>96.2</ele><time>2026-04-16T17:07:53.758Z</time></trkpt><trkpt lat="44.1604562" lon="12.1268565"><ele>95.6</ele><time>2026-04-16T17:07:54.759Z</time></trkpt><trkpt lat="44.1605435" lon="12.1268882"><ele>95.0</ele><time>2026-04-16T17:07:55.759Z</time></trkpt><trkpt lat="44.1606304" lon="12.1269247"><ele>94.0</ele><time>2026-04-16T17:07:56.765Z</time></trkpt><trkpt lat="44.1607162" lon="12.1269626"><ele>93.0</ele><time>2026-04-16T17:07:57.761Z</time></trkpt><trkpt lat="44.1607982" lon="12.1269936"><ele>92.0</ele><time>2026-04-16T17:07:58.773Z</time></trkpt><trkpt lat="44.1608824" lon="12.1270197"><ele>91.0</ele><time>2026-04-16T17:07:59.756Z</time></trkpt><trkpt lat="44.1609643" lon="12.1270435"><ele>90.0</ele><time>2026-04-16T17:08:00.76Z</time></trkpt><trkpt lat="44.1610419" lon="12.1270584"><ele>89.0</ele><time>2026-04-16T17:08:01.752Z</time></trkpt><trkpt lat="44.1611151" lon="12.1270645"><ele>89.0</ele><time>2026-04-16T17:08:02.759Z</time></trkpt><trkpt lat="44.1611852" lon="12.127069"><ele>89.0</ele><time>2026-04-16T17:08:03.759Z</time></trkpt><trkpt lat="44.1613095" lon="12.1270781"><ele>89.0</ele><time>2026-04-16T17:08:05.759Z</time></trkpt><trkpt lat="44.1614316" lon="12.1270926"><ele>89.0</ele><time>2026-04-16T17:08:07.754Z</time></trkpt><trkpt lat="44.1615499" lon="12.1271301"><ele>89.0</ele><time>2026-04-16T17:08:09.75Z</time></trkpt><trkpt lat="44.1616421" lon="12.1272091"><ele>89.25</ele><time>2026-04-16T17:08:11.754Z</time></trkpt><trkpt lat="44.1617445" lon="12.1272781"><ele>89.5</ele><time>2026-04-16T17:08:13.758Z</time></trkpt><trkpt lat="44.1618446" lon="12.1273425"><ele>89.75</ele><time>2026-04-16T17:08:15.747Z</time></trkpt><trkpt lat="44.1619639" lon="12.1273719"><ele>90.0</ele><time>2026-04-16T17:08:17.755Z</time></trkpt><trkpt lat="44.1620912" lon="12.1273407"><ele>90.0</ele><time>2026-04-16T17:08:19.754Z</time></trkpt><trkpt lat="44.1621561" lon="12.1273042"><ele>90.0</ele><time>2026-04-16T17:08:20.752Z</time></trkpt><trkpt lat="44.1622131" lon="12.1272544"><ele>90.0</ele><time>2026-04-16T17:08:21.753Z</time></trkpt><trkpt lat="44.1622707" lon="12.1272066"><ele>90.0</ele><time>2026-04-16T17:08:22.751Z</time></trkpt><trkpt lat="44.1623255" lon="12.1271554"><ele>90.0</ele><time>2026-04-16T17:08:23.757Z</time></trkpt><trkpt lat="44.1623834" lon="12.1271085"><ele>90.0</ele><time>2026-04-16T17:08:24.751Z</time></trkpt><trkpt lat="44.1624404" lon="12.1270663"><ele>90.0</ele><time>2026-04-16T17:08:25.758Z</time></trkpt><trkpt lat="44.1624986" lon="12.1270211"><ele>89.85714285714285</ele><time>2026-04-16T17:08:26.751Z</time></trkpt><trkpt lat="44.1625551" lon="12.1269726"><ele>89.71428571428572</ele><time>2026-04-16T17:08:27.757Z</time></trkpt><trkpt lat="44.1626129" lon="12.1269219"><ele>89.57142857142857</ele><time>2026-04-16T17:08:28.767Z</time></trkpt><trkpt lat="44.1626747" lon="12.1268739"><ele>89.42857142857142</ele><time>2026-04-16T17:08:29.775Z</time></trkpt><trkpt lat="44.1627433" lon="12.1268242"><ele>89.28571428571428</ele><time>2026-04-16T17:08:30.757Z</time></trkpt><trkpt lat="44.1628115" lon="12.1267794"><ele>89.14285714285714</ele><time>2026-04-16T17:08:31.756Z</time></trkpt><trkpt lat="44.1628897" lon="12.1267332"><ele>89.0</ele><time>2026-04-16T17:08:32.754Z</time></trkpt><trkpt lat="44.1629731" lon="12.1266925"><ele>89.0</ele><time>2026-04-16T17:08:33.751Z</time></trkpt><trkpt lat="44.1630602" lon="12.1266535"><ele>89.0</ele><time>2026-04-16T17:08:34.755Z</time></trkpt><trkpt lat="44.1631527" lon="12.1266136"><ele>89.0</ele><time>2026-04-16T17:08:35.749Z</time></trkpt><trkpt lat="44.1632427" lon="12.1265733"><ele>89.0</ele><time>2026-04-16T17:08:36.753Z</time></trkpt><trkpt lat="44.1633381" lon="12.1265312"><ele>89.0</ele><time>2026-04-16T17:08:37.757Z</time></trkpt><trkpt lat="44.1634403" lon="12.1264866"><ele>87.0</ele><time>2026-04-16T17:08:38.756Z</time></trkpt><trkpt lat="44.1635444" lon="12.1264327"><ele>85.0</ele><time>2026-04-16T17:08:39.759Z</time></trkpt><trkpt lat="44.1636513" lon="12.1263765"><ele>83.0</ele><time>2026-04-16T17:08:40.758Z</time></trkpt><trkpt lat="44.1637555" lon="12.1263271"><ele>81.0</ele><time>2026-04-16T17:08:41.755Z</time></trkpt><trkpt lat="44.1638564" lon="12.1262751"><ele>79.0</ele><time>2026-04-16T17:08:42.758Z</time></trkpt><trkpt lat="44.1639571" lon="12.1262222"><ele>78.0</ele><time>2026-04-16T17:08:43.753Z</time></trkpt><trkpt lat="44.1640604" lon="12.1261677"><ele>77.0</ele><time>2026-04-16T17:08:44.763Z</time></trkpt><trkpt lat="44.1641581" lon="12.1261138"><ele>76.0</ele><time>2026-04-16T17:08:45.743Z</time></trkpt><trkpt lat="44.1642489" lon="12.1260644"><ele>75.0</ele><time>2026-04-16T17:08:46.758Z</time></trkpt><trkpt lat="44.1643335" lon="12.1260186"><ele>74.0</ele><time>2026-04-16T17:08:47.751Z</time></trkpt><trkpt lat="44.1644179" lon="12.1259719"><ele>74.0</ele><time>2026-04-16T17:08:48.753Z</time></trkpt><trkpt lat="44.1644987" lon="12.1259326"><ele>74.0</ele><time>2026-04-16T17:08:49.745Z</time></trkpt><trkpt lat="44.1645744" lon="12.1259064"><ele>74.0</ele><time>2026-04-16T17:08:50.748Z</time></trkpt><trkpt lat="44.1646473" lon="12.1258993"><ele>74.0</ele><time>2026-04-16T17:08:51.756Z</time></trkpt><trkpt lat="44.1647241" lon="12.1259126"><ele>74.0</ele><time>2026-04-16T17:08:52.75Z</time></trkpt><trkpt lat="44.1648053" lon="12.1259297"><ele>74.0</ele><time>2026-04-16T17:08:53.754Z</time></trkpt><trkpt lat="44.164888" lon="12.12595"><ele>72.83333333333334</ele><time>2026-04-16T17:08:54.75Z</time></trkpt><trkpt lat="44.1649715" lon="12.1259682"><ele>71.66666666666667</ele><time>2026-04-16T17:08:55.754Z</time></trkpt><trkpt lat="44.1650501" lon="12.1259945"><ele>70.5</ele><time>2026-04-16T17:08:56.75Z</time></trkpt><trkpt lat="44.1651264" lon="12.1260376"><ele>69.33333333333333</ele><time>2026-04-16T17:08:57.752Z</time></trkpt><trkpt lat="44.165202" lon="12.1260749"><ele>68.16666666666666</ele><time>2026-04-16T17:08:58.758Z</time></trkpt><trkpt lat="44.1652728" lon="12.1261144"><ele>67.0</ele><time>2026-04-16T17:08:59.757Z</time></trkpt><trkpt lat="44.1653423" lon="12.1261491"><ele>67.0</ele><time>2026-04-16T17:09:00.775Z</time></trkpt><trkpt lat="44.1654099" lon="12.1261867"><ele>67.0</ele><time>2026-04-16T17:09:01.751Z</time></trkpt><trkpt lat="44.1654707" lon="12.1262207"><ele>67.0</ele><time>2026-04-16T17:09:02.754Z</time></trkpt><trkpt lat="44.165535" lon="12.1262577"><ele>67.0</ele><time>2026-04-16T17:09:03.755Z</time></trkpt><trkpt lat="44.1655999" lon="12.1262908"><ele>67.0</ele><time>2026-04-16T17:09:04.756Z</time></trkpt><trkpt lat="44.1656644" lon="12.1263219"><ele>67.0</ele><time>2026-04-16T17:09:05.759Z</time></trkpt><trkpt lat="44.1657317" lon="12.1263569"><ele>67.0</ele><time>2026-04-16T17:09:06.752Z</time></trkpt><trkpt lat="44.1658009" lon="12.1263919"><ele>67.14285714285714</ele><time>2026-04-16T17:09:07.751Z</time></trkpt><trkpt lat="44.1658655" lon="12.1264217"><ele>67.28571428571428</ele><time>2026-04-16T17:09:08.754Z</time></trkpt><trkpt lat="44.1659336" lon="12.1264539"><ele>67.42857142857142</ele><time>2026-04-16T17:09:09.755Z</time></trkpt><trkpt lat="44.1660006" lon="12.1264848"><ele>67.57142857142857</ele><time>2026-04-16T17:09:10.759Z</time></trkpt><trkpt lat="44.1660667" lon="12.1265108"><ele>67.71428571428571</ele><time>2026-04-16T17:09:11.757Z</time></trkpt><trkpt lat="44.1661351" lon="12.1265388"><ele>67.85714285714285</ele><time>2026-04-16T17:09:12.755Z</time></trkpt><trkpt lat="44.1662005" lon="12.1265657"><ele>68.0</ele><time>2026-04-16T17:09:13.754Z</time></trkpt><trkpt lat="44.1662665" lon="12.1265941"><ele>67.99999999999999</ele><time>2026-04-16T17:09:14.755Z</time></trkpt><trkpt lat="44.1663326" lon="12.1266248"><ele>68.0</ele><time>2026-04-16T17:09:15.759Z</time></trkpt><trkpt lat="44.1663978" lon="12.1266509"><ele>68.0</ele><time>2026-04-16T17:09:16.755Z</time></trkpt><trkpt lat="44.1664672" lon="12.1266804"><ele>68.0</ele><time>2026-04-16T17:09:17.761Z</time></trkpt><trkpt lat="44.1665381" lon="12.1267028"><ele>68.0</ele><time>2026-04-16T17:09:18.758Z</time></trkpt><trkpt lat="44.1666059" lon="12.1267308"><ele>67.99999999999999</ele><time>2026-04-16T17:09:19.76Z</time></trkpt><trkpt lat="44.1666773" lon="12.126767"><ele>68.0</ele><time>2026-04-16T17:09:20.755Z</time></trkpt><trkpt lat="44.1667489" lon="12.1267964"><ele>67.28571428571428</ele><time>2026-04-16T17:09:21.76Z</time></trkpt><trkpt lat="44.1668203" lon="12.1268288"><ele>66.57142857142857</ele><time>2026-04-16T17:09:22.757Z</time></trkpt><trkpt lat="44.1668915" lon="12.1268529"><ele>65.85714285714286</ele><time>2026-04-16T17:09:23.759Z</time></trkpt><trkpt lat="44.166963" lon="12.1268783"><ele>65.14285714285714</ele><time>2026-04-16T17:09:24.757Z</time></trkpt><trkpt lat="44.1670345" lon="12.1269046"><ele>64.42857142857143</ele><time>2026-04-16T17:09:25.753Z</time></trkpt><trkpt lat="44.1671086" lon="12.126924"><ele>63.714285714285715</ele><time>2026-04-16T17:09:26.756Z</time></trkpt><trkpt lat="44.1671805" lon="12.126954"><ele>63.0</ele><time>2026-04-16T17:09:27.753Z</time></trkpt><trkpt lat="44.1672558" lon="12.1269863"><ele>63.0</ele><time>2026-04-16T17:09:28.767Z</time></trkpt><trkpt lat="44.167329" lon="12.1270193"><ele>63.0</ele><time>2026-04-16T17:09:29.754Z</time></trkpt><trkpt lat="44.1674014" lon="12.1270538"><ele>63.0</ele><time>2026-04-16T17:09:30.756Z</time></trkpt><trkpt lat="44.1674772" lon="12.1270846"><ele>63.0</ele><time>2026-04-16T17:09:31.769Z</time></trkpt><trkpt lat="44.1675555" lon="12.1271189"><ele>63.0</ele><time>2026-04-16T17:09:32.749Z</time></trkpt><trkpt lat="44.1676352" lon="12.1271458"><ele>63.0</ele><time>2026-04-16T17:09:33.753Z</time></trkpt><trkpt lat="44.1677146" lon="12.1271702"><ele>62.166666666666664</ele><time>2026-04-16T17:09:34.751Z</time></trkpt><trkpt lat="44.167796" lon="12.1271979"><ele>61.33333333333333</ele><time>2026-04-16T17:09:35.752Z</time></trkpt><trkpt lat="44.1678757" lon="12.1272249"><ele>60.5</ele><time>2026-04-16T17:09:36.753Z</time></trkpt><trkpt lat="44.1679498" lon="12.1272477"><ele>59.666666666666664</ele><time>2026-04-16T17:09:37.752Z</time></trkpt><trkpt lat="44.1680302" lon="12.1272765"><ele>58.83333333333333</ele><time>2026-04-16T17:09:38.759Z</time></trkpt><trkpt lat="44.1681056" lon="12.1273039"><ele>58.0</ele><time>2026-04-16T17:09:39.751Z</time></trkpt><trkpt lat="44.168179" lon="12.127327"><ele>57.42857142857144</ele><time>2026-04-16T17:09:40.748Z</time></trkpt><trkpt lat="44.1682514" lon="12.1273484"><ele>56.85714285714286</ele><time>2026-04-16T17:09:41.762Z</time></trkpt><trkpt lat="44.1683233" lon="12.1273701"><ele>56.28571428571429</ele><time>2026-04-16T17:09:42.752Z</time></trkpt><trkpt lat="44.1683939" lon="12.1273889"><ele>55.71428571428572</ele><time>2026-04-16T17:09:43.751Z</time></trkpt><trkpt lat="44.1684602" lon="12.1274154"><ele>55.14285714285714</ele><time>2026-04-16T17:09:44.755Z</time></trkpt><trkpt lat="44.1685255" lon="12.127441"><ele>54.57142857142857</ele><time>2026-04-16T17:09:45.757Z</time></trkpt><trkpt lat="44.1685942" lon="12.1274639"><ele>54.0</ele><time>2026-04-16T17:09:46.757Z</time></trkpt><trkpt lat="44.1686626" lon="12.1274824"><ele>54.0</ele><time>2026-04-16T17:09:47.755Z</time></trkpt><trkpt lat="44.1687258" lon="12.1274987"><ele>54.0</ele><time>2026-04-16T17:09:48.756Z</time></trkpt><trkpt lat="44.1687884" lon="12.1275165"><ele>54.0</ele><time>2026-04-16T17:09:49.754Z</time></trkpt><trkpt lat="44.1689036" lon="12.1275548"><ele>54.0</ele><time>2026-04-16T17:09:51.758Z</time></trkpt><trkpt lat="44.1690172" lon="12.1275803"><ele>54.0</ele><time>2026-04-16T17:09:53.756Z</time></trkpt><trkpt lat="44.1690791" lon="12.1275994"><ele>54.0</ele><time>2026-04-16T17:09:54.753Z</time></trkpt><trkpt lat="44.1691972" lon="12.1276292"><ele>54.0</ele><time>2026-04-16T17:09:56.753Z</time></trkpt><trkpt lat="44.1692616" lon="12.1276471"><ele>54.0</ele><time>2026-04-16T17:09:57.753Z</time></trkpt><trkpt lat="44.1693239" lon="12.1276664"><ele>54.0</ele><time>2026-04-16T17:09:58.751Z</time></trkpt><trkpt lat="44.1693858" lon="12.1276844"><ele>54.0</ele><time>2026-04-16T17:09:59.75Z</time></trkpt><trkpt lat="44.1694499" lon="12.127703"><ele>54.0</ele><time>2026-04-16T17:10:00.751Z</time></trkpt><trkpt lat="44.169515" lon="12.1277204"><ele>54.0</ele><time>2026-04-16T17:10:01.749Z</time></trkpt><trkpt lat="44.1695811" lon="12.1277375"><ele>54.0</ele><time>2026-04-16T17:10:02.764Z</time></trkpt><trkpt lat="44.1696482" lon="12.1277586"><ele>54.0</ele><time>2026-04-16T17:10:03.752Z</time></trkpt><trkpt lat="44.1697162" lon="12.1277823"><ele>54.00000000000001</ele><time>2026-04-16T17:10:04.75Z</time></trkpt><trkpt lat="44.1697839" lon="12.1278107"><ele>54.00000000000001</ele><time>2026-04-16T17:10:05.749Z</time></trkpt><trkpt lat="44.1698437" lon="12.1278479"><ele>54.0</ele><time>2026-04-16T17:10:06.751Z</time></trkpt><trkpt lat="44.1699578" lon="12.1279079"><ele>54.0</ele><time>2026-04-16T17:10:08.754Z</time></trkpt><trkpt lat="44.1700785" lon="12.1279786"><ele>53.714285714285715</ele><time>2026-04-16T17:10:10.756Z</time></trkpt><trkpt lat="44.1701426" lon="12.1280138"><ele>53.42857142857143</ele><time>2026-04-16T17:10:11.758Z</time></trkpt><trkpt lat="44.1702109" lon="12.1280523"><ele>53.14285714285714</ele><time>2026-04-16T17:10:12.752Z</time></trkpt><trkpt lat="44.1702787" lon="12.1280858"><ele>52.85714285714286</ele><time>2026-04-16T17:10:13.755Z</time></trkpt><trkpt lat="44.1703481" lon="12.1281192"><ele>52.57142857142858</ele><time>2026-04-16T17:10:14.752Z</time></trkpt><trkpt lat="44.1704203" lon="12.1281527"><ele>52.285714285714285</ele><time>2026-04-16T17:10:15.753Z</time></trkpt><trkpt lat="44.170491" lon="12.1281903"><ele>52.0</ele><time>2026-04-16T17:10:16.756Z</time></trkpt><trkpt lat="44.1705658" lon="12.1282271"><ele>51.99999999999999</ele><time>2026-04-16T17:10:17.755Z</time></trkpt><trkpt lat="44.1706419" lon="12.1282584"><ele>52.0</ele><time>2026-04-16T17:10:18.756Z</time></trkpt><trkpt lat="44.1707201" lon="12.1282908"><ele>52.0</ele><time>2026-04-16T17:10:19.754Z</time></trkpt><trkpt lat="44.1707997" lon="12.128322"><ele>52.0</ele><time>2026-04-16T17:10:20.752Z</time></trkpt><trkpt lat="44.1708767" lon="12.1283585"><ele>51.99999999999999</ele><time>2026-04-16T17:10:21.762Z</time></trkpt><trkpt lat="44.1709503" lon="12.1283959"><ele>52.0</ele><time>2026-04-16T17:10:22.755Z</time></trkpt><trkpt lat="44.1710297" lon="12.1284361"><ele>51.33333333333333</ele><time>2026-04-16T17:10:23.752Z</time></trkpt><trkpt lat="44.1711098" lon="12.1284743"><ele>50.666666666666664</ele><time>2026-04-16T17:10:24.756Z</time></trkpt><trkpt lat="44.171192" lon="12.1285088"><ele>50.0</ele><time>2026-04-16T17:10:25.752Z</time></trkpt><trkpt lat="44.1712738" lon="12.1285455"><ele>49.33333333333333</ele><time>2026-04-16T17:10:26.754Z</time></trkpt><trkpt lat="44.171359" lon="12.1285826"><ele>48.666666666666664</ele><time>2026-04-16T17:10:27.758Z</time></trkpt><trkpt lat="44.1714456" lon="12.1286223"><ele>48.0</ele><time>2026-04-16T17:10:28.76Z</time></trkpt><trkpt lat="44.1715322" lon="12.1286694"><ele>46.4</ele><time>2026-04-16T17:10:29.757Z</time></trkpt><trkpt lat="44.1716192" lon="12.1287131"><ele>44.8</ele><time>2026-04-16T17:10:30.76Z</time></trkpt><trkpt lat="44.1717106" lon="12.1287549"><ele>43.2</ele><time>2026-04-16T17:10:31.76Z</time></trkpt><trkpt lat="44.1718044" lon="12.1288031"><ele>41.6</ele><time>2026-04-16T17:10:32.756Z</time></trkpt><trkpt lat="44.1718952" lon="12.1288501"><ele>40.0</ele><time>2026-04-16T17:10:33.77Z</time></trkpt><trkpt lat="44.1719877" lon="12.128893"><ele>40.0</ele><time>2026-04-16T17:10:34.758Z</time></trkpt><trkpt lat="44.1720796" lon="12.1289364"><ele>40.0</ele><time>2026-04-16T17:10:35.758Z</time></trkpt><trkpt lat="44.172171" lon="12.1289801"><ele>40.0</ele><time>2026-04-16T17:10:36.757Z</time></trkpt><trkpt lat="44.1722639" lon="12.1290248"><ele>40.0</ele><time>2026-04-16T17:10:37.757Z</time></trkpt><trkpt lat="44.1723544" lon="12.1290711"><ele>40.0</ele><time>2026-04-16T17:10:38.76Z</time></trkpt><trkpt lat="44.1724489" lon="12.1291116"><ele>38.4</ele><time>2026-04-16T17:10:39.763Z</time></trkpt><trkpt lat="44.1725468" lon="12.1291519"><ele>36.8</ele><time>2026-04-16T17:10:40.762Z</time></trkpt><trkpt lat="44.1726374" lon="12.129191"><ele>35.2</ele><time>2026-04-16T17:10:41.761Z</time></trkpt><trkpt lat="44.1727275" lon="12.1292305"><ele>33.6</ele><time>2026-04-16T17:10:42.769Z</time></trkpt><trkpt lat="44.1728144" lon="12.1292724"><ele>32.0</ele><time>2026-04-16T17:10:43.759Z</time></trkpt><trkpt lat="44.1728986" lon="12.1293163"><ele>31.999999999999996</ele><time>2026-04-16T17:10:44.768Z</time></trkpt><trkpt lat="44.1729877" lon="12.1293588"><ele>32.0</ele><time>2026-04-16T17:10:45.757Z</time></trkpt><trkpt lat="44.1730709" lon="12.1294003"><ele>32.0</ele><time>2026-04-16T17:10:46.756Z</time></trkpt><trkpt lat="44.1731535" lon="12.1294446"><ele>32.0</ele><time>2026-04-16T17:10:47.755Z</time></trkpt><trkpt lat="44.173237" lon="12.1294826"><ele>31.999999999999996</ele><time>2026-04-16T17:10:48.762Z</time></trkpt><trkpt lat="44.1733188" lon="12.1295244"><ele>32.0</ele><time>2026-04-16T17:10:49.759Z</time></trkpt><trkpt lat="44.1734035" lon="12.1295611"><ele>31.666666666666664</ele><time>2026-04-16T17:10:50.763Z</time></trkpt><trkpt lat="44.173486" lon="12.1295961"><ele>31.333333333333332</ele><time>2026-04-16T17:10:51.762Z</time></trkpt><trkpt lat="44.1735679" lon="12.1296333"><ele>31.0</ele><time>2026-04-16T17:10:52.765Z</time></trkpt><trkpt lat="44.173645" lon="12.1296735"><ele>30.666666666666664</ele><time>2026-04-16T17:10:53.754Z</time></trkpt><trkpt lat="44.1737226" lon="12.1297124"><ele>30.333333333333332</ele><time>2026-04-16T17:10:54.755Z</time></trkpt><trkpt lat="44.1737969" lon="12.1297519"><ele>30.0</ele><time>2026-04-16T17:10:55.752Z</time></trkpt><trkpt lat="44.1738659" lon="12.1297952"><ele>30.0</ele><time>2026-04-16T17:10:56.756Z</time></trkpt><trkpt lat="44.1739364" lon="12.1298397"><ele>30.0</ele><time>2026-04-16T17:10:57.759Z</time></trkpt><trkpt lat="44.1740032" lon="12.1298794"><ele>30.0</ele><time>2026-04-16T17:10:58.757Z</time></trkpt><trkpt lat="44.1740709" lon="12.1299223"><ele>30.0</ele><time>2026-04-16T17:10:59.762Z</time></trkpt><trkpt lat="44.1741355" lon="12.129965"><ele>30.0</ele><time>2026-04-16T17:11:00.76Z</time></trkpt><trkpt lat="44.1742027" lon="12.1300073"><ele>30.0</ele><time>2026-04-16T17:11:01.757Z</time></trkpt><trkpt lat="44.1742689" lon="12.130052"><ele>30.0</ele><time>2026-04-16T17:11:02.758Z</time></trkpt><trkpt lat="44.1743336" lon="12.1300967"><ele>29.857142857142858</ele><time>2026-04-16T17:11:03.765Z</time></trkpt><trkpt lat="44.1743936" lon="12.1301408"><ele>29.714285714285715</ele><time>2026-04-16T17:11:04.771Z</time></trkpt><trkpt lat="44.1744562" lon="12.1301871"><ele>29.571428571428573</ele><time>2026-04-16T17:11:05.756Z</time></trkpt><trkpt lat="44.1745151" lon="12.130231"><ele>29.42857142857143</ele><time>2026-04-16T17:11:06.761Z</time></trkpt><trkpt lat="44.1745741" lon="12.1302717"><ele>29.285714285714285</ele><time>2026-04-16T17:11:07.758Z</time></trkpt><trkpt lat="44.1746324" lon="12.1303106"><ele>29.142857142857146</ele><time>2026-04-16T17:11:08.755Z</time></trkpt><trkpt lat="44.1746904" lon="12.1303535"><ele>29.000000000000004</ele><time>2026-04-16T17:11:09.757Z</time></trkpt><trkpt lat="44.1747469" lon="12.1303943"><ele>29.0</ele><time>2026-04-16T17:11:10.76Z</time></trkpt><trkpt lat="44.1748577" lon="12.1304765"><ele>29.0</ele><time>2026-04-16T17:11:12.762Z</time></trkpt><trkpt lat="44.1749709" lon="12.130555"><ele>29.0</ele><time>2026-04-16T17:11:14.754Z</time></trkpt><trkpt lat="44.1750791" lon="12.1306306"><ele>29.0</ele><time>2026-04-16T17:11:16.749Z</time></trkpt><trkpt lat="44.1751842" lon="12.130707"><ele>29.75</ele><time>2026-04-16T17:11:18.748Z</time></trkpt><trkpt lat="44.1752947" lon="12.130787"><ele>30.5</ele><time>2026-04-16T17:11:20.751Z</time></trkpt><trkpt lat="44.1754015" lon="12.1308635"><ele>31.25</ele><time>2026-04-16T17:11:22.757Z</time></trkpt><trkpt lat="44.1755073" lon="12.1309378"><ele>32.0</ele><time>2026-04-16T17:11:24.756Z</time></trkpt><trkpt lat="44.1756111" lon="12.1310121"><ele>32.0</ele><time>2026-04-16T17:11:26.749Z</time></trkpt><trkpt lat="44.1756702" lon="12.1310475"><ele>31.999999999999996</ele><time>2026-04-16T17:11:27.748Z</time></trkpt><trkpt lat="44.1757283" lon="12.1310821"><ele>32.0</ele><time>2026-04-16T17:11:28.753Z</time></trkpt><trkpt lat="44.1757877" lon="12.1311195"><ele>32.0</ele><time>2026-04-16T17:11:29.753Z</time></trkpt><trkpt lat="44.175847" lon="12.1311586"><ele>31.999999999999996</ele><time>2026-04-16T17:11:30.752Z</time></trkpt><trkpt lat="44.1759025" lon="12.1312004"><ele>32.0</ele><time>2026-04-16T17:11:31.752Z</time></trkpt><trkpt lat="44.1760099" lon="12.1312827"><ele>32.0</ele><time>2026-04-16T17:11:33.754Z</time></trkpt><trkpt lat="44.1761192" lon="12.1313613"><ele>31.75</ele><time>2026-04-16T17:11:35.769Z</time></trkpt><trkpt lat="44.1762268" lon="12.1314373"><ele>31.5</ele><time>2026-04-16T17:11:37.753Z</time></trkpt><trkpt lat="44.1763367" lon="12.13151"><ele>31.25</ele><time>2026-04-16T17:11:39.755Z</time></trkpt><trkpt lat="44.1764479" lon="12.1315795"><ele>31.0</ele><time>2026-04-16T17:11:41.755Z</time></trkpt><trkpt lat="44.1765574" lon="12.1316559"><ele>30.5</ele><time>2026-04-16T17:11:43.755Z</time></trkpt><trkpt lat="44.1766671" lon="12.1317299"><ele>30.0</ele><time>2026-04-16T17:11:45.757Z</time></trkpt><trkpt lat="44.1767731" lon="12.1318064"><ele>29.5</ele><time>2026-04-16T17:11:47.757Z</time></trkpt><trkpt lat="44.176882" lon="12.1318763"><ele>29.0</ele><time>2026-04-16T17:11:49.751Z</time></trkpt><trkpt lat="44.1769904" lon="12.1319464"><ele>29.0</ele><time>2026-04-16T17:11:51.758Z</time></trkpt><trkpt lat="44.1770972" lon="12.1320179"><ele>29.0</ele><time>2026-04-16T17:11:53.757Z</time></trkpt><trkpt lat="44.177202" lon="12.132096"><ele>29.0</ele><time>2026-04-16T17:11:55.754Z</time></trkpt><trkpt lat="44.177303" lon="12.1321665"><ele>29.0</ele><time>2026-04-16T17:11:57.755Z</time></trkpt><trkpt lat="44.1774033" lon="12.1322373"><ele>29.0</ele><time>2026-04-16T17:11:59.754Z</time></trkpt><trkpt lat="44.1775022" lon="12.132306"><ele>29.0</ele><time>2026-04-16T17:12:01.756Z</time></trkpt><trkpt lat="44.1776022" lon="12.1323751"><ele>29.0</ele><time>2026-04-16T17:12:03.761Z</time></trkpt><trkpt lat="44.1777042" lon="12.1324441"><ele>29.0</ele><time>2026-04-16T17:12:05.759Z</time></trkpt><trkpt lat="44.1778022" lon="12.132514"><ele>29.0</ele><time>2026-04-16T17:12:07.758Z</time></trkpt><trkpt lat="44.177902" lon="12.1325948"><ele>29.0</ele><time>2026-04-16T17:12:09.762Z</time></trkpt><trkpt lat="44.1780034" lon="12.1326722"><ele>29.0</ele><time>2026-04-16T17:12:11.759Z</time></trkpt><trkpt lat="44.1781095" lon="12.1327491"><ele>29.0</ele><time>2026-04-16T17:12:13.759Z</time></trkpt><trkpt lat="44.178213" lon="12.1328188"><ele>29.0</ele><time>2026-04-16T17:12:15.763Z</time></trkpt><trkpt lat="44.1783174" lon="12.1328936"><ele>29.0</ele><time>2026-04-16T17:12:17.756Z</time></trkpt><trkpt lat="44.1784196" lon="12.1329636"><ele>29.0</ele><time>2026-04-16T17:12:19.755Z</time></trkpt><trkpt lat="44.1785212" lon="12.1330326"><ele>29.0</ele><time>2026-04-16T17:12:21.759Z</time></trkpt><trkpt lat="44.1786212" lon="12.1331023"><ele>29.0</ele><time>2026-04-16T17:12:23.759Z</time></trkpt><trkpt lat="44.1787214" lon="12.1331736"><ele>28.799999999999997</ele><time>2026-04-16T17:12:25.756Z</time></trkpt><trkpt lat="44.1788237" lon="12.1332355"><ele>28.599999999999998</ele><time>2026-04-16T17:12:27.762Z</time></trkpt><trkpt lat="44.1789238" lon="12.1333036"><ele>28.4</ele><time>2026-04-16T17:12:29.756Z</time></trkpt><trkpt lat="44.1790209" lon="12.133369"><ele>28.2</ele><time>2026-04-16T17:12:31.759Z</time></trkpt><trkpt lat="44.1791163" lon="12.1334301"><ele>28.0</ele><time>2026-04-16T17:12:33.756Z</time></trkpt><trkpt lat="44.1792023" lon="12.1334876"><ele>28.000000000000004</ele><time>2026-04-16T17:12:35.756Z</time></trkpt><trkpt lat="44.1792643" lon="12.1335199"><ele>28.0</ele><time>2026-04-16T17:12:37.778Z</time></trkpt><trkpt lat="44.1793444" lon="12.1334572"><ele>28.0</ele><time>2026-04-16T17:12:40.765Z</time></trkpt><trkpt lat="44.1794142" lon="12.1334355"><ele>28.0</ele><time>2026-04-16T17:12:42.764Z</time></trkpt><trkpt lat="44.1794932" lon="12.1334155"><ele>28.000000000000004</ele><time>2026-04-16T17:12:44.772Z</time></trkpt><trkpt lat="44.1795681" lon="12.1333628"><ele>28.0</ele><time>2026-04-16T17:12:46.768Z</time></trkpt><trkpt lat="44.1796506" lon="12.1333345"><ele>28.000000000000004</ele><time>2026-04-16T17:12:48.768Z</time></trkpt><trkpt lat="44.1797384" lon="12.1333502"><ele>28.0</ele><time>2026-04-16T17:12:50.763Z</time></trkpt><trkpt lat="44.1798266" lon="12.1333916"><ele>28.0</ele><time>2026-04-16T17:12:52.761Z</time></trkpt><trkpt lat="44.1799077" lon="12.1333654"><ele>28.0</ele><time>2026-04-16T17:12:54.755Z</time></trkpt><trkpt lat="44.1799811" lon="12.1333212"><ele>28.000000000000004</ele><time>2026-04-16T17:12:56.761Z</time></trkpt><trkpt lat="44.1800679" lon="12.1333193"><ele>28.0</ele><time>2026-04-16T17:12:58.765Z</time></trkpt><trkpt lat="44.1801577" lon="12.1333304"><ele>28.0</ele><time>2026-04-16T17:13:00.755Z</time></trkpt><trkpt lat="44.1802461" lon="12.1333413"><ele>27.999999999999996</ele><time>2026-04-16T17:13:02.759Z</time></trkpt><trkpt lat="44.1803544" lon="12.1333309"><ele>27.999999999999996</ele><time>2026-04-16T17:13:04.763Z</time></trkpt><trkpt lat="44.180403" lon="12.133206"><ele>28.0</ele><time>2026-04-16T17:13:06.762Z</time></trkpt><trkpt lat="44.1803949" lon="12.1330508"><ele>28.0</ele><time>2026-04-16T17:13:08.783Z</time></trkpt><trkpt lat="44.1803917" lon="12.132905"><ele>27.799999999999997</ele><time>2026-04-16T17:13:10.75Z</time></trkpt><trkpt lat="44.1803782" lon="12.1327566"><ele>27.599999999999998</ele><time>2026-04-16T17:13:12.744Z</time></trkpt><trkpt lat="44.1803785" lon="12.1326124"><ele>27.400000000000002</ele><time>2026-04-16T17:13:14.748Z</time></trkpt><trkpt lat="44.1803819" lon="12.1324819"><ele>27.200000000000003</ele><time>2026-04-16T17:13:16.749Z</time></trkpt><trkpt lat="44.1803918" lon="12.1323526"><ele>27.0</ele><time>2026-04-16T17:13:18.749Z</time></trkpt><trkpt lat="44.1804222" lon="12.1322216"><ele>27.333333333333332</ele><time>2026-04-16T17:13:20.744Z</time></trkpt><trkpt lat="44.1804469" lon="12.1320888"><ele>27.666666666666664</ele><time>2026-04-16T17:13:22.74Z</time></trkpt><trkpt lat="44.1804647" lon="12.1319621"><ele>28.0</ele><time>2026-04-16T17:13:24.742Z</time></trkpt><trkpt lat="44.1804857" lon="12.1318359"><ele>28.333333333333332</ele><time>2026-04-16T17:13:26.748Z</time></trkpt><trkpt lat="44.1805078" lon="12.1317289"><ele>28.666666666666664</ele><time>2026-04-16T17:13:28.763Z</time></trkpt><trkpt lat="44.1805394" lon="12.1316387"><ele>29.0</ele><time>2026-04-16T17:13:30.766Z</time></trkpt><trkpt lat="44.1805679" lon="12.1315429"><ele>28.999999999999996</ele><time>2026-04-16T17:13:33.759Z</time></trkpt><trkpt lat="44.1805338" lon="12.1314399"><ele>29.0</ele><time>2026-04-16T17:13:38.757Z</time></trkpt><trkpt lat="44.1805296" lon="12.1313413"><ele>29.0</ele><time>2026-04-16T17:13:40.753Z</time></trkpt><trkpt lat="44.1805268" lon="12.1312283"><ele>29.0</ele><time>2026-04-16T17:13:42.749Z</time></trkpt><trkpt lat="44.1805213" lon="12.1311262"><ele>28.999999999999996</ele><time>2026-04-16T17:13:44.759Z</time></trkpt><trkpt lat="44.1805203" lon="12.1310251"><ele>29.0</ele><time>2026-04-16T17:13:46.746Z</time></trkpt><trkpt lat="44.1805387" lon="12.1309195"><ele>28.999999999999996</ele><time>2026-04-16T17:13:48.757Z</time></trkpt><trkpt lat="44.1805545" lon="12.1308043"><ele>29.0</ele><time>2026-04-16T17:13:50.759Z</time></trkpt><trkpt lat="44.1805858" lon="12.1306977"><ele>29.0</ele><time>2026-04-16T17:13:52.757Z</time></trkpt><trkpt lat="44.1806153" lon="12.1305837"><ele>29.0</ele><time>2026-04-16T17:13:54.753Z</time></trkpt><trkpt lat="44.1806334" lon="12.130475"><ele>28.999999999999996</ele><time>2026-04-16T17:13:56.758Z</time></trkpt><trkpt lat="44.1806549" lon="12.1303571"><ele>29.0</ele><time>2026-04-16T17:13:58.764Z</time></trkpt><trkpt lat="44.1806732" lon="12.1302298"><ele>28.799999999999997</ele><time>2026-04-16T17:14:00.755Z</time></trkpt><trkpt lat="44.1806988" lon="12.1300937"><ele>28.599999999999998</ele><time>2026-04-16T17:14:02.753Z</time></trkpt><trkpt lat="44.1807404" lon="12.1299617"><ele>28.4</ele><time>2026-04-16T17:14:04.754Z</time></trkpt><trkpt lat="44.1807807" lon="12.1298375"><ele>28.2</ele><time>2026-04-16T17:14:06.761Z</time></trkpt><trkpt lat="44.1808301" lon="12.1297121"><ele>28.0</ele><time>2026-04-16T17:14:08.765Z</time></trkpt><trkpt lat="44.1808866" lon="12.1296079"><ele>28.000000000000004</ele><time>2026-04-16T17:14:10.774Z</time></trkpt><trkpt lat="44.1809355" lon="12.1295014"><ele>28.0</ele><time>2026-04-16T17:14:12.759Z</time></trkpt><trkpt lat="44.1809725" lon="12.1293945"><ele>28.0</ele><time>2026-04-16T17:14:14.758Z</time></trkpt><trkpt lat="44.1810128" lon="12.129305"><ele>28.0</ele><time>2026-04-16T17:14:16.76Z</time></trkpt><trkpt lat="44.1810638" lon="12.1292154"><ele>28.000000000000004</ele><time>2026-04-16T17:14:18.761Z</time></trkpt><trkpt lat="44.1811148" lon="12.1291197"><ele>28.0</ele><time>2026-04-16T17:14:20.76Z</time></trkpt><trkpt lat="44.1811621" lon="12.12901"><ele>28.166666666666668</ele><time>2026-04-16T17:14:22.76Z</time></trkpt><trkpt lat="44.181211" lon="12.1289005"><ele>28.333333333333336</ele><time>2026-04-16T17:14:24.76Z</time></trkpt><trkpt lat="44.1812559" lon="12.1287918"><ele>28.5</ele><time>2026-04-16T17:14:26.764Z</time></trkpt><trkpt lat="44.1813008" lon="12.1286835"><ele>28.666666666666664</ele><time>2026-04-16T17:14:28.769Z</time></trkpt><trkpt lat="44.1813418" lon="12.1285893"><ele>28.833333333333332</ele><time>2026-04-16T17:14:30.762Z</time></trkpt><trkpt lat="44.1813794" lon="12.1284938"><ele>29.0</ele><time>2026-04-16T17:14:32.76Z</time></trkpt><trkpt lat="44.1814218" lon="12.1283999"><ele>29.000000000000004</ele><time>2026-04-16T17:14:34.762Z</time></trkpt><trkpt lat="44.1814541" lon="12.1283129"><ele>29.0</ele><time>2026-04-16T17:14:36.765Z</time></trkpt><trkpt lat="44.1814791" lon="12.1282317"><ele>29.000000000000004</ele><time>2026-04-16T17:14:38.765Z</time></trkpt><trkpt lat="44.181515" lon="12.1281585"><ele>29.000000000000004</ele><time>2026-04-16T17:14:40.763Z</time></trkpt><trkpt lat="44.1815642" lon="12.1280949"><ele>29.0</ele><time>2026-04-16T17:14:42.762Z</time></trkpt><trkpt lat="44.1816104" lon="12.128018"><ele>29.000000000000004</ele><time>2026-04-16T17:14:44.759Z</time></trkpt><trkpt lat="44.181658" lon="12.1279289"><ele>29.000000000000004</ele><time>2026-04-16T17:14:46.761Z</time></trkpt><trkpt lat="44.18173" lon="12.127802"><ele>29.166666666666664</ele><time>2026-04-16T17:14:49.773Z</time></trkpt><trkpt lat="44.181785" lon="12.127722"><ele>29.333333333333332</ele><time>2026-04-16T17:14:51.769Z</time></trkpt><trkpt lat="44.1818507" lon="12.1276396"><ele>29.5</ele><time>2026-04-16T17:14:53.775Z</time></trkpt><trkpt lat="44.1819274" lon="12.1275667"><ele>29.666666666666664</ele><time>2026-04-16T17:14:55.771Z</time></trkpt><trkpt lat="44.1820019" lon="12.1275248"><ele>29.833333333333332</ele><time>2026-04-16T17:14:57.771Z</time></trkpt><trkpt lat="44.1820714" lon="12.1274899"><ele>30.0</ele><time>2026-04-16T17:14:59.773Z</time></trkpt><trkpt lat="44.1821478" lon="12.12747"><ele>30.0</ele><time>2026-04-16T17:15:01.773Z</time></trkpt><trkpt lat="44.1822221" lon="12.1274488"><ele>30.0</ele><time>2026-04-16T17:15:03.777Z</time></trkpt><trkpt lat="44.1822924" lon="12.1274337"><ele>30.0</ele><time>2026-04-16T17:15:05.773Z</time></trkpt><trkpt lat="44.1823588" lon="12.1274143"><ele>30.0</ele><time>2026-04-16T17:15:07.775Z</time></trkpt><trkpt lat="44.1824208" lon="12.127393"><ele>30.0</ele><time>2026-04-16T17:15:09.776Z</time></trkpt><trkpt lat="44.1825085" lon="12.1273805"><ele>30.0</ele><time>2026-04-16T17:15:12.786Z</time></trkpt><trkpt lat="44.1825977" lon="12.1273877"><ele>30.0</ele><time>2026-04-16T17:15:15.775Z</time></trkpt><trkpt lat="44.1826628" lon="12.1273785"><ele>30.0</ele><time>2026-04-16T17:15:17.775Z</time></trkpt><trkpt lat="44.1827366" lon="12.1273614"><ele>30.0</ele><time>2026-04-16T17:15:19.775Z</time></trkpt><trkpt lat="44.1828121" lon="12.1273301"><ele>30.0</ele><time>2026-04-16T17:15:21.782Z</time></trkpt><trkpt lat="44.1828768" lon="12.127305"><ele>30.0</ele><time>2026-04-16T17:15:23.779Z</time></trkpt><trkpt lat="44.1829492" lon="12.1272861"><ele>30.0</ele><time>2026-04-16T17:15:25.782Z</time></trkpt><trkpt lat="44.1830241" lon="12.1272763"><ele>30.0</ele><time>2026-04-16T17:15:27.787Z</time></trkpt><trkpt lat="44.1830968" lon="12.1272757"><ele>30.0</ele><time>2026-04-16T17:15:29.784Z</time></trkpt><trkpt lat="44.1831717" lon="12.1272684"><ele>30.0</ele><time>2026-04-16T17:15:31.792Z</time></trkpt><trkpt lat="44.1832395" lon="12.1272455"><ele>30.0</ele><time>2026-04-16T17:15:33.786Z</time></trkpt><trkpt lat="44.1833038" lon="12.1272339"><ele>30.0</ele><time>2026-04-16T17:15:35.782Z</time></trkpt><trkpt lat="44.1833763" lon="12.1272168"><ele>30.0</ele><time>2026-04-16T17:15:37.776Z</time></trkpt><trkpt lat="44.1834449" lon="12.1272081"><ele>30.0</ele><time>2026-04-16T17:15:39.774Z</time></trkpt><trkpt lat="44.1835177" lon="12.1272125"><ele>30.0</ele><time>2026-04-16T17:15:41.78Z</time></trkpt><trkpt lat="44.1835875" lon="12.1271963"><ele>30.0</ele><time>2026-04-16T17:15:43.786Z</time></trkpt><trkpt lat="44.1836715" lon="12.1271467"><ele>30.0</ele><time>2026-04-16T17:15:46.781Z</time></trkpt><trkpt lat="44.1837614" lon="12.1271128"><ele>30.0</ele><time>2026-04-16T17:15:49.774Z</time></trkpt><trkpt lat="44.1838268" lon="12.1270992"><ele>30.0</ele><time>2026-04-16T17:15:51.784Z</time></trkpt><trkpt lat="44.1839022" lon="12.1270748"><ele>30.0</ele><time>2026-04-16T17:15:53.77Z</time></trkpt><trkpt lat="44.1839901" lon="12.1270558"><ele>30.0</ele><time>2026-04-16T17:15:56.772Z</time></trkpt><trkpt lat="44.1840574" lon="12.1270559"><ele>29.6</ele><time>2026-04-16T17:15:59.772Z</time></trkpt><trkpt lat="44.1841388" lon="12.1270378"><ele>29.2</ele><time>2026-04-16T17:16:02.776Z</time></trkpt><trkpt lat="44.1842294" lon="12.1270115"><ele>28.799999999999997</ele><time>2026-04-16T17:16:05.775Z</time></trkpt><trkpt lat="44.1843215" lon="12.1269921"><ele>28.4</ele><time>2026-04-16T17:16:08.775Z</time></trkpt><trkpt lat="44.1844122" lon="12.1269775"><ele>28.0</ele><time>2026-04-16T17:16:11.775Z</time></trkpt><trkpt lat="44.1845081" lon="12.1269726"><ele>28.000000000000004</ele><time>2026-04-16T17:16:14.803Z</time></trkpt><trkpt lat="44.1845858" lon="12.1269616"><ele>28.0</ele><time>2026-04-16T17:16:17.774Z</time></trkpt><trkpt lat="44.1846781" lon="12.1269477"><ele>28.0</ele><time>2026-04-16T17:16:20.775Z</time></trkpt><trkpt lat="44.1847678" lon="12.1269223"><ele>28.0</ele><time>2026-04-16T17:16:23.771Z</time></trkpt><trkpt lat="44.1848375" lon="12.126947"><ele>28.000000000000004</ele><time>2026-04-16T17:16:26.766Z</time></trkpt><trkpt lat="44.1848453" lon="12.1270856"><ele>28.0</ele><time>2026-04-16T17:16:29.772Z</time></trkpt><trkpt lat="44.1848438" lon="12.1271834"><ele>28.000000000000004</ele><time>2026-04-16T17:16:31.761Z</time></trkpt><trkpt lat="44.1848113" lon="12.1272772"><ele>28.0</ele><time>2026-04-16T17:16:34.757Z</time></trkpt><trkpt lat="44.1848316" lon="12.1274008"><ele>28.0</ele><time>2026-04-16T17:16:37.76Z</time></trkpt><trkpt lat="44.184854" lon="12.1275044"><ele>28.0</ele><time>2026-04-16T17:16:40.757Z</time></trkpt><trkpt lat="44.1848837" lon="12.1276153"><ele>28.000000000000004</ele><time>2026-04-16T17:16:43.756Z</time></trkpt><trkpt lat="44.1848869" lon="12.1277157"><ele>28.0</ele><time>2026-04-16T17:16:45.755Z</time></trkpt><trkpt lat="44.184865" lon="12.127804"><ele>28.000000000000004</ele><time>2026-04-16T17:16:47.759Z</time></trkpt><trkpt lat="44.1848162" lon="12.1279048"><ele>28.0</ele><time>2026-04-16T17:16:50.763Z</time></trkpt><trkpt lat="44.1848284" lon="12.1280152"><ele>28.0</ele><time>2026-04-16T17:16:53.764Z</time></trkpt><trkpt lat="44.1848913" lon="12.1280814"><ele>28.0</ele><time>2026-04-16T17:16:55.767Z</time></trkpt><trkpt lat="44.1849615" lon="12.1281317"><ele>28.000000000000004</ele><time>2026-04-16T17:16:57.76Z</time></trkpt><trkpt lat="44.1850439" lon="12.1281734"><ele>28.0</ele><time>2026-04-16T17:16:59.763Z</time></trkpt><trkpt lat="44.1851119" lon="12.128219"><ele>28.500000000000004</ele><time>2026-04-16T17:17:01.759Z</time></trkpt><trkpt lat="44.185176" lon="12.1282649"><ele>29.0</ele><time>2026-04-16T17:17:03.765Z</time></trkpt><trkpt lat="44.1852308" lon="12.1281982"><ele>29.5</ele><time>2026-04-16T17:17:09.765Z</time></trkpt><trkpt lat="44.1852594" lon="12.1281107"><ele>30.0</ele><time>2026-04-16T17:17:11.766Z</time></trkpt><trkpt lat="44.1852786" lon="12.1280091"><ele>30.500000000000004</ele><time>2026-04-16T17:17:13.769Z</time></trkpt><trkpt lat="44.1853292" lon="12.12792"><ele>31.0</ele><time>2026-04-16T17:17:15.785Z</time></trkpt><trkpt lat="44.1854083" lon="12.1278491"><ele>31.166666666666668</ele><time>2026-04-16T17:17:17.756Z</time></trkpt><trkpt lat="44.1854486" lon="12.1277359"><ele>31.333333333333336</ele><time>2026-04-16T17:17:19.759Z</time></trkpt><trkpt lat="44.1854873" lon="12.1276097"><ele>31.5</ele><time>2026-04-16T17:17:21.767Z</time></trkpt><trkpt lat="44.1855331" lon="12.1274991"><ele>31.666666666666664</ele><time>2026-04-16T17:17:23.767Z</time></trkpt><trkpt lat="44.1855664" lon="12.1273957"><ele>31.833333333333332</ele><time>2026-04-16T17:17:25.781Z</time></trkpt><trkpt lat="44.1855984" lon="12.127302"><ele>32.0</ele><time>2026-04-16T17:17:27.772Z</time></trkpt><trkpt lat="44.1856549" lon="12.1272423"><ele>32.2</ele><time>2026-04-16T17:17:29.768Z</time></trkpt><trkpt lat="44.1857619" lon="12.1272055"><ele>32.400000000000006</ele><time>2026-04-16T17:17:31.773Z</time></trkpt><trkpt lat="44.1858165" lon="12.1270835"><ele>32.599999999999994</ele><time>2026-04-16T17:17:33.75Z</time></trkpt><trkpt lat="44.1858178" lon="12.1269471"><ele>32.8</ele><time>2026-04-16T17:17:35.768Z</time></trkpt><trkpt lat="44.1858818" lon="12.1268488"><ele>33.0</ele><time>2026-04-16T17:17:37.753Z</time></trkpt><trkpt lat="44.1859703" lon="12.1267692"><ele>33.0</ele><time>2026-04-16T17:17:39.755Z</time></trkpt><trkpt lat="44.1860607" lon="12.1266893"><ele>33.0</ele><time>2026-04-16T17:17:41.758Z</time></trkpt><trkpt lat="44.1861573" lon="12.1266117"><ele>33.0</ele><time>2026-04-16T17:17:43.758Z</time></trkpt><trkpt lat="44.1862545" lon="12.1265371"><ele>33.0</ele><time>2026-04-16T17:17:45.77Z</time></trkpt><trkpt lat="44.1863431" lon="12.1264564"><ele>33.0</ele><time>2026-04-16T17:17:47.759Z</time></trkpt><trkpt lat="44.1864229" lon="12.1263828"><ele>33.0</ele><time>2026-04-16T17:17:49.764Z</time></trkpt><trkpt lat="44.1864931" lon="12.1263009"><ele>33.0</ele><time>2026-04-16T17:17:51.762Z</time></trkpt><trkpt lat="44.1865525" lon="12.1262181"><ele>33.0</ele><time>2026-04-16T17:17:53.776Z</time></trkpt><trkpt lat="44.1866238" lon="12.1261926"><ele>33.0</ele><time>2026-04-16T17:17:55.78Z</time></trkpt><trkpt lat="44.1866904" lon="12.1261292"><ele>33.0</ele><time>2026-04-16T17:17:57.767Z</time></trkpt><trkpt lat="44.1867205" lon="12.1260444"><ele>33.0</ele><time>2026-04-16T17:17:59.764Z</time></trkpt><trkpt lat="44.1867583" lon="12.1259319"><ele>32.666666666666664</ele><time>2026-04-16T17:18:02.774Z</time></trkpt><trkpt lat="44.1868304" lon="12.1259261"><ele>32.333333333333336</ele><time>2026-04-16T17:18:04.775Z</time></trkpt><trkpt lat="44.1869015" lon="12.1259837"><ele>32.0</ele><time>2026-04-16T17:18:06.766Z</time></trkpt><trkpt lat="44.1869783" lon="12.126026"><ele>31.666666666666668</ele><time>2026-04-16T17:18:08.764Z</time></trkpt><trkpt lat="44.1870638" lon="12.1260317"><ele>31.333333333333336</ele><time>2026-04-16T17:18:10.765Z</time></trkpt><trkpt lat="44.1871428" lon="12.1260648"><ele>31.0</ele><time>2026-04-16T17:18:12.76Z</time></trkpt><trkpt lat="44.187227" lon="12.1261198"><ele>31.000000000000004</ele><time>2026-04-16T17:18:14.763Z</time></trkpt><trkpt lat="44.1873091" lon="12.1261874"><ele>31.0</ele><time>2026-04-16T17:18:16.762Z</time></trkpt><trkpt lat="44.1873818" lon="12.1262576"><ele>31.0</ele><time>2026-04-16T17:18:18.767Z</time></trkpt><trkpt lat="44.1874609" lon="12.126318"><ele>31.0</ele><time>2026-04-16T17:18:20.775Z</time></trkpt><trkpt lat="44.1875395" lon="12.1263589"><ele>31.000000000000004</ele><time>2026-04-16T17:18:22.767Z</time></trkpt><trkpt lat="44.1876046" lon="12.1264037"><ele>31.0</ele><time>2026-04-16T17:18:24.764Z</time></trkpt><trkpt lat="44.1876766" lon="12.1264409"><ele>31.200000000000003</ele><time>2026-04-16T17:18:26.77Z</time></trkpt><trkpt lat="44.1877488" lon="12.1264455"><ele>31.400000000000002</ele><time>2026-04-16T17:18:28.768Z</time></trkpt><trkpt lat="44.1878383" lon="12.1264538"><ele>31.6</ele><time>2026-04-16T17:18:30.755Z</time></trkpt><trkpt lat="44.1879244" lon="12.1264834"><ele>31.8</ele><time>2026-04-16T17:18:32.755Z</time></trkpt><trkpt lat="44.1880266" lon="12.1265216"><ele>32.0</ele><time>2026-04-16T17:18:34.756Z</time></trkpt><trkpt lat="44.1881163" lon="12.1265729"><ele>32.2</ele><time>2026-04-16T17:18:36.757Z</time></trkpt><trkpt lat="44.1882093" lon="12.1266185"><ele>32.400000000000006</ele><time>2026-04-16T17:18:38.757Z</time></trkpt><trkpt lat="44.1883022" lon="12.126627"><ele>32.599999999999994</ele><time>2026-04-16T17:18:40.758Z</time></trkpt><trkpt lat="44.1883951" lon="12.1266429"><ele>32.8</ele><time>2026-04-16T17:18:42.758Z</time></trkpt><trkpt lat="44.1884824" lon="12.1266601"><ele>33.0</ele><time>2026-04-16T17:18:44.757Z</time></trkpt><trkpt lat="44.1885763" lon="12.1266854"><ele>33.0</ele><time>2026-04-16T17:18:46.755Z</time></trkpt><trkpt lat="44.1886607" lon="12.1267107"><ele>33.0</ele><time>2026-04-16T17:18:48.768Z</time></trkpt><trkpt lat="44.1887462" lon="12.1267588"><ele>33.0</ele><time>2026-04-16T17:18:50.759Z</time></trkpt><trkpt lat="44.1888427" lon="12.1267884"><ele>33.0</ele><time>2026-04-16T17:18:52.756Z</time></trkpt><trkpt lat="44.188942" lon="12.1268221"><ele>33.0</ele><time>2026-04-16T17:18:54.755Z</time></trkpt><trkpt lat="44.1890385" lon="12.1268609"><ele>32.8</ele><time>2026-04-16T17:18:56.756Z</time></trkpt><trkpt lat="44.189132" lon="12.1268929"><ele>32.599999999999994</ele><time>2026-04-16T17:18:58.757Z</time></trkpt><trkpt lat="44.1892271" lon="12.1269271"><ele>32.400000000000006</ele><time>2026-04-16T17:19:00.752Z</time></trkpt><trkpt lat="44.1893097" lon="12.1269486"><ele>32.2</ele><time>2026-04-16T17:19:02.759Z</time></trkpt><trkpt lat="44.1893952" lon="12.1269701"><ele>32.0</ele><time>2026-04-16T17:19:04.764Z</time></trkpt><trkpt lat="44.1894887" lon="12.1269875"><ele>32.0</ele><time>2026-04-16T17:19:06.758Z</time></trkpt><trkpt lat="44.1895869" lon="12.1269892"><ele>32.0</ele><time>2026-04-16T17:19:08.759Z</time></trkpt><trkpt lat="44.1896823" lon="12.1269333"><ele>32.0</ele><time>2026-04-16T17:19:10.764Z</time></trkpt><trkpt lat="44.1897478" lon="12.1268082"><ele>32.0</ele><time>2026-04-16T17:19:12.765Z</time></trkpt><trkpt lat="44.1898" lon="12.1266842"><ele>32.0</ele><time>2026-04-16T17:19:14.774Z</time></trkpt><trkpt lat="44.1898601" lon="12.1265512"><ele>31.5</ele><time>2026-04-16T17:19:16.761Z</time></trkpt><trkpt lat="44.1898983" lon="12.1263947"><ele>31.0</ele><time>2026-04-16T17:19:18.766Z</time></trkpt><trkpt lat="44.189942" lon="12.1262493"><ele>30.5</ele><time>2026-04-16T17:19:20.766Z</time></trkpt><trkpt lat="44.190011" lon="12.1261239"><ele>30.0</ele><time>2026-04-16T17:19:22.763Z</time></trkpt><trkpt lat="44.1900864" lon="12.1260118"><ele>30.0</ele><time>2026-04-16T17:19:24.757Z</time></trkpt><trkpt lat="44.1901699" lon="12.1259069"><ele>30.0</ele><time>2026-04-16T17:19:26.779Z</time></trkpt><trkpt lat="44.1902431" lon="12.1257967"><ele>30.0</ele><time>2026-04-16T17:19:28.769Z</time></trkpt><trkpt lat="44.1902984" lon="12.1256816"><ele>30.0</ele><time>2026-04-16T17:19:30.77Z</time></trkpt><trkpt lat="44.1903387" lon="12.1255425"><ele>30.0</ele><time>2026-04-16T17:19:32.763Z</time></trkpt><trkpt lat="44.1903621" lon="12.1254005"><ele>30.0</ele><time>2026-04-16T17:19:34.768Z</time></trkpt><trkpt lat="44.1903627" lon="12.1252606"><ele>30.0</ele><time>2026-04-16T17:19:36.778Z</time></trkpt><trkpt lat="44.1903737" lon="12.1251154"><ele>30.0</ele><time>2026-04-16T17:19:38.753Z</time></trkpt><trkpt lat="44.1903908" lon="12.1249792"><ele>30.0</ele><time>2026-04-16T17:19:40.76Z</time></trkpt><trkpt lat="44.1904012" lon="12.1248517"><ele>30.0</ele><time>2026-04-16T17:19:42.76Z</time></trkpt><trkpt lat="44.1904116" lon="12.1247135"><ele>29.8</ele><time>2026-04-16T17:19:44.762Z</time></trkpt><trkpt lat="44.1904286" lon="12.1245765"><ele>29.6</ele><time>2026-04-16T17:19:46.779Z</time></trkpt><trkpt lat="44.1904481" lon="12.1244379"><ele>29.4</ele><time>2026-04-16T17:19:48.76Z</time></trkpt><trkpt lat="44.1905138" lon="12.1243537"><ele>29.2</ele><time>2026-04-16T17:19:50.774Z</time></trkpt><trkpt lat="44.1906196" lon="12.1243375"><ele>29.0</ele><time>2026-04-16T17:19:52.759Z</time></trkpt><trkpt lat="44.1907206" lon="12.1243206"><ele>29.0</ele><time>2026-04-16T17:19:54.764Z</time></trkpt><trkpt lat="44.1908216" lon="12.1243098"><ele>29.0</ele><time>2026-04-16T17:19:56.776Z</time></trkpt><trkpt lat="44.1909332" lon="12.124303"><ele>29.0</ele><time>2026-04-16T17:19:58.764Z</time></trkpt><trkpt lat="44.1910257" lon="12.1242937"><ele>29.0</ele><time>2026-04-16T17:20:00.768Z</time></trkpt><trkpt lat="44.1911199" lon="12.1242888"><ele>29.0</ele><time>2026-04-16T17:20:02.767Z</time></trkpt><trkpt lat="44.1912243" lon="12.1242829"><ele>29.0</ele><time>2026-04-16T17:20:04.765Z</time></trkpt><trkpt lat="44.1913305" lon="12.1242734"><ele>29.0</ele><time>2026-04-16T17:20:06.776Z</time></trkpt><trkpt lat="44.1914345" lon="12.1242533"><ele>29.0</ele><time>2026-04-16T17:20:08.76Z</time></trkpt><trkpt lat="44.1915358" lon="12.1242387"><ele>29.0</ele><time>2026-04-16T17:20:10.759Z</time></trkpt><trkpt lat="44.1916283" lon="12.1242253"><ele>29.0</ele><time>2026-04-16T17:20:12.758Z</time></trkpt><trkpt lat="44.1917253" lon="12.1242155"><ele>28.6</ele><time>2026-04-16T17:20:14.763Z</time></trkpt><trkpt lat="44.1918307" lon="12.1241901"><ele>28.2</ele><time>2026-04-16T17:20:16.774Z</time></trkpt><trkpt lat="44.1919339" lon="12.1241666"><ele>27.800000000000004</ele><time>2026-04-16T17:20:18.768Z</time></trkpt><trkpt lat="44.1920356" lon="12.1241605"><ele>27.400000000000002</ele><time>2026-04-16T17:20:20.761Z</time></trkpt><trkpt lat="44.1921352" lon="12.1241457"><ele>27.0</ele><time>2026-04-16T17:20:22.762Z</time></trkpt><trkpt lat="44.1922346" lon="12.1241308"><ele>27.0</ele><time>2026-04-16T17:20:24.76Z</time></trkpt><trkpt lat="44.1923315" lon="12.1241117"><ele>27.000000000000004</ele><time>2026-04-16T17:20:26.769Z</time></trkpt><trkpt lat="44.1924271" lon="12.1240901"><ele>27.000000000000004</ele><time>2026-04-16T17:20:28.766Z</time></trkpt><trkpt lat="44.1925273" lon="12.1240667"><ele>27.0</ele><time>2026-04-16T17:20:30.765Z</time></trkpt><trkpt lat="44.1926197" lon="12.1240343"><ele>27.0</ele><time>2026-04-16T17:20:32.763Z</time></trkpt><trkpt lat="44.1927132" lon="12.1240034"><ele>27.0</ele><time>2026-04-16T17:20:34.76Z</time></trkpt><trkpt lat="44.1928077" lon="12.1239761"><ele>27.000000000000004</ele><time>2026-04-16T17:20:36.772Z</time></trkpt><trkpt lat="44.1929072" lon="12.1239525"><ele>27.000000000000004</ele><time>2026-04-16T17:20:38.764Z</time></trkpt><trkpt lat="44.1930077" lon="12.1239258"><ele>27.0</ele><time>2026-04-16T17:20:40.765Z</time></trkpt><trkpt lat="44.1931048" lon="12.1239049"><ele>27.0</ele><time>2026-04-16T17:20:42.76Z</time></trkpt><trkpt lat="44.1932015" lon="12.1238756"><ele>27.0</ele><time>2026-04-16T17:20:44.765Z</time></trkpt><trkpt lat="44.1932943" lon="12.1238458"><ele>27.000000000000004</ele><time>2026-04-16T17:20:46.782Z</time></trkpt><trkpt lat="44.1933864" lon="12.1238298"><ele>27.000000000000004</ele><time>2026-04-16T17:20:48.765Z</time></trkpt><trkpt lat="44.1934788" lon="12.1238124"><ele>27.0</ele><time>2026-04-16T17:20:50.763Z</time></trkpt><trkpt lat="44.1935725" lon="12.1237989"><ele>27.0</ele><time>2026-04-16T17:20:52.79Z</time></trkpt><trkpt lat="44.1936607" lon="12.123785"><ele>27.0</ele><time>2026-04-16T17:20:54.769Z</time></trkpt><trkpt lat="44.193757" lon="12.1237614"><ele>27.000000000000004</ele><time>2026-04-16T17:20:56.775Z</time></trkpt><trkpt lat="44.1938503" lon="12.1237363"><ele>27.000000000000004</ele><time>2026-04-16T17:20:58.764Z</time></trkpt><trkpt lat="44.1939476" lon="12.1237147"><ele>27.0</ele><time>2026-04-16T17:21:00.766Z</time></trkpt><trkpt lat="44.1940416" lon="12.1236776"><ele>27.0</ele><time>2026-04-16T17:21:02.763Z</time></trkpt><trkpt lat="44.194142" lon="12.123648"><ele>26.8</ele><time>2026-04-16T17:21:04.76Z</time></trkpt><trkpt lat="44.1942462" lon="12.123614"><ele>26.6</ele><time>2026-04-16T17:21:06.772Z</time></trkpt><trkpt lat="44.1943412" lon="12.1235984"><ele>26.400000000000002</ele><time>2026-04-16T17:21:08.767Z</time></trkpt><trkpt lat="44.1944346" lon="12.1235845"><ele>26.200000000000003</ele><time>2026-04-16T17:21:10.765Z</time></trkpt><trkpt lat="44.1945332" lon="12.123555"><ele>26.0</ele><time>2026-04-16T17:21:12.765Z</time></trkpt><trkpt lat="44.1946326" lon="12.1235307"><ele>26.0</ele><time>2026-04-16T17:21:14.761Z</time></trkpt><trkpt lat="44.1947292" lon="12.1235145"><ele>26.0</ele><time>2026-04-16T17:21:16.77Z</time></trkpt><trkpt lat="44.194821" lon="12.1234929"><ele>26.0</ele><time>2026-04-16T17:21:18.756Z</time></trkpt><trkpt lat="44.1949139" lon="12.1234727"><ele>26.0</ele><time>2026-04-16T17:21:20.76Z</time></trkpt><trkpt lat="44.1950186" lon="12.1234571"><ele>26.0</ele><time>2026-04-16T17:21:22.77Z</time></trkpt><trkpt lat="44.1951186" lon="12.1234284"><ele>26.0</ele><time>2026-04-16T17:21:24.759Z</time></trkpt><trkpt lat="44.1952131" lon="12.1233977"><ele>26.0</ele><time>2026-04-16T17:21:26.759Z</time></trkpt><trkpt lat="44.1953044" lon="12.1233645"><ele>26.0</ele><time>2026-04-16T17:21:28.759Z</time></trkpt><trkpt lat="44.1953993" lon="12.1233502"><ele>26.0</ele><time>2026-04-16T17:21:30.767Z</time></trkpt><trkpt lat="44.1954923" lon="12.1233231"><ele>26.0</ele><time>2026-04-16T17:21:32.772Z</time></trkpt><trkpt lat="44.1955882" lon="12.1233032"><ele>26.200000000000003</ele><time>2026-04-16T17:21:34.766Z</time></trkpt><trkpt lat="44.1956905" lon="12.1232794"><ele>26.400000000000002</ele><time>2026-04-16T17:21:36.76Z</time></trkpt><trkpt lat="44.1958055" lon="12.1232487"><ele>26.6</ele><time>2026-04-16T17:21:38.758Z</time></trkpt><trkpt lat="44.1959209" lon="12.1232059"><ele>26.8</ele><time>2026-04-16T17:21:40.754Z</time></trkpt><trkpt lat="44.1959821" lon="12.1231844"><ele>27.0</ele><time>2026-04-16T17:21:41.768Z</time></trkpt><trkpt lat="44.1961037" lon="12.1231527"><ele>27.200000000000003</ele><time>2026-04-16T17:21:43.749Z</time></trkpt><trkpt lat="44.196225" lon="12.1231272"><ele>27.400000000000002</ele><time>2026-04-16T17:21:45.727Z</time></trkpt><trkpt lat="44.1963437" lon="12.1231055"><ele>27.599999999999998</ele><time>2026-04-16T17:21:47.686Z</time></trkpt><trkpt lat="44.1964678" lon="12.1230723"><ele>27.799999999999997</ele><time>2026-04-16T17:21:49.679Z</time></trkpt><trkpt lat="44.1965244" lon="12.1230284"><ele>28.0</ele><time>2026-04-16T17:21:50.716Z</time></trkpt><trkpt lat="44.1965915" lon="12.1229856"><ele>27.599999999999998</ele><time>2026-04-16T17:21:51.741Z</time></trkpt><trkpt lat="44.1966916" lon="12.1229394"><ele>27.199999999999996</ele><time>2026-04-16T17:21:53.76Z</time></trkpt><trkpt lat="44.1967984" lon="12.1229009"><ele>26.8</ele><time>2026-04-16T17:21:55.754Z</time></trkpt><trkpt lat="44.1969052" lon="12.122881"><ele>26.4</ele><time>2026-04-16T17:21:57.756Z</time></trkpt><trkpt lat="44.1970022" lon="12.1228702"><ele>26.0</ele><time>2026-04-16T17:21:59.76Z</time></trkpt><trkpt lat="44.1970835" lon="12.1228608"><ele>26.0</ele><time>2026-04-16T17:22:01.775Z</time></trkpt><trkpt lat="44.1971683" lon="12.1228515"><ele>26.0</ele><time>2026-04-16T17:22:03.771Z</time></trkpt><trkpt lat="44.1972593" lon="12.1228407"><ele>26.0</ele><time>2026-04-16T17:22:05.754Z</time></trkpt><trkpt lat="44.1973505" lon="12.1228277"><ele>26.0</ele><time>2026-04-16T17:22:07.758Z</time></trkpt><trkpt lat="44.197444" lon="12.1228047"><ele>26.0</ele><time>2026-04-16T17:22:09.76Z</time></trkpt><trkpt lat="44.1975427" lon="12.1227808"><ele>25.6</ele><time>2026-04-16T17:22:11.759Z</time></trkpt><trkpt lat="44.1976377" lon="12.1227574"><ele>25.200000000000003</ele><time>2026-04-16T17:22:13.76Z</time></trkpt><trkpt lat="44.1977304" lon="12.1227388"><ele>24.799999999999997</ele><time>2026-04-16T17:22:15.774Z</time></trkpt><trkpt lat="44.197827" lon="12.1227109"><ele>24.4</ele><time>2026-04-16T17:22:17.759Z</time></trkpt><trkpt lat="44.1979178" lon="12.1226863"><ele>24.0</ele><time>2026-04-16T17:22:19.76Z</time></trkpt><trkpt lat="44.1980025" lon="12.1226658"><ele>24.0</ele><time>2026-04-16T17:22:21.759Z</time></trkpt><trkpt lat="44.198087" lon="12.1226438"><ele>24.0</ele><time>2026-04-16T17:22:23.764Z</time></trkpt><trkpt lat="44.1981719" lon="12.1226023"><ele>24.0</ele><time>2026-04-16T17:22:25.759Z</time></trkpt><trkpt lat="44.1982231" lon="12.1225208"><ele>24.0</ele><time>2026-04-16T17:22:27.766Z</time></trkpt><trkpt lat="44.1982468" lon="12.1224088"><ele>24.0</ele><time>2026-04-16T17:22:29.767Z</time></trkpt><trkpt lat="44.1982619" lon="12.1223018"><ele>24.0</ele><time>2026-04-16T17:22:31.767Z</time></trkpt><trkpt lat="44.1982848" lon="12.1221909"><ele>24.0</ele><time>2026-04-16T17:22:33.771Z</time></trkpt><trkpt lat="44.1983196" lon="12.1220778"><ele>24.0</ele><time>2026-04-16T17:22:35.767Z</time></trkpt><trkpt lat="44.1983509" lon="12.1219669"><ele>24.0</ele><time>2026-04-16T17:22:37.768Z</time></trkpt><trkpt lat="44.1984081" lon="12.1218706"><ele>24.0</ele><time>2026-04-16T17:22:39.765Z</time></trkpt><trkpt lat="44.1984948" lon="12.1218061"><ele>24.0</ele><time>2026-04-16T17:22:41.755Z</time></trkpt><trkpt lat="44.198588" lon="12.1217748"><ele>24.0</ele><time>2026-04-16T17:22:43.746Z</time></trkpt><trkpt lat="44.1986816" lon="12.1217345"><ele>24.0</ele><time>2026-04-16T17:22:45.737Z</time></trkpt><trkpt lat="44.1987674" lon="12.1216923"><ele>24.0</ele><time>2026-04-16T17:22:47.713Z</time></trkpt><trkpt lat="44.1988624" lon="12.12168"><ele>24.0</ele><time>2026-04-16T17:22:49.759Z</time></trkpt><trkpt lat="44.1989536" lon="12.1216587"><ele>24.0</ele><time>2026-04-16T17:22:51.758Z</time></trkpt><trkpt lat="44.1990467" lon="12.1216282"><ele>24.2</ele><time>2026-04-16T17:22:53.761Z</time></trkpt><trkpt lat="44.1991266" lon="12.12159"><ele>24.4</ele><time>2026-04-16T17:22:55.773Z</time></trkpt><trkpt lat="44.1991633" lon="12.1214801"><ele>24.6</ele><time>2026-04-16T17:22:57.762Z</time></trkpt><trkpt lat="44.199124" lon="12.1213483"><ele>24.8</ele><time>2026-04-16T17:22:59.765Z</time></trkpt><trkpt lat="44.199096" lon="12.1212242"><ele>25.0</ele><time>2026-04-16T17:23:01.759Z</time></trkpt><trkpt lat="44.1991072" lon="12.1210975"><ele>25.0</ele><time>2026-04-16T17:23:03.765Z</time></trkpt><trkpt lat="44.1991363" lon="12.1209761"><ele>25.0</ele><time>2026-04-16T17:23:05.76Z</time></trkpt><trkpt lat="44.1991872" lon="12.1208607"><ele>25.0</ele><time>2026-04-16T17:23:07.756Z</time></trkpt><trkpt lat="44.1992392" lon="12.1207417"><ele>25.0</ele><time>2026-04-16T17:23:09.753Z</time></trkpt><trkpt lat="44.1992915" lon="12.1206302"><ele>25.0</ele><time>2026-04-16T17:23:11.75Z</time></trkpt><trkpt lat="44.1993393" lon="12.1205158"><ele>24.8</ele><time>2026-04-16T17:23:13.756Z</time></trkpt><trkpt lat="44.1993931" lon="12.120405"><ele>24.6</ele><time>2026-04-16T17:23:15.756Z</time></trkpt><trkpt lat="44.1994404" lon="12.1202918"><ele>24.4</ele><time>2026-04-16T17:23:17.758Z</time></trkpt><trkpt lat="44.1994885" lon="12.1201766"><ele>24.2</ele><time>2026-04-16T17:23:19.757Z</time></trkpt><trkpt lat="44.1995303" lon="12.1200561"><ele>24.0</ele><time>2026-04-16T17:23:21.758Z</time></trkpt><trkpt lat="44.1995732" lon="12.1199365"><ele>24.2</ele><time>2026-04-16T17:23:23.756Z</time></trkpt><trkpt lat="44.1996196" lon="12.1198086"><ele>24.4</ele><time>2026-04-16T17:23:25.756Z</time></trkpt><trkpt lat="44.1996677" lon="12.1196811"><ele>24.6</ele><time>2026-04-16T17:23:27.758Z</time></trkpt><trkpt lat="44.1997116" lon="12.1195507"><ele>24.8</ele><time>2026-04-16T17:23:29.76Z</time></trkpt><trkpt lat="44.1997564" lon="12.1194257"><ele>25.0</ele><time>2026-04-16T17:23:31.759Z</time></trkpt><trkpt lat="44.1998061" lon="12.1193052"><ele>24.8</ele><time>2026-04-16T17:23:33.763Z</time></trkpt><trkpt lat="44.1998537" lon="12.1191847"><ele>24.6</ele><time>2026-04-16T17:23:35.759Z</time></trkpt><trkpt lat="44.1998988" lon="12.1190611"><ele>24.4</ele><time>2026-04-16T17:23:37.76Z</time></trkpt><trkpt lat="44.1999497" lon="12.1189402"><ele>24.2</ele><time>2026-04-16T17:23:39.757Z</time></trkpt><trkpt lat="44.200002" lon="12.1188228"><ele>24.0</ele><time>2026-04-16T17:23:41.758Z</time></trkpt><trkpt lat="44.2000535" lon="12.1187093"><ele>24.2</ele><time>2026-04-16T17:23:43.762Z</time></trkpt><trkpt lat="44.2001016" lon="12.11859"><ele>24.4</ele><time>2026-04-16T17:23:45.759Z</time></trkpt><trkpt lat="44.2001536" lon="12.1184735"><ele>24.6</ele><time>2026-04-16T17:23:47.762Z</time></trkpt><trkpt lat="44.200208" lon="12.1183595"><ele>24.8</ele><time>2026-04-16T17:23:49.762Z</time></trkpt><trkpt lat="44.2002597" lon="12.1182446"><ele>25.0</ele><time>2026-04-16T17:23:51.765Z</time></trkpt><trkpt lat="44.2003129" lon="12.1181329"><ele>25.0</ele><time>2026-04-16T17:23:53.764Z</time></trkpt><trkpt lat="44.2003649" lon="12.1180128"><ele>25.0</ele><time>2026-04-16T17:23:55.76Z</time></trkpt><trkpt lat="44.2004148" lon="12.117893"><ele>25.0</ele><time>2026-04-16T17:23:57.772Z</time></trkpt><trkpt lat="44.2004691" lon="12.1177759"><ele>25.0</ele><time>2026-04-16T17:23:59.762Z</time></trkpt><trkpt lat="44.2005248" lon="12.1176514"><ele>25.0</ele><time>2026-04-16T17:24:01.759Z</time></trkpt><trkpt lat="44.2005739" lon="12.1175285"><ele>25.0</ele><time>2026-04-16T17:24:03.755Z</time></trkpt><trkpt lat="44.2006203" lon="12.1174042"><ele>25.0</ele><time>2026-04-16T17:24:05.756Z</time></trkpt><trkpt lat="44.2006587" lon="12.1172817"><ele>25.0</ele><time>2026-04-16T17:24:07.753Z</time></trkpt><trkpt lat="44.2007077" lon="12.1171579"><ele>25.0</ele><time>2026-04-16T17:24:09.756Z</time></trkpt><trkpt lat="44.2007608" lon="12.1170175"><ele>25.0</ele><time>2026-04-16T17:24:11.755Z</time></trkpt><trkpt lat="44.2008221" lon="12.1168776"><ele>25.0</ele><time>2026-04-16T17:24:13.758Z</time></trkpt><trkpt lat="44.2008786" lon="12.1167449"><ele>25.0</ele><time>2026-04-16T17:24:15.757Z</time></trkpt><trkpt lat="44.2009405" lon="12.1166188"><ele>25.0</ele><time>2026-04-16T17:24:17.755Z</time></trkpt><trkpt lat="44.201" lon="12.1164936"><ele>25.0</ele><time>2026-04-16T17:24:19.761Z</time></trkpt><trkpt lat="44.2010502" lon="12.1163676"><ele>25.0</ele><time>2026-04-16T17:24:21.764Z</time></trkpt><trkpt lat="44.2010963" lon="12.1162411"><ele>25.0</ele><time>2026-04-16T17:24:23.76Z</time></trkpt><trkpt lat="44.2011475" lon="12.1161156"><ele>25.0</ele><time>2026-04-16T17:24:25.762Z</time></trkpt><trkpt lat="44.2012033" lon="12.1159893"><ele>25.0</ele><time>2026-04-16T17:24:27.762Z</time></trkpt><trkpt lat="44.201258" lon="12.1158571"><ele>25.0</ele><time>2026-04-16T17:24:29.762Z</time></trkpt><trkpt lat="44.2013146" lon="12.115723"><ele>25.0</ele><time>2026-04-16T17:24:31.761Z</time></trkpt><trkpt lat="44.2013652" lon="12.1155933"><ele>24.8</ele><time>2026-04-16T17:24:33.759Z</time></trkpt><trkpt lat="44.201418" lon="12.1154655"><ele>24.6</ele><time>2026-04-16T17:24:35.761Z</time></trkpt><trkpt lat="44.2014719" lon="12.1153358"><ele>24.4</ele><time>2026-04-16T17:24:37.763Z</time></trkpt><trkpt lat="44.2015226" lon="12.115201"><ele>24.2</ele><time>2026-04-16T17:24:39.763Z</time></trkpt><trkpt lat="44.2015707" lon="12.1150746"><ele>24.0</ele><time>2026-04-16T17:24:41.762Z</time></trkpt><trkpt lat="44.201621" lon="12.1149505"><ele>23.799999999999997</ele><time>2026-04-16T17:24:43.763Z</time></trkpt><trkpt lat="44.2016657" lon="12.1148316"><ele>23.599999999999998</ele><time>2026-04-16T17:24:45.76Z</time></trkpt><trkpt lat="44.2017166" lon="12.114714"><ele>23.4</ele><time>2026-04-16T17:24:47.761Z</time></trkpt><trkpt lat="44.2017639" lon="12.1145945"><ele>23.2</ele><time>2026-04-16T17:24:49.763Z</time></trkpt><trkpt lat="44.2018078" lon="12.114472"><ele>23.0</ele><time>2026-04-16T17:24:51.765Z</time></trkpt><trkpt lat="44.2018502" lon="12.114348"><ele>23.0</ele><time>2026-04-16T17:24:53.763Z</time></trkpt><trkpt lat="44.201893" lon="12.1142266"><ele>23.0</ele><time>2026-04-16T17:24:55.761Z</time></trkpt><trkpt lat="44.2019333" lon="12.1141062"><ele>23.0</ele><time>2026-04-16T17:24:57.756Z</time></trkpt><trkpt lat="44.2019781" lon="12.1139892"><ele>23.0</ele><time>2026-04-16T17:24:59.771Z</time></trkpt><trkpt lat="44.2020288" lon="12.1138697"><ele>23.0</ele><time>2026-04-16T17:25:01.761Z</time></trkpt><trkpt lat="44.2020729" lon="12.1137464"><ele>23.4</ele><time>2026-04-16T17:25:03.757Z</time></trkpt><trkpt lat="44.2021203" lon="12.113625"><ele>23.799999999999997</ele><time>2026-04-16T17:25:05.76Z</time></trkpt><trkpt lat="44.2021651" lon="12.1135073"><ele>24.2</ele><time>2026-04-16T17:25:07.761Z</time></trkpt><trkpt lat="44.2022204" lon="12.113386"><ele>24.6</ele><time>2026-04-16T17:25:09.759Z</time></trkpt><trkpt lat="44.2022711" lon="12.1132596"><ele>25.0</ele><time>2026-04-16T17:25:11.759Z</time></trkpt><trkpt lat="44.202322" lon="12.1131328"><ele>25.2</ele><time>2026-04-16T17:25:13.76Z</time></trkpt><trkpt lat="44.2023739" lon="12.1130035"><ele>25.4</ele><time>2026-04-16T17:25:15.76Z</time></trkpt><trkpt lat="44.2024276" lon="12.1128682"><ele>25.6</ele><time>2026-04-16T17:25:17.762Z</time></trkpt><trkpt lat="44.2024739" lon="12.1127337"><ele>25.8</ele><time>2026-04-16T17:25:19.763Z</time></trkpt><trkpt lat="44.2025214" lon="12.1126026"><ele>26.0</ele><time>2026-04-16T17:25:21.763Z</time></trkpt><trkpt lat="44.2025711" lon="12.1124755"><ele>25.8</ele><time>2026-04-16T17:25:23.776Z</time></trkpt><trkpt lat="44.2026216" lon="12.1123534"><ele>25.6</ele><time>2026-04-16T17:25:25.76Z</time></trkpt><trkpt lat="44.2026685" lon="12.1122325"><ele>25.4</ele><time>2026-04-16T17:25:27.762Z</time></trkpt><trkpt lat="44.2027149" lon="12.1121076"><ele>25.2</ele><time>2026-04-16T17:25:29.758Z</time></trkpt><trkpt lat="44.2027641" lon="12.111985"><ele>25.0</ele><time>2026-04-16T17:25:31.762Z</time></trkpt><trkpt lat="44.2028151" lon="12.111867"><ele>25.0</ele><time>2026-04-16T17:25:33.768Z</time></trkpt><trkpt lat="44.202866" lon="12.1117459"><ele>25.0</ele><time>2026-04-16T17:25:35.767Z</time></trkpt><trkpt lat="44.2029163" lon="12.1116248"><ele>25.0</ele><time>2026-04-16T17:25:37.77Z</time></trkpt><trkpt lat="44.2029631" lon="12.111502"><ele>25.0</ele><time>2026-04-16T17:25:39.771Z</time></trkpt><trkpt lat="44.2030089" lon="12.1113814"><ele>25.0</ele><time>2026-04-16T17:25:41.759Z</time></trkpt><trkpt lat="44.2030566" lon="12.1112651"><ele>24.6</ele><time>2026-04-16T17:25:43.768Z</time></trkpt><trkpt lat="44.2030992" lon="12.1111505"><ele>24.2</ele><time>2026-04-16T17:25:45.757Z</time></trkpt><trkpt lat="44.2031464" lon="12.111026"><ele>23.799999999999997</ele><time>2026-04-16T17:25:47.762Z</time></trkpt><trkpt lat="44.2031923" lon="12.1108989"><ele>23.4</ele><time>2026-04-16T17:25:49.764Z</time></trkpt><trkpt lat="44.2032376" lon="12.1107722"><ele>23.0</ele><time>2026-04-16T17:25:51.761Z</time></trkpt><trkpt lat="44.2032904" lon="12.1106464"><ele>23.0</ele><time>2026-04-16T17:25:53.764Z</time></trkpt><trkpt lat="44.2033405" lon="12.1105226"><ele>23.0</ele><time>2026-04-16T17:25:55.76Z</time></trkpt><trkpt lat="44.2033889" lon="12.1103996"><ele>23.0</ele><time>2026-04-16T17:25:57.758Z</time></trkpt><trkpt lat="44.2034406" lon="12.1102703"><ele>23.0</ele><time>2026-04-16T17:25:59.76Z</time></trkpt><trkpt lat="44.2034955" lon="12.1101462"><ele>23.0</ele><time>2026-04-16T17:26:01.768Z</time></trkpt><trkpt lat="44.2035481" lon="12.1100295"><ele>23.0</ele><time>2026-04-16T17:26:03.758Z</time></trkpt><trkpt lat="44.2036076" lon="12.1099136"><ele>23.0</ele><time>2026-04-16T17:26:05.755Z</time></trkpt><trkpt lat="44.2036678" lon="12.1097994"><ele>23.0</ele><time>2026-04-16T17:26:07.759Z</time></trkpt><trkpt lat="44.2037239" lon="12.1096933"><ele>23.0</ele><time>2026-04-16T17:26:09.752Z</time></trkpt><trkpt lat="44.2037801" lon="12.1095864"><ele>23.0</ele><time>2026-04-16T17:26:11.749Z</time></trkpt><trkpt lat="44.2038382" lon="12.1094773"><ele>23.0</ele><time>2026-04-16T17:26:13.758Z</time></trkpt><trkpt lat="44.2038936" lon="12.1093674"><ele>23.0</ele><time>2026-04-16T17:26:15.757Z</time></trkpt><trkpt lat="44.2039492" lon="12.1092593"><ele>23.0</ele><time>2026-04-16T17:26:17.755Z</time></trkpt><trkpt lat="44.2039985" lon="12.1091503"><ele>23.0</ele><time>2026-04-16T17:26:19.758Z</time></trkpt><trkpt lat="44.2040406" lon="12.1090369"><ele>23.0</ele><time>2026-04-16T17:26:21.759Z</time></trkpt><trkpt lat="44.2040899" lon="12.1089256"><ele>23.0</ele><time>2026-04-16T17:26:23.764Z</time></trkpt><trkpt lat="44.2041343" lon="12.1088132"><ele>23.0</ele><time>2026-04-16T17:26:25.758Z</time></trkpt><trkpt lat="44.2041749" lon="12.1087028"><ele>23.0</ele><time>2026-04-16T17:26:27.757Z</time></trkpt><trkpt lat="44.2042221" lon="12.108605"><ele>23.0</ele><time>2026-04-16T17:26:29.762Z</time></trkpt><trkpt lat="44.2043071" lon="12.1085998"><ele>23.0</ele><time>2026-04-16T17:26:31.763Z</time></trkpt><trkpt lat="44.2044032" lon="12.1086717"><ele>23.0</ele><time>2026-04-16T17:26:33.76Z</time></trkpt><trkpt lat="44.2045" lon="12.1087398"><ele>23.0</ele><time>2026-04-16T17:26:35.76Z</time></trkpt><trkpt lat="44.2045999" lon="12.1088055"><ele>23.0</ele><time>2026-04-16T17:26:37.761Z</time></trkpt><trkpt lat="44.2047019" lon="12.1088759"><ele>23.0</ele><time>2026-04-16T17:26:39.76Z</time></trkpt><trkpt lat="44.204801" lon="12.1089458"><ele>23.0</ele><time>2026-04-16T17:26:41.764Z</time></trkpt><trkpt lat="44.2048943" lon="12.1090211"><ele>22.799999999999997</ele><time>2026-04-16T17:26:43.761Z</time></trkpt><trkpt lat="44.2049877" lon="12.1090919"><ele>22.6</ele><time>2026-04-16T17:26:45.76Z</time></trkpt><trkpt lat="44.2050796" lon="12.109157"><ele>22.4</ele><time>2026-04-16T17:26:47.76Z</time></trkpt><trkpt lat="44.2051706" lon="12.1092168"><ele>22.200000000000003</ele><time>2026-04-16T17:26:49.759Z</time></trkpt><trkpt lat="44.2052608" lon="12.1092748"><ele>22.0</ele><time>2026-04-16T17:26:51.763Z</time></trkpt><trkpt lat="44.2053551" lon="12.1093388"><ele>22.0</ele><time>2026-04-16T17:26:53.762Z</time></trkpt><trkpt lat="44.2054488" lon="12.1093944"><ele>22.0</ele><time>2026-04-16T17:26:55.762Z</time></trkpt><trkpt lat="44.2055403" lon="12.1094564"><ele>22.0</ele><time>2026-04-16T17:26:57.758Z</time></trkpt><trkpt lat="44.2056301" lon="12.1095265"><ele>22.0</ele><time>2026-04-16T17:26:59.76Z</time></trkpt><trkpt lat="44.2057189" lon="12.1095942"><ele>22.0</ele><time>2026-04-16T17:27:01.762Z</time></trkpt><trkpt lat="44.2058117" lon="12.1096643"><ele>22.200000000000003</ele><time>2026-04-16T17:27:03.784Z</time></trkpt><trkpt lat="44.2059052" lon="12.1097359"><ele>22.4</ele><time>2026-04-16T17:27:05.758Z</time></trkpt><trkpt lat="44.2060017" lon="12.1098004"><ele>22.6</ele><time>2026-04-16T17:27:07.762Z</time></trkpt><trkpt lat="44.2060959" lon="12.1098641"><ele>22.799999999999997</ele><time>2026-04-16T17:27:09.762Z</time></trkpt><trkpt lat="44.206184" lon="12.1099264"><ele>23.0</ele><time>2026-04-16T17:27:11.762Z</time></trkpt><trkpt lat="44.2062691" lon="12.1099862"><ele>23.0</ele><time>2026-04-16T17:27:13.762Z</time></trkpt><trkpt lat="44.2063537" lon="12.110051"><ele>23.0</ele><time>2026-04-16T17:27:15.761Z</time></trkpt><trkpt lat="44.2064427" lon="12.1101093"><ele>23.0</ele><time>2026-04-16T17:27:17.762Z</time></trkpt><trkpt lat="44.2065295" lon="12.1101679"><ele>23.0</ele><time>2026-04-16T17:27:19.764Z</time></trkpt><trkpt lat="44.2066189" lon="12.1102265"><ele>23.0</ele><time>2026-04-16T17:27:21.764Z</time></trkpt><trkpt lat="44.2067058" lon="12.1102853"><ele>23.0</ele><time>2026-04-16T17:27:23.763Z</time></trkpt><trkpt lat="44.2067878" lon="12.1103408"><ele>23.0</ele><time>2026-04-16T17:27:25.764Z</time></trkpt><trkpt lat="44.2068714" lon="12.1103985"><ele>23.0</ele><time>2026-04-16T17:27:27.762Z</time></trkpt><trkpt lat="44.2069482" lon="12.1104585"><ele>23.0</ele><time>2026-04-16T17:27:29.768Z</time></trkpt><trkpt lat="44.2070233" lon="12.1105189"><ele>23.0</ele><time>2026-04-16T17:27:31.762Z</time></trkpt><trkpt lat="44.2071054" lon="12.1105776"><ele>23.0</ele><time>2026-04-16T17:27:33.77Z</time></trkpt><trkpt lat="44.2071831" lon="12.110639"><ele>23.0</ele><time>2026-04-16T17:27:35.769Z</time></trkpt><trkpt lat="44.2072638" lon="12.1106832"><ele>23.0</ele><time>2026-04-16T17:27:37.763Z</time></trkpt><trkpt lat="44.207343" lon="12.1106273"><ele>23.0</ele><time>2026-04-16T17:27:39.769Z</time></trkpt><trkpt lat="44.2074034" lon="12.1104897"><ele>23.0</ele><time>2026-04-16T17:27:41.782Z</time></trkpt><trkpt lat="44.2074563" lon="12.1103335"><ele>23.0</ele><time>2026-04-16T17:27:43.764Z</time></trkpt><trkpt lat="44.2075106" lon="12.110178"><ele>23.0</ele><time>2026-04-16T17:27:45.763Z</time></trkpt><trkpt lat="44.2075595" lon="12.1100201"><ele>23.0</ele><time>2026-04-16T17:27:47.759Z</time></trkpt><trkpt lat="44.2076007" lon="12.1098674"><ele>23.0</ele><time>2026-04-16T17:27:49.764Z</time></trkpt><trkpt lat="44.2076514" lon="12.1097264"><ele>22.799999999999997</ele><time>2026-04-16T17:27:51.764Z</time></trkpt><trkpt lat="44.2077033" lon="12.1095925"><ele>22.6</ele><time>2026-04-16T17:27:53.762Z</time></trkpt><trkpt lat="44.2077443" lon="12.1094549"><ele>22.4</ele><time>2026-04-16T17:27:55.759Z</time></trkpt><trkpt lat="44.2077896" lon="12.1093289"><ele>22.200000000000003</ele><time>2026-04-16T17:27:57.761Z</time></trkpt><trkpt lat="44.2078338" lon="12.1091988"><ele>22.0</ele><time>2026-04-16T17:27:59.761Z</time></trkpt><trkpt lat="44.2078778" lon="12.1090663"><ele>22.0</ele><time>2026-04-16T17:28:01.76Z</time></trkpt><trkpt lat="44.2079169" lon="12.108937"><ele>22.0</ele><time>2026-04-16T17:28:03.761Z</time></trkpt><trkpt lat="44.2079568" lon="12.1088098"><ele>22.0</ele><time>2026-04-16T17:28:05.774Z</time></trkpt><trkpt lat="44.2080028" lon="12.1086931"><ele>22.0</ele><time>2026-04-16T17:28:07.763Z</time></trkpt><trkpt lat="44.2080472" lon="12.1085716"><ele>22.0</ele><time>2026-04-16T17:28:09.761Z</time></trkpt><trkpt lat="44.2080907" lon="12.1084479"><ele>22.0</ele><time>2026-04-16T17:28:11.761Z</time></trkpt><trkpt lat="44.2081248" lon="12.1083191"><ele>22.0</ele><time>2026-04-16T17:28:13.763Z</time></trkpt><trkpt lat="44.2081616" lon="12.1081926"><ele>22.0</ele><time>2026-04-16T17:28:15.762Z</time></trkpt><trkpt lat="44.2081992" lon="12.1080627"><ele>22.0</ele><time>2026-04-16T17:28:17.764Z</time></trkpt><trkpt lat="44.2082319" lon="12.1079318"><ele>22.0</ele><time>2026-04-16T17:28:19.763Z</time></trkpt><trkpt lat="44.2082546" lon="12.107801"><ele>22.0</ele><time>2026-04-16T17:28:21.765Z</time></trkpt><trkpt lat="44.2082643" lon="12.1076758"><ele>22.0</ele><time>2026-04-16T17:28:23.762Z</time></trkpt><trkpt lat="44.2082175" lon="12.1075689"><ele>22.0</ele><time>2026-04-16T17:28:25.772Z</time></trkpt><trkpt lat="44.2081277" lon="12.1075064"><ele>22.0</ele><time>2026-04-16T17:28:27.77Z</time></trkpt><trkpt lat="44.2080352" lon="12.1074467"><ele>22.0</ele><time>2026-04-16T17:28:29.766Z</time></trkpt><trkpt lat="44.2079414" lon="12.1073942"><ele>22.0</ele><time>2026-04-16T17:28:31.767Z</time></trkpt><trkpt lat="44.2078756" lon="12.1073146"><ele>22.0</ele><time>2026-04-16T17:28:33.767Z</time></trkpt><trkpt lat="44.207848" lon="12.1071847"><ele>22.0</ele><time>2026-04-16T17:28:35.766Z</time></trkpt><trkpt lat="44.2078715" lon="12.1070381"><ele>22.0</ele><time>2026-04-16T17:28:37.765Z</time></trkpt><trkpt lat="44.2079171" lon="12.1069"><ele>22.0</ele><time>2026-04-16T17:28:39.755Z</time></trkpt><trkpt lat="44.2079613" lon="12.1067697"><ele>22.0</ele><time>2026-04-16T17:28:41.763Z</time></trkpt><trkpt lat="44.2080087" lon="12.1066549"><ele>22.0</ele><time>2026-04-16T17:28:43.767Z</time></trkpt><trkpt lat="44.2080532" lon="12.1065333"><ele>22.0</ele><time>2026-04-16T17:28:45.764Z</time></trkpt><trkpt lat="44.2081003" lon="12.1064122"><ele>22.0</ele><time>2026-04-16T17:28:47.764Z</time></trkpt><trkpt lat="44.2081419" lon="12.106294"><ele>22.0</ele><time>2026-04-16T17:28:49.764Z</time></trkpt><trkpt lat="44.2081804" lon="12.1061836"><ele>22.200000000000003</ele><time>2026-04-16T17:28:51.769Z</time></trkpt><trkpt lat="44.2082294" lon="12.1060681"><ele>22.4</ele><time>2026-04-16T17:28:53.774Z</time></trkpt><trkpt lat="44.2082886" lon="12.1059462"><ele>22.6</ele><time>2026-04-16T17:28:55.765Z</time></trkpt><trkpt lat="44.2083481" lon="12.1058297"><ele>22.799999999999997</ele><time>2026-04-16T17:28:57.756Z</time></trkpt><trkpt lat="44.2083993" lon="12.1057124"><ele>23.0</ele><time>2026-04-16T17:28:59.764Z</time></trkpt><trkpt lat="44.2084459" lon="12.1055915"><ele>23.0</ele><time>2026-04-16T17:29:01.76Z</time></trkpt><trkpt lat="44.2084882" lon="12.1054771"><ele>23.0</ele><time>2026-04-16T17:29:03.759Z</time></trkpt><trkpt lat="44.2085302" lon="12.1053559"><ele>23.0</ele><time>2026-04-16T17:29:05.762Z</time></trkpt><trkpt lat="44.2085763" lon="12.1052511"><ele>23.0</ele><time>2026-04-16T17:29:07.784Z</time></trkpt><trkpt lat="44.2086102" lon="12.1051316"><ele>23.0</ele><time>2026-04-16T17:29:09.766Z</time></trkpt><trkpt lat="44.2086576" lon="12.1050109"><ele>23.2</ele><time>2026-04-16T17:29:11.764Z</time></trkpt><trkpt lat="44.2087037" lon="12.1048949"><ele>23.4</ele><time>2026-04-16T17:29:13.766Z</time></trkpt><trkpt lat="44.208761" lon="12.1047848"><ele>23.599999999999998</ele><time>2026-04-16T17:29:15.76Z</time></trkpt><trkpt lat="44.2088389" lon="12.1047077"><ele>23.799999999999997</ele><time>2026-04-16T17:29:17.76Z</time></trkpt><trkpt lat="44.2089288" lon="12.1046542"><ele>24.0</ele><time>2026-04-16T17:29:19.763Z</time></trkpt><trkpt lat="44.2089948" lon="12.1045589"><ele>24.0</ele><time>2026-04-16T17:29:21.771Z</time></trkpt><trkpt lat="44.2090091" lon="12.1044271"><ele>24.0</ele><time>2026-04-16T17:29:23.765Z</time></trkpt><trkpt lat="44.2090105" lon="12.1042865"><ele>24.0</ele><time>2026-04-16T17:29:25.767Z</time></trkpt><trkpt lat="44.2090211" lon="12.1041471"><ele>24.0</ele><time>2026-04-16T17:29:27.765Z</time></trkpt><trkpt lat="44.2090458" lon="12.1040169"><ele>24.0</ele><time>2026-04-16T17:29:29.766Z</time></trkpt><trkpt lat="44.2090874" lon="12.1038912"><ele>24.0</ele><time>2026-04-16T17:29:31.763Z</time></trkpt><trkpt lat="44.2091272" lon="12.1037672"><ele>24.0</ele><time>2026-04-16T17:29:33.765Z</time></trkpt><trkpt lat="44.209178" lon="12.1036432"><ele>24.0</ele><time>2026-04-16T17:29:35.758Z</time></trkpt><trkpt lat="44.2092244" lon="12.1035202"><ele>24.0</ele><time>2026-04-16T17:29:37.763Z</time></trkpt><trkpt lat="44.2092711" lon="12.103404"><ele>24.0</ele><time>2026-04-16T17:29:39.764Z</time></trkpt><trkpt lat="44.2093126" lon="12.103286"><ele>23.799999999999997</ele><time>2026-04-16T17:29:41.764Z</time></trkpt><trkpt lat="44.2093586" lon="12.1031633"><ele>23.599999999999998</ele><time>2026-04-16T17:29:43.763Z</time></trkpt><trkpt lat="44.2094062" lon="12.1030456"><ele>23.4</ele><time>2026-04-16T17:29:45.763Z</time></trkpt><trkpt lat="44.2094531" lon="12.1029233"><ele>23.2</ele><time>2026-04-16T17:29:47.762Z</time></trkpt><trkpt lat="44.2094938" lon="12.1028027"><ele>23.0</ele><time>2026-04-16T17:29:49.764Z</time></trkpt><trkpt lat="44.2095397" lon="12.1026867"><ele>23.0</ele><time>2026-04-16T17:29:51.764Z</time></trkpt><trkpt lat="44.2095864" lon="12.1025664"><ele>23.0</ele><time>2026-04-16T17:29:53.763Z</time></trkpt><trkpt lat="44.2096318" lon="12.1024513"><ele>23.0</ele><time>2026-04-16T17:29:55.763Z</time></trkpt><trkpt lat="44.2096828" lon="12.102337"><ele>23.0</ele><time>2026-04-16T17:29:57.76Z</time></trkpt><trkpt lat="44.209732" lon="12.1022214"><ele>23.0</ele><time>2026-04-16T17:29:59.76Z</time></trkpt><trkpt lat="44.2097897" lon="12.1021114"><ele>23.4</ele><time>2026-04-16T17:30:01.763Z</time></trkpt><trkpt lat="44.2098455" lon="12.1019951"><ele>23.799999999999997</ele><time>2026-04-16T17:30:03.761Z</time></trkpt><trkpt lat="44.2099" lon="12.1018808"><ele>24.2</ele><time>2026-04-16T17:30:05.757Z</time></trkpt><trkpt lat="44.2099579" lon="12.1017634"><ele>24.6</ele><time>2026-04-16T17:30:07.761Z</time></trkpt><trkpt lat="44.2100116" lon="12.1016405"><ele>25.0</ele><time>2026-04-16T17:30:09.788Z</time></trkpt><trkpt lat="44.2100699" lon="12.1015284"><ele>25.0</ele><time>2026-04-16T17:30:11.761Z</time></trkpt><trkpt lat="44.2101288" lon="12.1014126"><ele>25.0</ele><time>2026-04-16T17:30:13.76Z</time></trkpt><trkpt lat="44.2101844" lon="12.1012965"><ele>25.0</ele><time>2026-04-16T17:30:15.761Z</time></trkpt><trkpt lat="44.2102515" lon="12.1011909"><ele>25.0</ele><time>2026-04-16T17:30:17.761Z</time></trkpt><trkpt lat="44.2103145" lon="12.1010829"><ele>25.0</ele><time>2026-04-16T17:30:19.759Z</time></trkpt><trkpt lat="44.2103822" lon="12.1009671"><ele>25.0</ele><time>2026-04-16T17:30:21.768Z</time></trkpt><trkpt lat="44.2104494" lon="12.1008477"><ele>25.0</ele><time>2026-04-16T17:30:23.765Z</time></trkpt><trkpt lat="44.2105209" lon="12.1007288"><ele>25.0</ele><time>2026-04-16T17:30:25.761Z</time></trkpt><trkpt lat="44.2105929" lon="12.1006075"><ele>25.0</ele><time>2026-04-16T17:30:27.766Z</time></trkpt><trkpt lat="44.2106652" lon="12.1004832"><ele>25.0</ele><time>2026-04-16T17:30:29.762Z</time></trkpt><trkpt lat="44.2107376" lon="12.1003597"><ele>25.2</ele><time>2026-04-16T17:30:31.761Z</time></trkpt><trkpt lat="44.2108069" lon="12.1002445"><ele>25.4</ele><time>2026-04-16T17:30:33.761Z</time></trkpt><trkpt lat="44.2108751" lon="12.1001326"><ele>25.6</ele><time>2026-04-16T17:30:35.762Z</time></trkpt><trkpt lat="44.210946" lon="12.1000131"><ele>25.8</ele><time>2026-04-16T17:30:37.753Z</time></trkpt><trkpt lat="44.2110148" lon="12.099899"><ele>26.0</ele><time>2026-04-16T17:30:39.771Z</time></trkpt><trkpt lat="44.2110779" lon="12.099785"><ele>26.0</ele><time>2026-04-16T17:30:41.761Z</time></trkpt><trkpt lat="44.2111408" lon="12.0996805"><ele>26.0</ele><time>2026-04-16T17:30:43.76Z</time></trkpt><trkpt lat="44.2111995" lon="12.0995815"><ele>26.0</ele><time>2026-04-16T17:30:45.76Z</time></trkpt><trkpt lat="44.2112607" lon="12.0994726"><ele>26.0</ele><time>2026-04-16T17:30:47.759Z</time></trkpt><trkpt lat="44.2113232" lon="12.0993625"><ele>26.0</ele><time>2026-04-16T17:30:49.759Z</time></trkpt><trkpt lat="44.2113744" lon="12.0992414"><ele>26.0</ele><time>2026-04-16T17:30:51.762Z</time></trkpt><trkpt lat="44.2113977" lon="12.0991084"><ele>26.0</ele><time>2026-04-16T17:30:53.764Z</time></trkpt><trkpt lat="44.2113476" lon="12.0989942"><ele>26.0</ele><time>2026-04-16T17:30:55.761Z</time></trkpt><trkpt lat="44.2112489" lon="12.0989175"><ele>26.0</ele><time>2026-04-16T17:30:57.761Z</time></trkpt><trkpt lat="44.2111521" lon="12.0988649"><ele>26.0</ele><time>2026-04-16T17:30:59.763Z</time></trkpt><trkpt lat="44.2110567" lon="12.098797"><ele>26.0</ele><time>2026-04-16T17:31:01.753Z</time></trkpt><trkpt lat="44.2109662" lon="12.0987426"><ele>26.0</ele><time>2026-04-16T17:31:03.766Z</time></trkpt><trkpt lat="44.2108739" lon="12.0986883"><ele>26.0</ele><time>2026-04-16T17:31:05.757Z</time></trkpt><trkpt lat="44.210785" lon="12.0986211"><ele>26.0</ele><time>2026-04-16T17:31:07.754Z</time></trkpt><trkpt lat="44.2106961" lon="12.0985572"><ele>26.0</ele><time>2026-04-16T17:31:09.763Z</time></trkpt><trkpt lat="44.2106028" lon="12.0984903"><ele>26.0</ele><time>2026-04-16T17:31:11.759Z</time></trkpt><trkpt lat="44.2105098" lon="12.0984359"><ele>26.0</ele><time>2026-04-16T17:31:13.758Z</time></trkpt><trkpt lat="44.2104186" lon="12.0983806"><ele>26.0</ele><time>2026-04-16T17:31:15.76Z</time></trkpt><trkpt lat="44.2103288" lon="12.0983244"><ele>26.0</ele><time>2026-04-16T17:31:17.762Z</time></trkpt><trkpt lat="44.2102457" lon="12.0982701"><ele>26.0</ele><time>2026-04-16T17:31:19.757Z</time></trkpt><trkpt lat="44.2101766" lon="12.0982148"><ele>25.999999999999996</ele><time>2026-04-16T17:31:21.772Z</time></trkpt><trkpt lat="44.2101056" lon="12.0981655"><ele>26.0</ele><time>2026-04-16T17:31:23.774Z</time></trkpt><trkpt lat="44.2100349" lon="12.098161"><ele>26.0</ele><time>2026-04-16T17:31:25.773Z</time></trkpt><trkpt lat="44.2099888" lon="12.0982604"><ele>26.0</ele><time>2026-04-16T17:31:28.776Z</time></trkpt><trkpt lat="44.2099683" lon="12.0983681"><ele>25.999999999999996</ele><time>2026-04-16T17:31:32.77Z</time></trkpt><trkpt lat="44.2099631" lon="12.0984707"><ele>26.0</ele><time>2026-04-16T17:31:48.789Z</time></trkpt><trkpt lat="44.2099295" lon="12.0985606"><ele>26.0</ele><time>2026-04-16T17:32:02.765Z</time></trkpt><trkpt lat="44.2099142" lon="12.0986536"><ele>26.0</ele><time>2026-04-16T17:32:06.779Z</time></trkpt><trkpt lat="44.2098496" lon="12.098621"><ele>26.0</ele><time>2026-04-16T17:32:12.79Z</time></trkpt></trkseg></trk></gpx>